[[{"header":{"parameterUnit":"m.s-1","parameterCategory":1,"la1":30.6,"la2":28.766,"lo1":-90.7593,"lo2":-88.6598,"dy":0.0162,"dx":0.0183,"nx":116,"ny":114,"refTime":"2024-03-09T06:00:00:Z","depth":0,"parameterNumber":2,"parameterNumberName":"U-component_of_WINDS"},"data":[0.0,0.0,0.0,0.0,0.0,0.0,0.0,0.0,0.0,0.0,0.0,0.0,0.0,0.0,0.0,0.0,0.0,0.0,0.0,0.0,0.0,0.0,0.0,0.0,0.0,0.0,0.0,0.0,0.0,0.0,0.0,0.0,0.0,0.0,0.0,0.0,0.0,0.0,0.0,0.0,0.0,0.0,0.0,0.0,0.0,0.0,0.0,0.0,0.0,0.0,0.0,0.0,0.0,0.0,0.0,0.0,0.0,0.0,0.0,0.0,0.0,0.0,0.0,0.0,0.0,0.0,0.0,0.0,0.0,0.0,0.0,0.0,0.0,0.0,0.0,0.0,0.0,0.0,0.0,0.0,0.0,0.0,0.0,0.0,0.0,0.0,0.0,0.0,0.0,0.0,0.0,0.0,0.0,0.0,0.0,0.0,0.0,0.0,0.0,0.0,0.0,0.0,0.0,0.0,0.0,0.0,0.0,0.0,0.0,0.0,0.0,0.0,0.0,0.0,0.0,0.0,0.0,0.0,0.0,0.0,0.0,0.0,0.0,0.0,0.0,0.0,0.0,0.0,0.0,0.0,0.0,0.0,0.0,0.0,0.0,0.0,0.0,0.0,0.0,0.0,0.0,0.0,0.0,0.0,0.0,0.0,0.0,0.0,0.0,0.0,0.0,0.0,0.0,0.0,0.0,0.0,0.0,0.0,0.0,0.0,0.0,0.0,0.0,0.0,0.0,0.0,0.0,0.0,0.0,0.0,0.0,0.0,0.0,0.0,0.0,0.0,0.0,0.0,0.0,0.0,0.0,0.0,0.0,0.0,0.0,0.0,0.0,0.0,0.0,0.0,0.0,0.0,0.0,0.0,0.0,0.0,0.0,0.0,0.0,0.0,0.0,0.0,0.0,0.0,0.0,0.0,0.0,0.0,0.0,0.0,0.0,0.0,0.0,0.0,0.0,0.0,0.0,0.0,0.0,0.0,0.0,0.0,0.0,0.0,0.0,0.0,0.0,0.0,0.0,0.0,0.0,0.0,0.0,0.0,0.0,0.0,0.0,0.0,0.0,0.0,0.0,0.0,0.0,0.0,0.0,0.0,0.0,0.0,0.0,0.0,0.0,0.0,0.0,0.0,0.0,0.0,0.0,0.0,0.0,0.0,0.0,0.0,0.0,0.0,0.0,0.0,0.0,0.0,0.0,0.0,0.0,0.0,0.0,0.0,0.0,0.0,0.0,0.0,0.0,0.0,0.0,0.0,0.0,0.0,0.0,0.0,0.0,0.0,0.0,0.0,0.0,0.0,0.0,0.0,0.0,0.0,0.0,0.0,0.0,0.0,0.0,0.0,0.0,0.0,0.0,0.0,0.0,0.0,0.0,0.0,0.0,0.0,0.0,0.0,0.0,0.0,0.0,0.0,0.0,0.0,0.0,0.0,0.0,0.0,0.0,0.0,0.0,0.0,0.0,0.0,0.0,0.0,0.0,0.0,0.0,0.0,0.0,0.0,0.0,0.0,0.0,0.0,0.0,0.0,0.0,0.0,0.0,0.0,0.0,0.0,0.0,0.0,0.0,0.0,0.0,0.0,0.0,0.0,0.0,0.0,0.0,0.0,0.0,0.0,0.0,0.0,0.0,0.0,0.0,0.0,0.0,0.0,0.0,0.0,0.0,0.0,0.0,0.0,0.0,0.0,0.0,0.0,0.0,0.0,0.0,0.0,0.0,0.0,0.0,0.0,0.0,0.0,0.0,0.0,0.0,0.0,0.0,0.0,0.0,0.0,0.0,0.0,0.0,0.0,0.0,0.0,0.0,0.0,0.0,0.0,0.0,0.0,0.0,0.0,0.0,0.0,0.0,0.0,0.0,0.0,0.0,0.0,0.0,0.0,0.0,0.0,0.0,0.0,0.0,0.0,0.0,0.0,0.0,0.0,0.0,0.0,0.0,0.0,0.0,0.0,0.0,0.0,0.0,0.0,0.0,0.0,0.0,0.0,0.0,0.0,0.0,0.0,0.0,0.0,0.0,0.0,0.0,0.0,0.0,0.0,0.0,0.0,0.0,0.0,0.0,0.0,0.0,0.0,0.0,0.0,0.0,0.0,0.0,0.0,0.0,0.0,0.0,0.0,0.0,0.0,0.0,0.0,0.0,0.0,0.0,0.0,0.0,0.0,0.0,0.0,0.0,0.0,0.0,0.0,0.0,0.0,0.0,0.0,0.0,0.0,0.0,0.0,0.0,0.0,0.0,0.0,0.0,0.0,0.0,0.0,0.0,0.0,0.0,0.0,0.0,0.0,0.0,0.0,0.0,0.0,0.0,0.0,0.0,0.0,0.0,0.0,0.0,0.0,0.0,0.0,0.0,0.0,0.0,0.0,0.0,0.0,0.0,0.0,0.0,0.0,0.0,0.0,0.0,0.0,0.0,0.0,0.0,0.0,0.0,0.0,0.0,0.0,0.0,0.0,0.0,0.0,0.0,0.0,0.0,0.0,0.0,0.0,0.0,0.0,0.0,0.0,0.0,0.0,0.0,0.0,0.0,0.0,0.0,0.0,0.0,0.0,0.0,0.0,0.0,0.0,0.0,0.0,0.0,0.0,0.0,0.0,0.0,0.0,0.0,0.0,0.0,0.0,0.0,0.0,0.0,0.0,0.0,0.0,0.0,0.0,0.0,0.0,0.0,0.0,0.0,0.0,0.0,0.0,0.0,0.0,0.0,0.0,0.0,0.0,0.0,0.0,0.0,0.0,0.0,0.0,0.0,0.0,0.0,0.0,0.0,0.0,0.0,0.0,0.0,0.0,0.0,0.0,0.0,0.0,0.0,0.0,0.0,0.0,0.0,0.0,0.0,0.0,0.0,0.0,0.0,0.0,0.0,0.0,0.0,0.0,0.0,0.0,0.0,0.0,0.0,0.0,0.0,0.0,0.0,0.0,0.0,0.0,0.0,0.0,0.0,0.0,0.0,0.0,0.0,0.0,0.0,0.0,0.0,0.0,0.0,0.0,0.0,0.0,0.0,0.0,0.0,0.0,0.0,0.0,0.0,0.0,0.0,0.0,0.0,0.0,0.0,0.0,0.0,0.0,0.0,0.0,0.0,0.0,0.0,0.0,0.0,0.0,0.0,0.0,0.0,0.0,0.0,0.0,0.0,0.0,0.0,0.0,0.0,0.0,0.0,0.0,0.0,0.0,0.0,0.0,0.0,0.0,0.0,0.0,0.0,0.0,0.0,0.0,0.0,0.0,0.0,0.0,0.0,0.0,0.0,0.0,0.0,0.0,0.0,0.0,0.0,0.0,0.0,0.0,0.0,0.0,0.0,0.0,0.0,0.0,0.0,0.0,0.0,0.0,0.0,0.0,0.0,0.0,0.0,0.0,0.0,0.0,0.0,0.0,0.0,0.0,0.0,0.0,0.0,0.0,0.0,0.0,0.0,0.0,0.0,0.0,0.0,0.0,0.0,0.0,0.0,0.0,0.0,0.0,0.0,0.0,0.0,0.0,0.0,0.0,0.0,0.0,0.0,0.0,0.0,0.0,0.0,0.0,0.0,0.0,0.0,0.0,0.0,0.0,0.0,0.0,0.0,0.0,0.0,0.0,0.0,0.0,0.0,0.0,0.0,0.0,0.0,0.0,0.0,0.0,0.0,0.0,0.0,0.0,0.0,0.0,0.0,0.0,0.0,0.0,0.0,0.0,0.0,0.0,0.0,0.0,0.0,0.0,0.0,0.0,0.0,0.0,0.0,0.0,0.0,0.0,0.0,0.0,0.0,0.0,0.0,0.0,0.0,0.0,0.0,0.0,0.0,0.0,0.0,0.0,0.0,0.0,0.0,0.0,0.0,0.0,0.0,0.0,0.0,0.0,0.0,0.0,0.0,0.0,0.0,0.0,0.0,0.0,0.0,0.0,0.0,0.0,0.0,0.0,0.0,0.0,0.0,0.0,0.0,0.0,0.0,0.0,0.0,0.0,0.0,0.0,0.0,0.0,0.0,0.0,0.0,0.0,0.0,0.0,0.0,0.0,0.0,0.0,0.0,0.0,0.0,0.0,0.0,0.0,0.0,0.0,0.0,0.0,0.0,0.0,0.0,0.0,0.0,0.0,0.0,0.0,0.0,0.0,0.0,0.0,0.0,0.0,0.0,0.0,0.0,0.0,0.0,0.0,0.0,0.0,0.0,0.0,0.0,0.0,0.0,0.0,0.0,0.0,0.0,0.0,0.0,0.0,0.0,0.0,0.0,0.0,0.0,0.0,0.0,0.0,0.0,0.0,0.0,0.0,0.0,0.0,0.0,0.0,0.0,0.0,0.0,0.0,0.0,0.0,0.0,0.0,0.0,0.0,0.0,0.0,0.0,0.0,0.0,0.0,0.0,0.0,0.0,0.0,0.0,0.0,0.0,0.0,0.0,0.0,0.0,0.0,0.0,0.0,0.0,0.0,0.0,0.0,0.0,0.0,0.0,0.0,0.0,0.0,0.0,0.0,0.0,0.0,0.0,0.0,0.0,0.0,0.0,0.0,0.0,0.0,0.0,0.0,0.0,0.0,0.0,0.0,0.0,0.0,0.0,0.0,0.0,0.0,0.0,0.0,0.0,0.0,0.0,0.0,0.0,0.0,0.0,0.0,0.0,0.0,0.0,0.0,0.0,0.0,0.0,0.0,0.0,0.0,0.0,0.0,0.0,0.0,0.0,0.0,0.0,0.0,0.0,0.0,0.0,0.0,0.0,0.0,0.0,0.0,0.0,0.0,0.0,0.0,0.0,0.0,0.0,0.0,0.0,0.0,0.0,0.0,0.0,0.0,0.0,0.0,0.0,0.0,0.0,0.0,0.0,0.0,0.0,0.0,0.0,0.0,0.0,0.0,0.0,0.0,0.0,0.0,0.0,0.0,0.0,0.0,0.0,0.0,0.0,0.0,0.0,0.0,0.0,0.0,0.0,0.0,0.0,0.0,0.0,0.0,0.0,0.0,0.0,0.0,0.0,0.0,0.0,0.0,0.0,0.0,0.0,0.0,0.0,0.0,0.0,0.0,0.0,0.0,0.0,0.0,0.0,0.0,0.0,0.0,0.0,0.0,0.0,0.0,0.0,0.0,0.0,0.0,0.0,0.0,0.0,0.0,0.0,0.0,0.0,0.0,0.0,0.0,0.0,0.0,0.0,0.0,0.0,0.0,0.0,0.0,0.0,0.0,0.0,0.0,0.0,0.0,0.0,0.0,0.0,0.0,0.0,0.0,0.0,0.0,0.0,0.0,0.0,0.0,0.0,0.0,0.0,0.0,0.0,0.0,0.0,0.0,0.0,0.0,0.0,0.0,0.0,0.0,0.0,0.0,0.0,0.0,0.0,0.0,0.0,0.0,0.0,0.0,0.0,0.0,0.0,0.0,0.0,0.0,0.0,0.0,0.0,0.0,0.0,0.0,0.0,0.0,0.0,0.0,0.0,0.0,0.0,0.0,0.0,0.0,0.0,0.0,0.0,0.0,0.0,0.0,0.0,0.0,0.0,0.0,0.0,0.0,0.0,0.0,0.0,0.0,0.0,0.0,0.0,0.0,0.0,0.0,0.0,0.0,0.0,0.0,0.0,0.0,0.0,0.0,0.0,0.0,0.0,0.0,0.0,0.0,0.0,0.0,0.0,0.0,0.0,0.0,0.0,0.0,0.0,0.0,0.0,0.0,0.0,0.0,0.0,0.0,0.0,0.0,0.0,0.0,0.0,0.0,0.0,0.0,0.0,0.0,0.0,0.0,0.0,0.0,0.0,0.0,0.0,0.0,0.0,0.0,0.0,0.0,0.0,0.0,0.0,0.0,0.0,0.0,0.0,0.0,0.0,0.0,0.0,0.0,0.0,0.0,0.0,0.0,0.0,0.0,0.0,0.0,0.0,0.0,0.0,0.0,0.0,0.0,0.0,0.0,0.0,0.0,0.0,0.0,0.0,0.0,0.0,0.0,0.0,0.0,0.0,0.0,0.0,0.0,0.0,0.0,0.0,0.0,0.0,0.0,0.0,0.0,0.0,0.0,0.0,0.0,0.0,0.0,0.0,0.0,0.0,0.0,0.0,0.0,0.0,0.0,0.0,0.0,0.0,0.0,0.0,0.0,0.0,0.0,0.0,0.0,3.0254,0.0,0.0,0.0,0.0,0.0,0.0,0.0,0.0,0.0,0.0,0.0,0.0,0.0,0.0,0.0,0.0,0.0,0.0,0.0,0.0,0.0,0.0,0.0,0.0,0.0,0.0,0.0,0.0,0.0,0.0,0.0,0.0,0.0,0.0,0.0,4.8306,4.7902,4.7682,4.7682,4.7315,4.6471,4.5296,4.57,4.6104,4.6507,0.0,0.0,0.0,0.0,0.0,0.0,0.0,0.0,0.0,0.0,0.0,0.0,0.0,0.0,0.0,0.0,0.0,0.0,0.0,0.0,0.0,0.0,0.0,0.0,0.0,0.0,0.0,0.0,0.0,0.0,0.0,0.0,0.0,0.0,0.0,0.0,0.0,0.0,0.0,0.0,0.0,0.0,0.0,0.0,0.0,0.0,0.0,0.0,0.0,0.0,0.0,0.0,0.0,0.0,0.0,0.0,0.0,0.0,0.0,0.0,0.0,0.0,0.0,0.0,0.0,0.0,0.0,0.0,0.0,0.0,0.0,2.8349,0.0,0.0,0.0,0.0,0.0,0.0,0.0,0.0,0.0,0.0,0.0,0.0,0.0,0.0,0.0,0.0,0.0,0.0,0.0,0.0,0.0,0.0,0.0,4.5655,4.6287,4.7241,4.7939,4.8306,0.0,0.0,0.0,0.0,0.0,4.8306,4.8306,4.8306,4.8233,4.8086,4.7278,4.6544,4.592,4.6177,4.6691,4.7388,4.8453,0.0,0.0,0.0,0.0,0.0,0.0,0.0,0.0,0.0,0.0,0.0,0.0,0.0,0.0,0.0,0.0,0.0,0.0,0.0,0.0,0.0,0.0,0.0,0.0,0.0,0.0,0.0,0.0,0.0,0.0,0.0,0.0,0.0,0.0,0.0,0.0,0.0,0.0,0.0,0.0,0.0,0.0,0.0,0.0,0.0,0.0,0.0,0.0,0.0,0.0,0.0,0.0,0.0,0.0,0.0,0.0,0.0,0.0,0.0,0.0,0.0,0.0,0.0,3.0865,3.07,2.993,2.8474,2.7452,2.679,2.6714,2.6322,2.5784,0.0,0.0,0.0,0.0,0.0,0.0,0.0,0.0,0.0,0.0,0.0,0.0,0.0,0.0,0.0,0.0,0.0,0.0,0.0,0.0,0.0,0.0,4.5846,4.6507,4.8012,4.8233,4.8306,4.8306,0.0,4.8306,4.8306,4.8306,4.8306,4.8306,4.8306,4.7976,4.7278,4.6471,4.5993,4.592,4.7352,4.8049,4.8086,4.6911,4.7462,4.9187,0.0,0.0,0.0,0.0,0.0,0.0,0.0,0.0,0.0,0.0,0.0,0.0,0.0,0.0,0.0,0.0,0.0,0.0,0.0,0.0,0.0,0.0,0.0,0.0,0.0,0.0,0.0,0.0,0.0,0.0,0.0,0.0,0.0,0.0,0.0,0.0,0.0,0.0,0.0,0.0,0.0,3.6206,3.6748,0.0,0.0,0.0,0.0,0.0,0.0,0.0,0.0,0.0,0.0,0.0,0.0,0.0,0.0,3.1342,3.0957,3.0443,2.9909,3.0466,3.0561,3.0403,2.7836,2.7099,2.7651,2.5654,0.0,2.3579,2.4388,0.0,0.0,0.0,0.0,0.0,0.0,0.0,0.0,0.0,0.0,0.0,0.0,0.0,0.0,0.0,0.0,0.0,0.0,0.0,0.0,0.0,4.5626,4.6177,4.6874,4.8233,4.8636,4.7682,4.893,4.9297,4.8343,4.8306,4.8306,4.8306,4.7865,4.7241,4.6434,4.6544,4.6581,4.6617,4.8269,4.9003,4.8967,4.8746,4.8746,4.882,4.8086,0.0,0.0,0.0,0.0,0.0,0.0,0.0,0.0,0.0,0.0,0.0,0.0,0.0,0.0,0.0,0.0,0.0,0.0,0.0,0.0,0.0,0.0,0.0,0.0,0.0,0.0,0.0,0.0,0.0,0.0,0.0,0.0,0.0,0.0,0.0,0.0,0.0,0.0,0.0,3.7662,3.7109,3.6262,3.6753,3.6901,0.0,0.0,0.0,0.0,0.0,0.0,0.0,0.0,0.0,3.1802,3.0686,3.0342,3.0881,3.0998,3.1085,3.116,3.1738,3.1989,3.1905,2.9276,2.85,2.8967,2.652,2.5312,2.4902,2.4486,2.3819,2.3193,0.0,0.0,0.0,0.0,0.0,2.2884,0.0,0.0,0.0,0.0,0.0,0.0,0.0,0.0,0.0,0.0,0.0,0.0,4.5259,4.603,4.6691,4.7131,4.8636,4.915,4.8122,4.9187,4.9407,4.8343,4.8306,4.8306,4.8306,4.7719,4.7021,4.6214,4.7462,4.8049,4.8122,4.9958,5.0802,5.0765,5.1426,5.0912,4.9517,4.8673,4.7865,4.7095,0.0,0.0,0.0,0.0,0.0,0.0,0.0,0.0,0.0,0.0,0.0,0.0,0.0,0.0,0.0,0.0,0.0,0.0,0.0,0.0,0.0,0.0,0.0,0.0,0.0,0.0,0.0,0.0,0.0,0.0,0.0,0.0,0.0,0.0,0.0,0.0,0.0,3.8228,3.7562,3.5806,3.6631,3.6648,0.0,0.0,0.0,0.0,0.0,0.0,3.2334,3.1615,3.1394,3.1707,3.0851,3.0683,3.1235,3.1763,3.224,3.2641,3.3219,3.3571,3.3608,3.0949,3.0045,3.0326,2.786,2.666,2.6445,2.5117,2.4199,2.3702,2.4303,2.3894,2.2967,2.3667,2.2366,2.0223,0.0,0.0,0.0,0.0,0.0,0.0,0.0,0.0,0.0,0.0,0.0,4.4415,4.6764,4.7719,4.882,5.0398,4.9958,4.9884,5.0582,4.8526,4.7609,4.8269,4.8306,4.8306,4.8306,4.8269,4.7865,4.7058,4.9444,5.0618,5.0655,5.3041,5.4142,5.4142,5.4216,5.3739,5.2747,4.9627,4.9187,5.0288,4.7168,0.0,0.0,0.0,0.0,0.0,0.0,0.0,0.0,0.0,0.0,0.0,0.0,0.0,0.0,0.0,0.0,0.0,0.0,0.0,0.0,0.0,0.0,0.0,0.0,0.0,0.0,0.0,0.0,0.0,0.0,0.0,0.0,0.0,0.0,0.0,0.0,0.0,0.0,3.5783,3.6199,0.0,0.0,0.0,0.0,3.1462,3.1819,3.194,3.1504,3.1392,3.187,3.2953,3.2365,3.2365,3.2943,3.3495,3.3796,3.3822,3.4374,3.4926,3.5311,3.2181,3.1076,3.1448,2.8799,2.7363,2.6875,2.5566,2.5,2.4883,2.4173,2.3237,2.2402,2.2023,2.0382,1.8183,0.0,0.0,0.0,0.0,0.0,0.0,0.0,0.0,4.3791,4.4599,4.4452,4.5406,4.8379,4.8453,4.9187,5.1389,5.1793,5.161,5.0839,5.0472,4.9921,4.915,4.9114,4.9114,4.9114,4.8086,4.8196,4.9481,5.0875,5.2087,5.3151,5.506,5.5941,5.5978,5.6492,5.6271,5.528,5.1499,4.9627,4.904,4.7352,4.6214,0.0,0.0,0.0,0.0,0.0,0.0,0.0,0.0,0.0,0.0,0.0,0.0,0.0,0.0,0.0,0.0,0.0,0.0,0.0,0.0,0.0,0.0,0.0,0.0,0.0,0.0,0.0,0.0,0.0,0.0,0.0,0.0,0.0,0.0,0.0,0.0,0.0,3.8216,3.9055,0.0,3.5986,3.5583,3.453,3.2577,3.2618,3.2657,3.2466,3.2466,3.2817,3.3571,3.3395,3.3746,3.465,3.4851,3.5127,3.5479,3.568,3.5881,3.5962,3.3087,3.1905,3.1984,2.9268,2.7988,2.7773,2.7051,2.6406,2.5762,2.4256,2.2947,2.1858,2.0635,1.9205,1.7803,0.0,0.0,0.0,0.0,0.0,0.0,0.0,0.0,4.3791,4.4599,4.4966,4.625,4.926,4.9811,5.0949,5.3408,5.3371,5.2858,5.2087,5.1206,5.0288,4.9187,4.915,4.9003,4.8746,4.8746,4.9554,5.1206,5.2821,5.4179,5.5244,5.6602,5.7373,5.7629,5.818,5.8253,5.7813,5.4876,5.2234,4.9811,4.8196,4.7535,4.7315,0.0,0.0,0.0,0.0,0.0,0.0,0.0,0.0,0.0,0.0,0.0,0.0,0.0,0.0,0.0,0.0,0.0,0.0,0.0,0.0,0.0,0.0,0.0,0.0,0.0,0.0,0.0,0.0,0.0,0.0,0.0,0.0,0.0,0.0,0.0,4.0152,3.9936,4.1182,4.1008,3.8427,3.731,3.6116,3.4435,3.4059,3.3897,3.3897,3.4098,3.4424,3.5002,3.5429,3.5785,3.6081,3.6523,3.6625,3.6358,3.6056,3.5938,3.5842,3.3083,3.1863,3.1782,2.9525,2.8496,2.8476,2.8203,2.7754,2.7065,2.5402,2.3877,2.2741,2.1713,2.0481,1.9324,0.0,0.0,0.0,0.0,0.0,0.0,0.0,4.3497,4.3791,4.4599,4.5406,4.6838,4.937,5.1793,5.4216,5.6675,5.4693,5.3628,5.4399,5.0618,4.8343,4.8379,4.8343,4.8012,4.7314,5.0435,5.205,5.216,5.528,5.6822,5.6859,5.7666,5.8437,5.9208,5.9245,5.9685,6.0346,5.9575,5.7005,5.3151,4.9811,4.9407,5.0398,0.0,0.0,0.0,0.0,0.0,0.0,0.0,0.0,0.0,0.0,0.0,0.0,0.0,0.0,0.0,0.0,0.0,0.0,0.0,0.0,0.0,0.0,0.0,0.0,0.0,0.0,0.0,0.0,0.0,0.0,0.0,0.0,0.0,3.8539,4.0438,4.1418,4.0832,4.2334,4.2515,4.04,3.8915,3.7754,3.6731,3.5981,3.5629,3.5629,3.6132,3.6754,3.7283,3.847,3.847,3.7308,3.847,3.8184,3.6383,3.5525,3.5046,3.4946,3.2263,3.1042,3.0935,2.9579,2.8926,2.8926,2.8926,2.8906,2.8661,2.7435,2.6088,2.4909,2.4909,2.3947,2.2519,0.0,0.0,0.0,0.0,0.0,0.0,4.3497,4.3497,4.3791,4.4599,4.5406,4.7278,5.0912,5.2968,5.528,5.829,5.6345,5.5023,5.5244,5.1463,4.9481,5.0105,4.8967,4.9591,5.2344,5.2711,5.3739,5.55,5.6381,5.7116,5.7703,5.851,5.8988,5.9245,5.9832,6.0199,6.0382,6.0162,5.9428,5.8107,5.4252,5.161,4.9698,0.0,0.0,0.0,0.0,0.0,0.0,0.0,0.0,0.0,0.0,0.0,0.0,0.0,0.0,0.0,0.0,0.0,0.0,0.0,0.0,0.0,0.0,0.0,0.0,0.0,0.0,0.0,0.0,0.0,0.0,0.0,3.8243,3.8149,3.9212,4.0607,4.1912,4.318,4.4629,4.4917,4.3458,4.1759,4.024,3.9057,3.7954,3.7337,3.7337,3.7462,3.8074,3.9138,3.8589,3.8614,3.9138,3.8589,3.7876,3.696,3.7096,3.6429,3.4946,3.3659,3.2447,3.1395,3.0018,2.9199,2.8926,2.8926,2.8057,2.6737,2.5304,2.4401,2.3854,2.1765,2.067,2.0302,0.0,0.0,0.0,0.0,0.0,0.0,4.3497,4.3497,4.3644,4.4158,4.6104,4.8489,5.1206,5.3849,5.6308,5.851,5.6492,5.495,5.462,5.1463,4.9627,4.9738,4.9811,5.1132,5.3849,5.4106,5.506,5.6822,5.7483,5.8033,5.851,5.9355,5.9905,6.0236,6.0676,6.13,6.1924,6.1557,6.141,6.1141,5.8105,5.5421,5.2862,5.0335,4.8872,4.8032,4.7005,4.6618,4.6465,4.5717,0.0,0.0,0.0,0.0,0.0,0.0,0.0,0.0,0.0,0.0,0.0,0.0,0.0,0.0,0.0,0.0,0.0,0.0,0.0,0.0,0.0,0.0,0.0,0.0,3.8828,3.9421,4.0944,4.1746,4.2851,4.4526,4.5903,4.6251,4.5049,4.3413,4.1988,4.0658,3.9466,3.8617,3.8391,3.8366,3.8911,4.0219,3.957,3.957,4.0314,3.957,3.863,3.7538,3.6816,3.5868,3.4636,3.3029,3.1856,0.0,3.0142,2.9687,2.9342,2.8764,2.7716,0.0,0.0,0.0,0.0,0.0,2.0816,2.02,0.0,0.0,0.0,0.0,0.0,0.0,4.3497,4.3497,4.3497,4.3497,4.6985,4.9738,5.0435,5.4142,5.6932,5.7923,5.5721,5.3885,5.3004,5.0729,4.926,4.8893,5.1059,5.2674,5.3592,5.5097,5.6198,5.6932,5.8364,5.9134,5.9245,6.0015,6.0823,6.1594,6.1704,6.2622,6.4016,6.3172,6.2865,6.2786,6.1245,5.9583,5.7562,5.3634,5.2219,5.2008,5.0448,4.8744,4.7158,4.6346,0.0,0.0,0.0,0.0,0.0,0.0,0.0,0.0,0.0,0.0,0.0,0.0,0.0,0.0,0.0,0.0,0.0,0.0,0.0,0.0,0.0,0.0,0.0,0.0,3.9404,4.0636,4.321,4.3658,4.4197,4.5484,4.6681,4.6933,4.5595,4.4369,4.3108,4.169,4.0465,3.9471,3.8994,0.0,0.0,0.0,0.0,4.0755,4.0923,4.0755,3.9685,3.7792,3.5771,3.4594,3.4095,3.1666,3.0502,3.0273,3.0273,3.0139,2.9833,2.8431,2.7365,2.669,2.5909,2.4616,2.3328,2.3279,2.2363,0.0,0.0,0.0,0.0,0.0,0.0,0.0,4.3497,4.3497,4.3497,4.3497,4.6434,4.86,4.8783,5.2417,5.5721,5.7813,5.5207,5.2821,5.1353,4.9554,4.9664,5.216,5.3335,5.462,5.6088,5.7042,5.7593,5.7776,5.807,5.8584,5.9245,6.0015,6.0823,6.163,6.2291,6.3135,6.4016,6.3172,6.3142,6.3615,6.265,6.0178,5.674,5.4169,5.2451,5.1139,4.9718,4.9684,5.0168,4.8815,4.8951,4.9357,4.7428,4.6109,0.0,0.0,0.0,0.0,0.0,0.0,0.0,0.0,0.0,0.0,0.0,0.0,0.0,0.0,0.0,0.0,0.0,0.0,0.0,4.0708,4.1468,4.2521,4.4616,4.5394,4.6232,4.7549,4.7938,4.7614,4.635,4.5081,4.3545,4.1743,4.0465,3.9647,3.9546,3.9546,0.0,4.1433,4.0488,4.0387,4.1433,4.0387,3.8888,3.6964,0.0,0.0,3.2585,3.2538,3.1836,3.0762,3.0762,2.9833,2.8199,2.7966,2.6082,2.334,2.2757,2.1636,2.0592,2.0354,1.919,1.7886,0.0,0.0,0.0,0.0,0.0,0.0,4.3497,4.3497,4.3497,4.3497,4.5957,4.7719,4.7719,5.0655,5.2894,5.3665,5.1903,5.0435,4.9591,4.9921,5.1426,5.4289,5.5574,5.6969,5.8584,5.8988,5.9208,5.9208,5.9612,6.0015,6.0419,6.1227,6.1814,6.2218,6.2622,6.3503,6.464,6.3308,6.3401,6.4338,6.2702,6.0839,5.8915,5.7492,5.5637,5.3878,5.3143,5.2672,5.2198,5.1048,5.0642,5.0405,4.8917,4.7699,4.6583,0.0,0.0,0.0,0.0,0.0,0.0,0.0,0.0,0.0,0.0,0.0,0.0,0.0,0.0,3.7807,3.8487,0.0,4.0446,4.1784,4.3042,4.4287,4.5633,4.6681,4.7549,4.8207,4.7407,4.6596,4.5864,4.4386,4.3138,4.2563,4.1029,4.0385,4.1054,4.0235,4.0262,4.1591,4.0364,4.0262,4.1591,4.0364,3.8773,3.7073,3.6587,3.5022,3.2609,3.2199,3.1536,3.0879,3.002,2.9046,2.8002,2.6135,2.4034,2.1695,2.118,2.0482,1.9668,1.8775,1.7799,1.6727,0.0,0.0,0.0,0.0,0.0,0.0,0.0,4.3497,4.3497,4.3497,4.548,4.6838,4.6654,4.871,4.9811,4.9077,4.8893,4.8857,4.9003,5.1169,5.3518,5.5941,5.7593,5.9134,6.0603,6.0639,6.0713,6.086,6.152,6.1814,6.1851,6.2511,6.2915,6.3062,6.2874,6.3701,6.5148,6.3429,6.3633,6.4858,6.268,6.1878,6.1941,6.1392,5.9587,5.7408,5.7137,5.5513,5.3416,5.2909,5.1657,5.027,4.9965,4.9357,4.8443,4.6819,4.6229,0.0,0.0,0.0,0.0,0.0,0.0,0.0,0.0,3.697,3.6451,3.7701,3.797,3.8182,3.8841,4.0487,4.2013,4.2791,4.4377,4.5723,4.6411,4.7429,4.8059,4.7971,4.6778,4.5816,4.5315,4.3802,4.2834,4.2996,4.1511,4.1177,4.2341,4.0823,4.0491,4.1559,4.0593,4.0337,4.0948,3.9979,3.8469,3.6595,3.5398,3.4069,3.2644,3.1441,3.0898,3.0762,2.8783,2.7811,2.7177,2.3993,2.2114,2.1056,2.0588,1.9971,1.9335,1.7877,1.6828,1.5655,0.0,0.0,0.0,0.0,0.0,0.0,0.0,0.0,4.3497,4.3497,4.4966,4.5773,4.5076,4.6507,4.7498,4.7388,4.9297,5.0839,5.1536,5.3188,5.5207,5.7629,5.9281,6.0566,6.1447,6.1484,6.1814,6.2548,6.2622,6.2695,6.2695,6.2768,6.3209,6.3943,6.3112,6.3574,6.5019,6.3315,6.3471,6.4772,6.3754,6.3748,6.4233,6.4131,6.2256,5.9573,5.8254,5.5919,5.3585,5.416,5.2875,5.1319,5.2604,5.2469,5.1386,4.9255,4.6334,4.3396,4.1593,3.9269,3.7432,3.7654,3.725,3.7033,0.0,3.833,3.8437,3.9094,3.9661,4.0277,4.0935,4.2192,4.3509,4.4766,4.5663,4.6441,4.71,4.7309,4.7258,4.6679,4.7355,4.7241,4.5425,4.4528,4.331,4.1676,4.1386,4.1254,4.1443,4.1285,4.1153,4.1342,4.1153,4.0343,3.8707,3.8491,3.6818,3.362,3.3395,3.253,3.1112,3.1015,3.0898,3.0762,2.7572,2.5497,2.3931,2.2062,2.1195,2.1096,2.1042,1.9927,1.8232,1.7635,1.5382,1.2689,0.0,0.0,0.0,0.0,0.0,0.0,0.0,0.0,0.0,4.3497,4.4085,4.4378,4.4048,4.4599,4.5002,4.5002,4.6801,4.9114,5.183,5.3922,5.6566,5.988,6.1115,6.1842,6.2206,6.2206,6.2386,6.2709,6.2709,6.2709,6.2709,6.2709,6.3082,6.3872,6.3474,6.4108,6.5568,6.432,6.4737,6.5959,6.5181,6.5017,6.5189,6.4749,6.2448,5.9268,5.778,5.5649,0.0,5.23,5.1623,5.1488,5.301,5.2063,5.0202,4.9289,4.7012,4.4307,4.2402,3.9612,3.7427,3.8027,3.7961,3.8108,3.9294,3.9606,3.993,4.092,4.1654,4.2312,4.297,4.4167,4.5244,0.0,4.6441,4.698,4.7279,4.7638,4.7199,4.5573,4.6685,4.6825,4.4813,4.4332,4.4176,4.4002,4.2595,4.2366,4.3429,4.2087,4.1329,4.1329,4.1329,4.0384,3.837,3.8346,3.6535,3.3077,3.3077,3.2322,3.0898,3.0898,2.9903,2.7931,2.5635,2.3683,2.209,2.1348,2.1109,2.0982,1.9941,1.8348,1.6697,1.649,1.4715,1.2134,0.0,0.0,0.0,0.0,0.0,0.0,0.0,0.0,0.0,0.0,4.3497,4.3497,4.3497,4.3497,4.3497,4.3497,4.5186,4.7682,5.1096,5.4216,5.7375,6.0683,6.2053,6.2761,6.2917,6.2952,6.3058,6.3271,6.3483,6.3447,6.3271,6.3418,6.3806,6.4305,6.4104,6.4811,6.618,6.5377,6.5852,6.7226,6.6568,6.617,6.5865,6.4749,6.1839,5.822,5.6731,5.4228,5.1386,4.9729,4.9255,4.9695,5.142,5.0608,4.8883,4.8274,4.6229,4.3729,4.1815,3.9688,3.8209,3.8958,3.9123,3.949,4.0905,4.1205,4.1594,4.291,4.3688,4.4317,4.4766,4.5813,4.6591,4.6591,4.698,4.7309,4.7309,4.7549,4.6903,4.476,4.5805,4.5855,4.3694,4.3887,4.4334,4.4874,4.3373,4.3085,4.4427,4.2754,4.1781,4.1781,4.132,4.0074,3.7903,3.7437,3.5669,3.253,3.253,3.1883,3.0898,3.0392,2.8664,2.5863,2.4301,2.2591,2.1109,2.1109,2.1109,2.0982,1.9164,1.7363,1.5671,1.516,1.3609,1.1518,0.0,0.0,0.0,0.0,0.0,0.0,0.0,0.0,0.0,0.0,0.0,0.0,0.0,4.3497,4.3497,4.3497,4.57,4.7792,4.9481,5.4106,5.7485,5.9078,6.142,6.3012,6.373,6.3766,6.4119,6.4928,6.5605,6.5605,6.4862,6.5573,6.5926,6.5893,6.5015,6.5515,6.6934,6.6051,6.6558,6.7912,6.7827,6.7421,6.6542,6.4377,6.0757,5.6664,5.5175,5.1352,4.6989,4.6921,4.594,4.5162,4.7394,4.8511,4.8578,4.6447,4.3193,4.0104,3.9178,3.8779,3.8889,4.0183,4.0416,4.0846,4.2851,4.3269,4.3629,4.4945,4.5753,4.6232,4.6262,4.68,4.7279,4.7279,4.7309,4.7309,4.7309,4.677,4.5895,4.4556,4.4961,4.4356,0.0,4.3071,4.3594,4.2402,4.266,4.2961,4.3073,4.2936,4.2936,4.2936,4.1371,3.945,3.6928,3.5432,3.3396,3.0995,3.0995,3.0879,3.0879,2.9157,2.7572,2.5863,2.4301,2.2591,2.1109,2.1109,2.1109,2.0982,1.9164,1.7462,1.5644,1.3962,1.1954,1.0046,0.0,0.0,0.0,0.0,0.0,0.0,0.0,0.0,0.0,0.0,0.0,0.0,0.0,0.0,0.0,0.0,4.4745,4.6434,4.8563,5.2784,5.5915,5.7457,6.0844,6.2521,6.2126,6.2614,6.3308,6.3996,6.4236,6.4511,6.4752,6.5431,6.6048,6.6563,6.6758,6.7414,6.8402,6.8099,6.7929,6.7861,6.7387,6.6745,6.5764,6.3057,5.8964,5.4296,0.0,4.8477,4.5094,4.3572,4.3064,4.3369,4.5128,4.5162,4.4215,4.2489,4.1343,4.0565,4.0155,4.0318,4.0878,4.2061,4.2393,4.288,4.4885,4.5334,4.5454,4.5873,4.5454,4.4855,4.4407,4.4526,4.4549,4.4147,4.5513,4.6513,4.6107,4.5872,4.4962,4.2885,4.3178,0.0,0.0,0.0,0.0,4.4118,4.3851,4.4084,4.4863,4.3721,4.2513,4.1419,4.0822,3.9059,3.5833,3.4922,3.3443,3.1309,3.1016,3.0274,2.9157,2.7572,2.5984,2.4301,2.2702,2.1601,2.1109,2.1109,2.0449,1.9152,1.7474,1.5654,1.397,1.2281,1.1076,1.0344,0.0,0.0,0.0,0.0,0.0,0.0,0.0,0.0,0.0,0.0,0.0,0.0,0.0,0.0,0.0,0.0,0.0,4.548,4.7315,5.0729,5.3397,5.4871,5.8016,5.9371,5.8755,5.9241,5.9737,6.0251,6.0762,6.1427,6.2212,6.3226,6.4106,6.4884,6.5595,6.6643,6.7861,6.759,6.7184,6.6576,6.5019,6.3497,6.1772,5.8524,5.4566,0.0,4.7597,4.5026,4.276,4.1305,4.1102,4.1677,4.2354,4.1677,4.0591,4.0138,4.0181,4.0603,4.1209,4.1744,4.2484,4.3728,4.4227,4.4796,4.6322,4.6501,4.6172,4.5693,4.4736,4.3688,4.2791,4.2198,4.1981,4.2631,4.3696,4.4637,4.5248,4.4985,4.4105,4.2528,4.2095,4.1125,0.0,0.0,0.0,4.3466,4.3462,4.3799,4.4552,4.3011,4.1672,4.0592,3.9522,3.7651,3.5002,3.4134,3.2892,3.1289,3.1172,3.0173,2.8307,2.6712,2.513,2.345,2.1853,2.1109,2.1109,2.0462,1.9546,1.8244,1.5913,1.4232,1.3062,1.1372,1.0656,1.0568,0.0,0.0,0.0,0.0,0.0,0.0,0.0,0.0,0.0,0.0,0.0,0.0,0.0,0.0,0.0,0.0,0.0,0.0,4.5736,4.8086,5.0112,5.1491,5.3217,5.4116,5.3985,5.402,5.4091,5.4287,5.5671,5.6816,5.7823,5.9208,6.0291,6.107,6.1704,6.3226,6.5121,6.4444,6.4106,6.3768,6.0858,5.8017,5.5074,5.1386,4.8206,4.5399,4.3166,4.1373,4.0003,4.0087,4.0087,3.9901,3.9135,3.8423,3.8083,3.946,3.988,4.0214,4.2181,4.3107,4.3898,4.5125,4.5933,4.6561,4.713,4.6711,4.5843,4.4496,4.3599,4.2641,4.1354,3.9976,3.9905,4.2535,4.1938,4.2125,4.4686,4.4113,4.3352,0.0,0.0,4.0491,0.0,0.0,0.0,4.048,0.0,4.2242,4.2183,4.1153,4.0476,4.0361,3.7363,3.5386,3.4386,3.3015,3.1777,3.0957,3.1328,3.042,2.8206,2.6712,2.5146,2.3325,2.1853,2.1109,2.0982,1.9164,1.85,1.7988,1.4623,1.3193,1.2931,1.1372,1.0717,1.0697,0.0,0.0,0.0,0.0,0.0,0.0,0.0,0.0,0.0,0.0,0.0,0.0,0.0,0.0,0.0,0.0,0.0,0.0,4.4085,4.6397,4.7936,4.8287,5.1025,5.2572,5.2472,5.3044,5.3637,5.4161,5.452,5.5122,5.5911,5.6363,5.6679,5.6919,5.725,5.7746,5.8254,5.8051,5.734,5.6224,5.4837,5.3518,5.2063,4.9458,4.7327,4.5466,4.3741,4.146,3.9315,3.9901,3.9714,3.9169,3.8951,3.8707,3.8914,4.0705,4.1852,4.2952,4.4941,4.6264,4.71,4.7429,4.7668,4.7578,4.677,4.5663,4.4436,4.312,4.0756,3.8661,3.7883,3.7834,3.796,3.8267,4.0829,4.2842,4.309,4.3229,4.3057,4.2625,4.1354,4.0389,3.9982,4.0107,0.0,0.0,4.1347,4.2857,4.2595,4.1274,3.9522,3.7122,3.6295,3.5108,3.3689,3.3021,3.2363,3.1836,3.1621,2.9971,2.7013,2.6344,2.4409,2.1727,2.1235,2.1109,2.0982,1.9164,1.7731,1.6302,1.4101,1.2545,1.1372,1.085,1.0717,1.0717,0.0,0.0,0.0,0.0,0.0,0.0,0.0,0.0,0.0,0.0,0.0,0.0,0.0,0.0,0.0,0.0,0.0,0.0,0.0,4.4782,4.57,4.603,4.7829,4.8769,4.8756,4.9191,4.9493,4.9662,4.9978,5.0554,5.1394,5.1546,5.1912,5.2467,5.2629,5.3145,5.3721,5.3382,5.257,0.0,0.0,4.8274,4.709,4.5196,4.3944,4.3132,4.2252,4.0648,3.904,3.9995,3.987,3.9233,3.9534,3.9716,4.0287,4.2262,4.353,4.4734,4.6772,4.7955,4.8656,4.8356,4.8297,4.7788,4.5873,4.4646,4.318,4.0696,3.8169,3.6191,3.5335,3.4709,3.4909,3.6693,3.8894,4.074,4.2166,4.2861,4.2892,4.2344,4.1631,4.1028,4.0475,4.0425,3.9964,0.0,4.0375,4.1072,4.0386,3.922,3.7723,3.5806,3.5088,3.4202,3.2871,3.2637,3.2305,3.1875,3.1054,2.9306,2.6529,2.5429,2.3559,2.1109,0.0,2.1109,2.0856,1.8372,1.6818,1.5654,1.3193,1.1505,1.0717,1.0717,1.0717,1.0724,0.0,0.0,0.0,0.0,0.0,0.0,0.0,0.0,0.0,0.0,4.3497,0.0,0.0,0.0,0.0,0.0,0.0,0.0,0.0,0.0,4.3791,4.4525,4.4562,4.4562,4.4562,4.4562,4.4376,4.3926,4.4511,4.5211,4.5979,4.6041,4.6635,4.7686,4.7758,4.8545,4.9695,4.9018,4.8409,4.7597,4.5026,4.3166,4.1847,0.0,4.0087,4.0087,3.985,3.9315,3.8907,4.01,4.0125,3.9751,4.0662,4.1255,4.2073,4.4197,4.5304,4.6262,4.8267,4.9224,4.9464,4.8745,4.8416,4.7549,4.4706,4.3419,4.1743,3.7943,3.5839,3.4351,3.3416,3.1875,3.2155,3.6388,3.7154,3.8272,4.1738,4.2786,4.3048,4.2402,4.2258,4.2057,4.1505,4.1455,4.0843,3.9557,3.9042,3.8318,3.7199,3.6303,3.5683,3.5437,3.4133,3.3066,3.2344,3.2344,3.2007,3.1397,3.0303,2.8587,2.6221,2.4517,2.2745,2.1109,0.0,0.0,2.0843,1.7345,1.5913,1.5524,1.2025,1.0717,1.0717,1.0717,1.0724,1.0724,0.0,0.0,0.0,0.0,0.0,0.0,0.0,0.0,0.0,0.0,4.3497,4.3497,0.0,0.0,0.0,0.0,0.0,0.0,0.0,0.0,0.0,4.3681,4.3718,4.3718,4.3718,4.3718,4.3684,4.3616,4.3274,4.3176,4.334,4.2358,4.2023,4.2258,4.1818,4.1779,4.2016,4.188,4.1745,4.1576,4.1068,4.0696,4.0426,4.0189,0.0,0.0,3.8668,3.8108,3.8147,3.9266,3.9581,3.9955,4.2168,4.2869,4.3599,4.6681,4.8057,4.9015,5.099,5.1618,5.1409,5.0212,4.9075,4.7309,4.3539,4.1354,3.929,3.6417,3.3715,3.1835,3.1642,3.222,3.3199,3.4634,3.8007,4.0673,4.1386,4.2863,4.3646,4.2982,4.2836,4.261,4.2057,4.2007,0.0,0.0,0.0,3.7222,3.6146,3.5886,3.5211,3.3902,3.3544,3.3359,3.3203,3.3203,3.2371,3.0865,3.0339,2.8357,2.494,2.4239,2.2961,2.1109,0.0,0.0,2.0843,1.7345,1.5913,1.5524,1.2025,1.0717,1.0717,1.0717,1.0731,1.0751,0.0,0.0,0.0,0.0,0.0,0.0,0.0,4.28,4.2727,4.3975,4.4488,4.4415,4.3571,4.3497,4.3497,0.0,0.0,0.0,0.0,0.0,0.0,0.0,4.3497,4.3497,4.3497,4.3497,4.3178,4.2619,0.0,4.2062,4.1768,4.0874,4.0625,4.0874,4.0319,4.0087,4.0087,4.0087,4.0087,4.0087,4.0087,4.0087,4.0087,4.0087,0.0,0.0,3.8832,3.8133,3.7939,3.9123,3.9504,4.0031,4.3289,4.4825,4.5843,4.8117,4.9254,5.0122,5.1768,5.2456,5.2306,5.0661,4.9254,4.707,4.2402,4.0068,3.7943,3.4622,3.2169,3.0637,3.0697,3.0609,3.1119,3.2778,3.5059,3.7246,3.9272,4.0821,4.1974,4.2519,4.3062,4.2824,4.1443,4.1394,3.9982,0.0,0.0,3.5834,3.4267,3.4267,3.4017,3.3418,3.3203,3.3105,3.3105,3.3105,3.2169,3.0465,2.9309,2.7239,2.4516,2.3148,2.1991,2.1109,2.1109,0.0,2.0843,1.7345,1.5913,1.5524,1.2025,1.0717,1.0717,1.0717,1.0731,1.0485,0.0,0.0,0.0,0.0,0.0,0.0,0.0,4.2947,4.3204,4.5002,4.592,4.581,4.4195,4.4011,4.3864,0.0,0.0,0.0,0.0,0.0,0.0,0.0,0.0,0.0,4.3497,0.0,0.0,4.1979,4.1853,0.0,0.0,0.0,0.0,0.0,4.0303,4.0087,4.0087,4.0087,4.0087,0.0,0.0,4.0087,0.0,0.0,0.0,0.0,0.0,3.8189,3.7729,3.8951,3.9282,3.9798,4.3359,4.5663,4.7369,4.8656,4.9823,5.096,5.2276,5.2995,5.2965,5.1109,4.9374,4.6741,4.1564,3.914,3.6828,3.2822,3.0802,2.9748,2.9713,2.8892,2.8988,3.1266,3.2249,3.3999,3.7535,3.9171,4.0461,4.2041,4.3037,4.2846,4.0755,4.0592,0.0,0.0,0.0,0.0,3.3054,3.293,3.3086,3.3418,3.3008,3.2832,3.293,3.2832,3.1759,2.9669,2.8103,2.6232,2.391,2.2043,2.1162,2.1109,2.1109,0.0,0.0,1.7345,1.5913,1.5524,1.2025,1.0717,1.0717,1.0724,1.0744,1.0358,0.0,0.0,0.0,0.0,0.0,0.0,0.0,4.3424,4.4232,4.6581,4.7609,4.7462,4.5847,4.5663,4.5076,0.0,0.0,0.0,0.0,0.0,0.0,0.0,0.0,0.0,0.0,0.0,0.0,4.2616,4.2062,0.0,0.0,0.0,0.0,0.0,0.0,4.0087,4.0087,4.0087,0.0,0.0,0.0,0.0,0.0,0.0,0.0,0.0,0.0,3.7381,3.6909,3.8115,3.8492,3.8871,4.1055,4.3898,4.6681,4.7997,5.0092,5.2306,5.3653,5.4072,5.3773,5.2366,4.9703,4.6172,4.1474,3.8452,3.5472,3.1355,2.9713,2.8867,2.8065,2.8305,2.9073,3.0466,3.2797,3.5305,3.7653,3.9582,4.1071,4.2099,4.2685,4.2425,4.0731,4.0592,0.0,0.0,0.0,0.0,3.3466,3.3359,3.3379,3.3418,3.3008,3.2988,3.3359,3.2988,3.1113,2.7877,2.7715,2.5572,2.1849,2.1666,2.1363,2.1109,2.1109,0.0,0.0,1.7345,1.5913,1.5524,1.2025,1.0717,1.0724,1.0744,1.0638,1.0672,0.0,0.0,0.0,0.0,0.0,0.0,4.2359,4.2359,4.3461,4.7315,4.8122,4.8269,4.8122,4.7645,4.6324,4.3718,0.0,0.0,0.0,0.0,0.0,0.0,0.0,0.0,0.0,0.0,4.3069,4.218,4.1937,0.0,0.0,0.0,0.0,0.0,0.0,4.0087,4.0087,4.0087,0.0,0.0,0.0,0.0,0.0,0.0,0.0,0.0,0.0,0.0,3.6631,3.6622,3.6926,3.7315,3.7704,3.9828,4.2731,4.5633,4.8087,5.0301,5.2426,5.3892,5.4371,5.2636,4.9434,4.5603,4.1354,3.7734,3.4341,3.1032,2.9628,2.8748,2.7868,2.7546,2.7761,2.8925,2.977,3.1239,3.406,3.5124,3.6413,3.8526,3.9188,3.9101,0.0,0.0,0.0,0.0,0.0,0.0,3.3047,3.3047,3.3164,3.3418,3.3008,3.2871,3.3047,3.1588,2.9708,2.7305,2.6184,2.4178,2.155,2.1363,2.1216,2.1109,2.1109,0.0,0.0,1.7345,1.5913,1.5524,1.2025,1.0717,1.0724,1.0744,0.9407,0.7254,0.0,0.0,0.0,0.0,0.0,3.9496,4.1919,4.2029,4.3387,4.7719,4.8306,4.8636,4.9481,4.8379,4.6691,4.4415,4.3754,0.0,0.0,0.0,0.0,0.0,0.0,0.0,0.0,0.0,4.2582,4.181,4.1639,4.1059,0.0,0.0,4.0087,4.0087,0.0,0.0,0.0,0.0,0.0,0.0,0.0,0.0,0.0,0.0,0.0,0.0,0.0,0.0,0.0,0.0,0.0,3.6118,3.5639,3.6776,3.896,4.2521,4.5514,4.8207,5.0421,5.2636,5.3922,5.2306,4.8955,4.5035,4.1265,3.7315,3.3624,3.052,2.9442,2.8684,2.7537,2.6918,2.6766,2.772,2.7544,2.8373,3.1537,3.2114,3.3157,3.5885,0.0,3.6503,0.0,3.6436,0.0,0.0,0.0,0.0,0.0,3.2793,3.2871,3.3047,3.2637,3.248,3.2598,3.0519,2.8676,2.6925,2.5045,2.3261,2.1416,2.1203,2.1109,2.1109,0.0,0.0,0.0,1.7345,1.5913,1.5524,1.2025,1.0724,1.0731,1.0758,0.7764,0.3326,0.0,0.0,0.0,0.0,0.0,0.0,4.1919,4.2947,4.4635,4.7902,4.8306,4.8636,4.9481,4.7388,4.592,4.5883,4.4415,0.0,0.0,0.0,0.0,0.0,0.0,0.0,0.0,0.0,4.181,4.181,4.1206,4.0625,4.0087,4.0087,4.0087,4.0087,0.0,0.0,0.0,0.0,0.0,0.0,0.0,0.0,0.0,0.0,0.0,0.0,0.0,0.0,0.0,0.0,0.0,0.0,0.0,3.5519,3.6058,3.8721,4.2731,4.6621,4.7967,5.0242,5.2067,5.1409,4.8237,4.4436,4.1145,3.7315,3.3435,2.9743,2.9002,2.8492,2.685,2.6533,2.671,2.7193,2.7293,2.8247,3.1009,3.1863,3.3043,0.0,0.0,3.5418,3.7098,0.0,0.0,0.0,0.0,0.0,0.0,3.2793,3.2598,3.2187,3.1758,3.1738,3.2168,3.0111,2.8289,2.6546,2.4921,2.3131,2.1109,2.1109,2.1109,0.0,0.0,0.0,0.0,1.7345,1.5913,1.5524,1.2025,1.0731,1.0758,1.0658,0.6386,-0.0524,0.0,0.0,0.0,0.0,0.0,0.0,0.0,4.1699,4.3204,4.6985,4.7021,4.7388,4.937,4.7388,4.5883,4.5883,4.4415,0.0,0.0,0.0,0.0,0.0,0.0,0.0,0.0,4.2185,4.1595,4.1161,4.1013,4.0659,4.0087,4.0087,4.0087,4.0087,4.0087,4.0087,0.0,0.0,0.0,0.0,0.0,0.0,0.0,0.0,0.0,0.0,0.0,0.0,0.0,0.0,0.0,0.0,0.0,0.0,0.0,3.513,3.8661,4.2671,4.4466,4.6172,4.7219,4.6142,4.3898,4.1205,3.8362,3.5244,3.2153,2.9533,2.8556,2.7802,2.6714,2.6533,2.6892,2.8197,2.8097,2.8549,3.0583,3.0783,3.1488,3.3717,3.4547,3.4625,0.0,0.0,0.0,0.0,0.0,0.0,0.0,3.2363,3.2305,3.2168,3.1738,3.1084,3.0074,2.8061,2.6166,2.458,2.286,2.1696,2.1109,2.1109,0.0,0.0,0.0,0.0,0.0,1.6043,1.4884,1.5524,1.2041,1.0683,1.0064,0.5412,0.2222,-0.0646,0.0,0.0,0.0,0.0,0.0,0.0,0.0,4.1111,4.2359,4.5773,4.548,4.592,4.8379,4.6471,4.5223,4.5847,4.4415,0.0,0.0,0.0,0.0,0.0,0.0,0.0,4.2342,4.1552,4.1198,4.1371,4.1443,4.1134,4.0493,4.0798,4.0629,4.0087,4.0087,4.0087,0.0,0.0,0.0,0.0,0.0,0.0,4.0087,0.0,0.0,0.0,0.0,0.0,0.0,0.0,0.0,0.0,0.0,0.0,0.0,0.0,3.5549,3.8332,4.0816,4.2641,4.3629,4.2821,4.0935,3.865,3.62,3.3638,3.1225,2.894,2.8038,2.7419,2.6367,2.6382,2.6716,2.7544,2.757,2.7996,2.9453,0.0,0.0,3.1366,0.0,0.0,0.0,0.0,0.0,0.0,0.0,0.0,0.0,3.2012,3.1855,3.1699,3.0792,2.9905,2.8787,2.6344,2.4532,2.3574,2.1853,2.1109,2.1109,2.1109,0.0,0.0,0.0,0.0,0.0,1.5135,1.4119,1.4912,1.1931,0.9048,0.6288,0.1963,-0.1292,-0.4074,0.0,0.0,0.0,0.0,0.0,0.0,0.0,4.1075,4.1956,4.4232,4.3938,4.4342,4.6617,4.4856,4.4085,4.559,4.4342,0.0,0.0,0.0,0.0,0.0,0.0,0.0,4.1768,4.0625,4.0694,4.1968,4.2193,4.1914,4.1238,4.2016,4.1576,4.0155,4.0155,4.0121,4.0087,4.0087,4.0087,4.0087,4.0087,4.0087,0.0,0.0,0.0,0.0,0.0,0.0,0.0,0.0,0.0,0.0,0.0,0.0,0.0,0.0,0.0,0.0,0.0,3.9379,4.0816,4.0756,3.8931,3.6573,3.4476,3.2493,0.0,2.8237,2.7644,2.7222,2.5921,2.6063,2.6239,2.5887,2.6214,2.6917,0.0,2.845,0.0,0.0,3.1853,0.0,0.0,0.0,0.0,0.0,0.0,0.0,0.0,3.1738,3.121,3.0782,2.9157,2.817,2.817,2.5146,2.3574,2.3574,2.1853,2.1109,2.1235,2.1109,0.0,0.0,0.0,0.0,0.0,1.4754,1.3752,1.3936,1.1674,0.6494,0.0392,-0.0131,-0.436,-0.9837,0.0,0.0,0.0,0.0,0.0,0.0,0.0,0.0,0.0,0.0,4.324,4.3718,4.4268,4.3828,4.3644,0.0,0.0,0.0,0.0,0.0,0.0,0.0,0.0,0.0,4.1115,4.0466,4.0256,4.0576,4.1748,4.1914,4.1238,4.2557,4.2354,4.0933,4.0933,4.0629,4.0087,4.0087,4.0087,4.0087,4.0087,4.0087,0.0,0.0,0.0,0.0,3.6123,3.5064,0.0,0.0,0.0,0.0,0.0,0.0,0.0,0.0,3.2347,3.2916,3.3694,0.0,3.522,3.4711,3.4502,3.3991,0.0,3.1161,2.9979,2.8922,2.7301,2.6282,2.681,2.5963,2.5862,2.7821,2.7544,2.7307,2.8004,0.0,0.0,3.2458,0.0,0.0,0.0,0.0,0.0,0.0,0.0,0.0,0.0,3.1562,3.0696,2.9057,2.7452,2.6591,2.6591,2.4532,2.3574,2.3574,2.1853,2.1727,2.2966,2.1727,0.0,0.0,0.0,0.0,1.6441,1.4679,1.405,1.3928,1.16,0.6419,-0.0257,-0.5481,-0.8426,-1.006,0.0,0.0,0.0,0.0,0.0,0.0,0.0,0.0,0.0,0.0,4.269,4.3094,4.3461,4.3497,4.3497,0.0,0.0,0.0,0.0,0.0,0.0,0.0,0.0,4.115,4.0528,4.0254,4.0257,4.0595,4.1745,4.2083,4.1711,4.2523,4.2286,4.1204,4.0832,4.046,4.0087,4.0087,4.0087,4.0087,4.0087,0.0,0.0,0.0,0.0,0.0,3.5412,3.4393,0.0,3.3484,3.3066,3.2527,0.0,0.0,0.0,0.0,3.1721,3.2048,3.2048,3.2766,3.3395,3.3066,3.3006,3.2735,3.1603,3.0392,2.9325,2.8546,2.717,2.6113,2.644,2.5988,2.5902,2.687,2.6748,0.0,0.0,0.0,3.1099,3.2572,0.0,0.0,0.0,0.0,0.0,0.0,0.0,0.0,0.0,3.1328,3.0367,2.8426,2.6832,2.5619,2.4901,2.3325,2.2466,2.2466,2.1475,2.1601,2.2341,2.069,1.9419,0.0,0.0,0.0,1.4922,1.3252,1.2576,1.2529,1.1162,0.5454,-0.2664,-0.8028,-0.9935,-1.0012,0.0,0.0,0.0,0.0,0.0,0.0,0.0,0.0,0.0,0.0,0.0,0.0,0.0,0.0,0.0,0.0,0.0,0.0,0.0,0.0,0.0,0.0,4.1126,4.0672,4.0138,4.0087,4.0392,4.1035,4.2117,4.2591,4.2489,4.2929,4.2591,4.1508,4.0629,4.0189,4.0087,4.0087,4.0087,4.0087,4.0087,0.0,0.0,0.0,0.0,0.0,0.0,0.0,0.0,3.3185,3.2826,3.2377,3.2377,0.0,0.0,0.0,0.0,0.0,3.1601,3.2647,3.3574,3.3275,3.2856,3.2288,3.1445,3.0058,2.8812,2.8038,2.7085,2.6239,2.5912,2.6113,2.6114,0.0,0.0,0.0,2.7268,2.7651,2.8922,3.172,0.0,0.0,0.0,0.0,0.0,0.0,0.0,0.0,0.0,3.1094,3.002,2.8051,2.6712,2.513,2.3201,2.1853,2.1235,2.1475,2.1235,2.1082,2.1015,1.9218,1.8163,0.0,0.0,0.0,1.3587,1.26,1.1622,1.0444,0.8432,0.2444,-0.5283,-0.8937,-1.008,-0.9883,0.0,0.0,0.0,0.0,0.0,0.0,0.0,0.0,0.0,0.0,0.0,0.0,0.0,0.0,0.0,0.0,0.0,0.0,0.0,0.0,0.0,4.0095,4.062,4.0672,4.0138,4.0087,4.0155,4.0257,4.2929,4.3876,4.3301,4.5872,4.5635,4.3031,4.1644,4.0663,4.0087,4.0087,4.0087,4.0087,4.0087,0.0,0.0,0.0,0.0,0.0,0.0,0.0,0.0,3.1839,3.1779,3.1631,3.1631,0.0,0.0,0.0,0.0,0.0,3.2198,3.3335,3.3933,3.2258,3.2168,3.2318,3.1604,3.0205,2.8939,2.8812,2.721,2.5988,2.6866,2.6314,2.612,0.0,0.0,2.783,0.0,0.0,0.0,0.0,0.0,0.0,0.0,0.0,0.0,0.0,0.0,0.0,0.0,0.0,2.953,2.647,2.6106,2.4517,2.1475,2.1235,2.1853,2.3201,2.1727,2.0935,2.0725,1.9025,1.6664,0.0,0.0,1.4595,1.1434,1.7185,1.6073,0.9497,-0.2064,-0.5882,-0.5265,-0.8588,-0.9883,-1.0107,0.0,0.0,0.0,0.0,0.0,0.0,0.0,0.0,0.0,0.0,0.0,0.0,0.0,0.0,0.0,0.0,0.0,0.0,0.0,0.0,3.9997,3.9777,4.0212,4.0368,4.0138,4.0493,4.0865,4.1271,4.3064,4.4384,4.5263,4.5838,4.4722,4.2185,4.1068,4.0392,4.0087,4.0087,4.0087,4.0054,0.0,0.0,0.0,0.0,0.0,0.0,0.0,0.0,0.0,0.0,3.1482,3.1482,3.1482,0.0,0.0,0.0,0.0,0.0,3.1898,3.2677,3.3215,3.2287,3.27,3.2937,3.1444,3.01,2.9201,2.9201,2.7997,2.6951,2.6895,0.0,2.8027,2.861,0.0,2.7303,0.0,0.0,0.0,0.0,0.0,0.0,0.0,0.0,0.0,0.0,0.0,0.0,0.0,0.0,2.8237,2.5807,2.4787,2.3021,2.0628,1.9747,2.0309,2.1976,2.0185,1.9274,1.9098,1.6512,1.4625,1.3456,0.0,1.2496,1.0756,1.4171,0.919,-0.1019,-0.7287,-0.8872,-0.7722,-0.9335,-1.0107,-1.0438,0.0,0.0,0.0,0.0,0.0,0.0,0.0,0.0,0.0,0.0,0.0,0.0,0.0,0.0,0.0,0.0,0.0,0.0,0.0,3.9708,3.9631,3.9261,3.9486,3.9817,4.0324,4.1068,4.1914,4.2828,4.3944,4.5534,4.753,4.5703,4.3809,4.1948,4.0832,4.0257,4.0087,4.0087,3.9986,3.9783,0.0,0.0,0.0,0.0,0.0,0.0,0.0,0.0,0.0,0.0,0.0,0.0,0.0,0.0,0.0,3.1482,3.1482,3.1511,3.1719,3.2228,3.2646,3.2287,3.2952,3.3301,3.1825,3.065,2.998,3.0118,2.9314,2.8276,2.7424,2.8509,0.0,2.881,2.7855,0.0,0.0,0.0,0.0,0.0,0.0,0.0,0.0,0.0,0.0,0.0,0.0,0.0,0.0,0.0,2.7193,2.5426,2.366,2.1752,1.9728,1.8423,1.8521,2.0054,1.8213,1.7088,1.653,1.4213,1.2983,1.2849,1.098,1.0376,1.0283,0.7193,-0.0254,-0.9758,-0.8998,-0.9175,-0.9821,-0.9985,-1.0263,-1.0602,0.0,0.0,0.0,0.0,0.0,0.0,0.0,0.0,0.0,0.0,0.0,0.0,0.0,0.0,0.0,0.0,0.0,0.0,0.0,3.7423,3.7615,3.7984,3.8024,3.9039,4.1068,4.1847,4.2929,4.4418,4.6549,4.8376,4.9796,4.6955,4.5162,4.4248,4.2083,4.073,4.0087,4.0087,3.9681,3.9073,3.9005,0.0,0.0,0.0,0.0,0.0,0.0,0.0,0.0,0.0,0.0,0.0,0.0,0.0,3.1482,3.1482,3.1482,3.1601,3.2287,3.2916,3.3062,3.1646,3.1953,3.2788,3.336,3.2388,3.1558,3.2277,3.0983,2.9679,2.9601,2.9076,2.8418,2.7607,2.8375,0.0,0.0,0.0,0.0,0.0,0.0,0.0,0.0,0.0,0.0,0.0,0.0,0.0,0.0,0.0,0.0,2.5061,2.3535,2.1258,1.8105,1.7611,1.7635,1.8141,1.6506,1.4775,1.2996,1.3428,1.2242,1.0134,0.9944,0.9848,0.8971,-0.3271,-0.8961,-0.9464,-0.6389,-0.7156,-1.0025,-0.989,-1.0039,-1.0565,0.0,0.0,0.0,0.0,0.0,0.0,0.0,0.0,0.0,0.0,0.0,0.0,0.0,0.0,0.0,0.0,0.0,0.0,0.0,3.7478,3.7644,3.8311,3.8486,3.9411,4.117,4.2388,4.4181,4.665,4.8883,4.9323,4.8003,4.6447,4.4553,4.2422,4.1102,4.0358,4.0054,3.958,3.9242,3.8903,3.799,3.6456,0.0,0.0,0.0,0.0,0.0,0.0,0.0,0.0,3.0702,3.1061,3.0492,3.0582,3.0881,3.0881,3.0881,3.1031,3.1719,3.2677,3.3274,3.2256,3.2452,3.2803,3.2654,3.2269,3.2147,3.2797,3.2642,3.2047,3.1003,0.0,2.6999,2.8586,0.0,0.0,0.0,0.0,0.0,0.0,0.0,0.0,0.0,0.0,0.0,0.0,0.0,0.0,0.0,0.0,0.0,2.3293,2.0336,1.8387,1.7375,1.5241,1.4279,1.4358,1.3761,1.3256,1.2856,1.1768,1.0667,0.9787,0.9808,0.5186,-0.2716,-0.7738,-0.9751,-0.9691,-0.8436,-0.8729,-1.0039,-0.9985,-1.0767,-1.2187,0.0,0.0,0.0,0.0,0.0,0.0,0.0,0.0,0.0,0.0,0.0,0.0,0.0,0.0,0.0,0.0,0.0,0.0,3.7433,3.7276,3.7396,3.7978,3.8227,3.9208,4.117,4.2658,4.479,4.7564,4.9763,4.9593,4.7124,4.5906,4.4113,4.1847,4.0629,4.0223,4.0358,3.9411,3.887,3.8531,3.728,3.5826,0.0,0.0,0.0,0.0,0.0,0.0,0.0,0.0,3.0193,3.0492,2.9804,3.0013,3.0462,3.0283,3.0175,3.0184,3.045,3.1338,3.2108,3.154,3.2025,3.2681,3.2879,3.292,3.3157,3.4186,3.3831,3.2788,3.1163,2.812,0.0,0.0,0.0,0.0,0.0,0.0,0.0,0.0,0.0,0.0,0.0,0.0,0.0,0.0,0.0,0.0,0.0,0.0,0.0,0.0,1.7983,1.608,1.5322,1.3277,1.1869,1.1351,1.1447,1.1639,1.1922,1.0479,0.9781,0.9562,0.5432,-0.148,-0.9841,-0.9821,-0.9808,-0.9787,-0.9741,-0.993,-1.0046,-0.9992,-1.1245,-1.3003,0.0,0.0,0.0,0.0,0.0,0.0,0.0,0.0,0.0,0.0,0.0,0.0,0.0,0.0,0.0,0.0,0.0,0.0,3.6416,3.6374,3.65,3.6785,3.6772,3.8159,4.1102,4.2625,4.4519,4.6819,4.8984,4.9323,4.7834,4.5602,4.4147,4.3301,4.1068,4.0493,4.1068,3.9614,3.8565,3.7821,3.7077,3.5527,3.3598,0.0,0.0,0.0,0.0,0.0,0.0,0.0,2.9654,2.8727,2.9355,2.9983,3.0372,2.9744,2.954,2.9262,2.8569,2.8915,2.9344,2.9115,3.0251,3.2173,3.4673,3.4737,3.4899,3.6799,3.4544,3.1683,2.9897,2.8423,0.0,0.0,0.0,0.0,0.0,0.0,0.0,0.0,0.0,0.0,0.0,0.0,0.0,0.0,0.0,0.0,0.0,0.0,0.0,0.0,1.7043,1.4826,1.1782,1.1962,1.116,0.9538,0.9686,0.9829,0.9856,0.9787,0.9691,0.8934,-0.4077,-0.9834,-0.9814,-0.9814,-0.9781,-0.9849,-0.9829,-0.9917,-1.0025,-0.9876,-1.089,-1.2768,0.0,0.0,0.0,0.0,0.0,0.0,0.0,0.0,0.0,0.0,0.0,0.0,0.0,0.0,0.0,0.0,0.0,0.0,3.6416,3.6071,3.614,3.6785,3.6772,3.7449,3.887,4.0832,4.3741,4.7597,4.8748,4.7767,4.4722,4.4079,4.2794,4.1068,4.0933,4.0426,3.958,3.8633,3.7787,3.7043,3.6265,3.5015,3.3598,0.0,0.0,0.0,0.0,0.0,0.0,0.0,0.0,0.0,2.8397,2.8936,2.9714,2.9086,2.9491,2.9921,2.8739,2.9838,3.1094,2.9887,3.1097,3.3061,3.4769,3.459,3.4654,3.6779,3.4838,3.2533,3.1399,2.9546,0.0,0.0,0.0,0.0,0.0,0.0,0.0,0.0,0.0,0.0,0.0,0.0,0.0,0.0,0.0,0.0,0.0,0.0,0.0,0.0,1.4197,1.242,1.1782,1.0709,1.0033,0.9538,0.9655,0.9772,0.9761,0.7373,0.5056,0.2469,-0.5698,-0.9148,-0.9156,-0.9499,-0.9593,-0.9693,-0.9781,-0.9849,-1.0005,-1.1035,-1.2778,-1.4804,0.0,0.0,0.0,0.0,0.0,0.0,0.0,0.0,0.0,0.0,3.8496,3.8465,0.0,0.0,0.0,0.0,0.0,0.0,3.6114,3.5766,3.5825,3.6299,3.6332,3.6941,3.8294,4.0798,4.3132,4.5263,4.6583,4.5771,4.2997,4.3606,4.2997,4.1441,4.2219,4.1711,4.0223,3.9208,3.8159,3.7144,3.5753,3.4708,3.3982,0.0,0.0,0.0,0.0,0.0,0.0,0.0,0.0,0.0,2.7829,2.8308,2.9116,2.8727,2.8739,2.8768,2.8083,2.8975,2.9933,2.9322,3.1029,3.3223,3.4702,3.5415,3.6307,3.7864,3.5357,3.2858,3.2483,2.9955,0.0,0.0,0.0,0.0,0.0,0.0,0.0,0.0,0.0,0.0,0.0,0.0,0.0,0.0,0.0,0.0,0.0,0.0,0.0,0.0,1.2229,1.0962,1.0571,0.971,0.9306,0.9266,0.8329,0.8531,0.9676,0.5083,0.1825,-0.0242,-0.5093,-0.7862,-0.8878,-0.938,-0.9618,-0.9625,-0.9768,-1.0179,-1.0899,-1.1856,-1.3797,-1.6243,0.0,0.0,3.8689,3.8689,0.0,0.0,0.0,0.0,0.0,0.0,3.8267,3.8132,0.0,0.0,0.0,3.7135,3.6661,3.6156,3.5622,3.5622,3.5622,3.5622,3.569,3.6705,3.8836,4.1542,4.2252,4.0899,4.3301,4.3639,4.2117,4.3741,4.4079,4.3436,4.4079,4.3538,4.2083,4.046,3.8971,3.7537,3.5442,3.4593,3.4441,3.3146,0.0,0.0,0.0,0.0,0.0,0.0,0.0,0.0,2.761,2.8038,2.8577,2.8517,2.761,2.6662,2.7041,2.712,2.7249,2.8037,3.0625,3.3286,3.4806,3.7031,3.8919,3.932,0.0,3.3138,3.3266,3.0134,0.0,0.0,0.0,0.0,0.0,0.0,0.0,0.0,0.0,0.0,0.0,0.0,0.0,0.0,0.0,0.0,0.0,0.0,0.0,0.0,1.0774,1.014,0.8629,0.9001,0.8977,0.0,0.5996,0.6628,0.9638,0.3564,0.0239,-0.0942,-0.3398,-0.621,-0.8955,-0.9406,-0.9564,-0.9585,-0.9861,-1.0876,-1.2192,-1.2569,-1.448,-1.7185,0.0,0.0,3.8689,3.8689,0.0,0.0,0.0,0.0,0.0,0.0,0.0,0.0,0.0,3.7542,0.0,3.662,3.6114,3.5722,3.5622,3.5622,3.5622,3.5622,3.6197,3.7043,3.8125,3.8768,3.8937,3.8633,4.2016,4.2591,4.0595,4.2692,4.3572,4.3403,4.2963,4.2286,4.1271,3.8599,3.6941,3.6004,3.5011,3.4267,3.3738,3.2904,3.1335,0.0,0.0,0.0,0.0,0.0,0.0,0.0,2.761,2.8038,2.8487,2.7949,2.7876,2.7826,2.7183,2.7624,2.836,2.9201,3.223,3.5429,3.7494,3.8089,3.799,3.7236,3.6624,3.5598,3.3583,0.0,0.0,0.0,0.0,0.0,0.0,0.0,0.0,0.0,0.0,0.0,0.0,0.0,0.0,0.0,0.0,0.0,0.0,0.0,0.0,1.075,0.9707,0.8962,0.8716,0.8831,0.7804,0.0,0.5023,0.6624,0.9709,0.8335,0.2358,-0.6847,-0.5215,-0.6217,-0.8889,-0.9131,-0.9252,-0.9394,-1.0934,-1.1761,-1.236,-1.5001,-1.6499,-1.753,0.0,0.0,0.0,0.0,0.0,0.0,0.0,0.0,0.0,0.0,0.0,0.0,0.0,3.7135,0.0,0.0,3.6122,3.5854,3.5622,3.5622,3.5622,3.5622,3.6366,3.6772,3.6806,3.7516,3.7719,3.7347,3.9648,4.0358,3.9614,4.1474,4.2557,4.2861,4.2828,4.2016,4.0561,3.8667,3.7178,3.6038,3.4676,3.3921,3.3483,3.2145,3.0552,2.9116,2.9116,0.0,0.0,0.0,0.0,0.0,0.0,0.0,2.8098,2.8068,2.7806,2.7481,2.7492,2.7749,2.8525,3.0491,3.3471,3.6225,3.7427,3.7872,3.7792,3.6919,3.6463,3.5644,0.0,0.0,0.0,0.0,0.0,0.0,0.0,0.0,0.0,0.0,0.0,0.0,0.0,0.0,0.0,0.0,0.0,0.0,0.0,1.1216,1.017,0.9391,0.8848,0.8526,0.8322,0.868,0.669,0.2295,-0.0438,-0.0772,0.0896,0.0797,-0.1957,-0.6749,-0.6621,-0.7483,-0.897,-0.913,-0.915,-0.9398,-1.1117,-1.232,-1.346,-1.5915,-1.7418,-1.8513,0.0,0.0,0.0,0.0,0.0,0.0,0.0,0.0,0.0,0.0,0.0,0.0,0.0,3.6661,3.6374,0.0,0.0,0.0,3.5622,3.5622,3.569,3.5825,3.6434,3.6535,3.6028,3.7144,3.7415,3.6772,3.728,3.7956,3.8836,4.046,4.1677,4.2489,4.2726,4.188,4.0223,3.8839,3.7542,3.6269,3.4262,3.3495,3.3296,3.1409,2.9953,2.8936,2.8936,2.8786,2.8517,2.7949,0.0,0.0,0.0,0.0,2.773,2.8248,2.7542,2.6737,2.7722,2.8002,2.8734,3.1771,3.438,3.6214,3.6512,3.7219,3.7595,3.7121,3.6157,0.0,0.0,0.0,0.0,0.0,0.0,0.0,0.0,0.0,0.0,0.0,0.0,0.0,0.0,0.0,0.0,0.0,0.0,0.0,1.0423,1.002,0.9268,0.8079,0.8316,0.8099,0.7291,0.8354,0.6384,0.1494,-0.5431,-0.8742,-0.8823,-0.8823,-0.7539,-0.5354,-0.7885,-0.8863,-0.8863,-0.9076,-0.9335,-0.9687,-1.1305,-1.3069,-1.4844,-1.6321,-1.7893,-1.9332,0.0,0.0,0.0,0.0,0.0,0.0,0.0,0.0,0.0,0.0,3.7135,3.6943,0.0,3.6457,3.6207,3.5756,3.5711,3.5667,3.5622,0.0,0.0,3.6603,3.6738,3.7043,3.7584,3.7178,3.6874,3.6772,3.6197,3.6671,3.8091,4.0223,4.1948,4.32,4.1339,4.073,4.078,3.6837,3.5066,3.4772,3.3351,3.2734,3.2625,3.1732,3.0911,3.0253,3.0253,2.9535,2.8577,2.8487,2.8128,0.0,0.0,0.0,2.764,2.773,2.7159,2.673,2.7826,2.8893,3.032,3.3093,3.436,3.5485,0.0,0.0,3.6516,0.0,0.0,0.0,0.0,0.0,0.0,0.0,0.0,0.0,0.0,0.0,0.0,0.0,0.0,0.0,0.0,0.0,0.0,0.0,0.0,0.0,1.0036,0.8977,0.8185,0.7972,0.8039,0.6975,0.4545,0.7418,0.8453,0.7611,-0.3095,-0.8175,-0.8368,-0.8368,-0.8406,-0.832,-0.8752,-0.885,-0.8947,-0.896,-0.9728,-1.105,-1.2783,-1.4325,-1.5963,-1.7917,-1.8717,-1.9025,0.0,0.0,0.0,0.0,0.0,0.0,0.0,0.0,0.0,0.0,0.0,3.6661,3.6416,3.6156,3.5854,3.5622,3.5622,3.5622,3.5622,3.5622,3.5791,3.6129,3.6129,3.6299,3.6603,3.6299,3.6129,3.6129,3.5791,3.6603,3.8531,3.9512,4.0527,4.1474,3.9648,3.9039,3.9125,3.5941,3.4592,3.4496,3.313,3.2354,3.1959,3.1222,3.0552,2.9983,2.9983,2.9624,2.9086,2.8727,2.8397,2.8068,2.7709,0.0,0.0,0.0,2.7357,2.7302,2.8215,2.8768,2.9712,3.2249,3.3331,3.4473,3.6794,3.6579,3.6061,3.6653,0.0,0.0,0.0,0.0,0.0,0.0,0.0,0.0,0.0,0.0,0.0,0.0,0.0,0.0,0.0,0.0,0.0,0.0,0.0,0.9715,0.8939,0.8364,0.7979,0.7999,0.8019,0.5992,0.1834,0.0203,-0.0614,-0.0628,-0.5765,-0.8236,-0.8302,-0.8394,-0.8461,-0.8703,-0.8791,-0.9197,-0.9754,-1.0054,-1.0941,-1.2247,-1.3964,-1.5127,-1.6053,-1.7767,-1.8531,-1.8718,0.0,0.0,0.0,0.0,0.0,0.0,0.0,0.0,0.0,0.0,0.0,3.6374,3.6374,0.0,0.0,0.0,3.5622,3.5622,3.5622,3.5622,3.5622,3.5622,3.5622,3.5622,3.5622,3.5622,3.5622,3.5622,3.5622,3.6772,3.9005,3.9005,3.958,4.0561,3.9106,3.8261,3.7773,3.5563,3.4611,3.448,3.2739,3.1774,3.1259,3.0714,3.0133,2.9594,2.9744,2.9714,2.9505,2.9026,2.8727,2.8517,2.8008,2.776,0.0,0.0,0.0,2.7646,2.7968,2.8056,2.849,3.0163,3.1766,3.3295,0.0,0.0,3.5412,0.0,0.0,0.0,0.0,0.0,0.0,0.0,0.0,0.0,0.0,0.0,0.0,0.0,0.0,0.0,0.0,0.0,0.0,0.0,0.0,0.9038,0.8072,0.7979,0.7999,0.8026,0.5358,0.2016,-0.2019,-0.5367,-0.7357,-0.7968,-0.8146,-0.8186,-0.8183,-0.8377,-0.8577,-0.8895,-0.9097,-0.9633,-1.0464,-1.122,-1.2228,-1.3477,-1.4893,-1.5755,-1.6488,-1.7564,-1.8183,-1.8424,0.0,0.0,0.0,0.0,0.0,0.0,0.0,0.0,0.0,0.0,0.0,3.6374,3.6374,3.5941,3.5622,3.5622,3.5622,3.5622,3.5622,3.5622,3.5622,3.5622,3.5622,0.0,3.5622,3.5622,3.5622,3.5622,3.5622,3.6772,3.9005,3.9005,4.0121,4.2117,4.0663,3.9208,3.7759,3.5622,3.4695,3.4494,3.1671,3.0578,3.0548,3.0492,3.0133,2.9654,3.0253,3.0073,2.9564,2.9535,2.9116,2.8577,2.8547,2.8098,2.761,0.0,0.0,0.0,2.6581,2.6672,2.7012,2.6815,2.9422,3.1943,0.0,0.0,0.0,0.0,0.0,0.0,0.0,0.0,0.0,0.0,0.0,0.0,0.0,0.0,0.0,0.0,0.0,0.0,0.0,0.0,0.0,0.0,0.0,0.8072,0.7972,0.8006,0.8026,0.8026,-0.1816,-0.7321,-0.761,-0.534,-0.5436,-0.7985,-0.7985,-0.7979,-0.8065,-0.8065,-0.8755,-0.9954,-1.0203,-1.0352,-1.056,-1.2116,-1.3572,-1.4955,-1.5317,-1.6287,-1.753,-1.7835,-1.8063,-1.8156,0.0,0.0,0.0,0.0,0.0,0.0,0.0,0.0,0.0,0.0,0.0,0.0,0.0,3.6122,3.5622,3.5622,3.5622,3.5622,3.5622,3.5622,3.5622,3.5622,3.5622,3.5622,3.5622,3.5622,3.5622,3.5622,3.5622,3.6535,3.8294,3.8768,3.9411,4.0155,3.9614,3.8874,3.7785,3.5124,3.3773,3.3177,3.1298,3.0492,3.0462,3.0073,3.0013,3.0163,2.9983,3.0013,3.0103,2.9714,2.9146,2.8607,2.8607,2.8128,2.761,2.761,2.761,2.7462,2.686,2.662,2.6549,2.6828,2.768,2.8713,2.9914,3.0788,0.0,0.0,0.0,0.0,0.0,0.0,0.0,0.0,0.0,0.0,0.0,0.0,0.0,0.0,0.0,0.0,0.0,0.0,0.0,0.0,0.0,0.0,0.5532,0.7083,0.4851,-0.2019,-0.5977,-0.8026,-0.8006,-0.7059,-0.7054,-0.7972,-0.7959,-0.8045,-0.8038,-0.8038,-0.8237,-0.8832,-1.0626,-1.1875,-1.2699,-1.3587,-1.4789,-1.6164,-1.6445,-1.699,-1.7595,-1.7702,-1.7756,-1.7836,0.0,0.0,0.0,0.0,0.0,0.0,0.0,0.0,3.8627,3.8465,0.0,0.0,0.0,0.0,3.5622,3.5622,3.5622,3.5622,3.5622,3.5622,3.5622,3.5622,3.5622,3.5622,3.5622,3.5622,3.5622,3.5622,3.5622,3.64,3.7922,3.8396,3.8903,3.9343,3.8836,3.8354,3.7818,3.5383,3.3964,3.3146,3.1298,3.0492,3.0492,3.0313,3.0223,3.0193,3.0223,3.0342,3.0432,3.0043,2.9475,2.8936,2.8936,2.8308,2.756,2.7306,2.7255,2.7039,2.6293,2.567,2.5364,2.5695,2.5806,2.6259,2.7624,0.0,0.0,0.0,0.0,0.0,0.0,0.0,0.0,0.0,0.0,0.0,0.0,0.0,0.0,0.0,0.0,0.0,0.0,0.0,0.0,0.0,0.0,0.0,0.5441,0.3629,-0.0605,-0.7737,-0.8019,-0.7999,-0.7985,-0.7972,-0.7959,-0.7959,-0.8045,-0.8038,-0.8038,-0.8038,-0.8237,-0.8726,-1.0485,-1.2037,-1.3329,-1.4552,-1.5644,-1.6593,-1.6994,-1.7275,-1.7448,-1.7542,-1.7582,-1.7649,0.0,0.0,0.0,0.0,0.0,0.0,0.0,0.0,3.8533,3.8034,0.0,0.0,0.0,0.0,0.0,3.5656,3.5656,3.5656,3.5622,3.5622,3.5622,3.5622,3.5622,3.5622,3.5622,3.5622,3.5622,3.5622,3.5622,3.64,3.7855,3.7855,3.8633,3.9952,3.8531,3.7889,3.7759,3.6339,3.5284,3.442,3.1616,3.0522,3.0612,3.124,3.0702,2.9774,3.1031,3.1061,3.0522,3.0466,3.0103,2.9594,2.9564,2.8637,2.7437,2.6736,2.6443,2.6176,0.0,0.0,0.0,2.3128,2.3787,0.0,2.4646,0.0,0.0,0.0,0.0,0.0,0.0,0.0,0.0,0.0,0.0,0.0,0.0,0.0,0.0,0.0,0.0,0.0,0.0,0.0,0.0,0.0,0.0,0.7992,0.8012,-0.2217,-0.8039,-0.8019,-0.7985,-0.7965,-0.7959,-0.8038,-0.8031,-0.8031,-0.8038,-0.8038,-0.8038,-0.8038,-0.8726,-0.9903,-1.0002,-1.0681,-1.2155,-1.5045,-1.6259,-1.6326,-1.6901,-1.7141,-1.7181,-1.7462,-1.7569,-1.7622,0.0,0.0,0.0,0.0,0.0,3.8909,3.946,3.9056,3.8935,0.0,0.0,0.0,3.8018,3.7581,3.7043,3.6502,3.6468,3.6231,3.5656,3.5622,3.5622,3.5622,3.5622,3.5622,3.5622,3.5622,3.5622,3.5622,3.5622,3.5825,3.6265,3.684,3.7313,3.7719,3.7855,3.7584,3.6996,3.5017,3.407,3.3661,3.1394,3.0791,3.115,3.0402,3.0193,3.0253,3.0163,3.0612,3.1066,3.0016,2.9522,2.9202,2.8242,2.7719,2.737,2.6693,2.6122,2.5522,2.4567,0.0,0.0,0.0,0.0,0.0,2.248,2.348,2.4509,0.0,0.0,0.0,0.0,0.0,0.0,0.0,0.0,0.0,0.0,0.0,0.0,0.0,0.0,0.0,0.0,0.0,0.0,0.0,0.7883,0.8,0.8007,-0.2155,-0.7957,-0.7825,-0.7811,-0.7751,-0.7733,-0.7828,-0.7875,-0.7875,-0.7984,-0.8038,-0.8038,-0.8038,-0.8237,-0.8627,-0.9608,-1.0681,-1.2047,-1.3858,-1.5286,-1.6286,-1.6446,-1.678,-1.7154,-1.7235,-1.7395,-1.7622,0.0,0.0,0.0,0.0,3.9203,3.946,4.0267,4.001,3.9747,0.0,0.0,0.0,3.8356,3.8044,3.7584,3.684,3.6772,3.6468,3.5656,3.5622,3.5622,3.5622,3.5622,3.5622,3.5622,3.5622,3.5622,3.5622,3.5622,3.5622,3.5622,3.6096,3.6299,3.6332,3.6772,3.6705,3.6173,3.4365,3.3562,3.345,3.2241,3.1826,3.1928,3.1689,3.1689,3.1749,3.1659,3.1693,3.1601,3.0507,2.9511,2.8559,2.723,2.6919,2.675,2.5855,2.53,2.4794,2.3989,2.3399,2.2763,2.1882,0.0,0.0,2.0885,2.1114,2.1549,0.0,0.0,0.0,0.0,0.0,0.0,0.0,0.0,0.0,0.0,0.0,0.0,0.0,0.0,0.0,0.0,0.0,0.0,0.7841,0.7963,0.6127,0.1903,-0.4327,-0.7677,-0.7555,-0.7644,-0.7597,-0.7604,-0.7685,-0.7753,-0.7814,-0.7841,-0.7889,-0.7943,-0.7943,-0.7943,-0.795,-0.9379,-1.0681,-1.2047,-1.3392,-1.475,-1.6099,-1.6219,-1.6553,-1.6981,-1.7101,-1.7328,-1.7609,0.0,0.0,3.8946,3.9753,3.99,4.0194,4.1111,4.1082,4.0706,0.0,3.9635,3.9215,3.8363,3.8173,3.7855,3.7077,3.7009,3.6671,3.5791,3.5825,3.5791,3.5622,3.569,3.5723,3.5622,3.5622,3.5622,3.5622,3.5622,3.5622,3.5622,3.5622,3.5622,3.5622,3.5622,3.5622,3.5532,3.435,3.3751,3.361,3.345,3.3084,3.2736,3.3933,3.3993,3.3574,3.408,3.3245,3.1875,3.1088,2.956,2.7735,2.653,2.6089,2.5778,2.4638,2.4105,2.3754,2.3125,2.2486,2.1928,2.1725,2.057,0.0,1.9742,1.9089,1.8708,0.0,0.0,0.0,0.0,0.0,0.0,0.0,0.0,0.0,0.0,0.0,0.0,0.0,0.0,0.0,0.0,0.7423,0.7443,0.7872,0.6926,0.2359,-0.6661,-0.7315,-0.7396,-0.7396,-0.7483,-0.7563,-0.755,-0.7563,-0.7638,-0.776,-0.7651,-0.7665,-0.7787,-0.7787,-0.789,-0.8104,-0.9413,-1.0751,-1.2242,-1.3392,-1.4651,-1.5858,-1.6126,-1.6406,-1.6687,-1.6994,-1.7288,-1.7542,3.8689,3.8689,3.8946,3.9753,3.99,4.0377,4.1846,4.1103,4.0597,4.1292,4.055,4.0069,4.0319,3.9958,3.9343,3.8633,3.8565,3.799,3.6637,3.711,3.6907,3.5656,3.6231,3.6265,3.5622,3.5622,3.5622,3.5622,3.5622,3.5622,3.5622,3.5622,3.5622,3.5622,3.5622,3.5622,3.5577,3.5316,3.4592,3.3559,3.292,3.2946,3.3335,3.3604,3.3604,3.3453,3.2825,3.2037,3.106,2.9039,2.813,2.7561,2.6365,2.5572,2.4993,2.4452,2.287,2.1455,2.2002,2.1167,2.022,2.0234,1.9591,0.0,1.9201,1.8572,1.8023,0.0,0.0,0.0,0.0,0.0,0.0,0.0,0.0,0.0,0.0,0.0,0.0,0.0,0.0,0.0,0.0,0.5422,0.5175,0.7125,0.0175,-0.4999,-0.7008,-0.7295,-0.7434,-0.7421,-0.7414,-0.736,-0.7231,-0.7353,-0.7428,-0.7455,-0.7556,-0.7611,-0.7638,-0.7638,-0.827,-0.9427,-0.9757,-1.1202,-1.3488,-1.3776,-1.4651,-1.5832,-1.5885,-1.6099,-1.6393,-1.6687,-1.6981,-1.7301,3.8689,3.8689,3.9093,4.0304,4.0487,4.1038,4.2653,4.23,4.1941,4.2235,4.1241,4.0625,4.0874,4.0417,3.9783,3.9039,3.9005,3.8531,3.7415,3.7686,3.7381,3.6265,3.6569,3.64,3.5656,3.5622,3.5622,3.5622,3.5622,3.5622,3.5622,3.5622,3.5419,3.5081,3.5453,3.5206,3.4551,3.4603,3.4198,3.359,3.3923,3.3813,3.3574,3.4233,3.4502,3.4316,3.3071,3.1452,2.9701,2.8061,2.7327,0.0,2.5476,2.4781,2.4296,2.3091,2.1893,2.0969,2.1169,2.0728,2.002,1.9661,1.9165,0.0,0.0,1.6795,1.6208,0.0,0.0,0.0,0.0,0.0,0.0,0.0,0.0,0.0,0.0,0.0,0.0,0.0,0.0,0.0,0.0,0.4955,0.2686,0.0577,-0.3034,-0.5615,-0.6886,-0.7041,-0.7197,-0.7251,-0.7258,-0.7217,-0.7143,-0.7217,-0.7292,-0.7373,-0.7373,-0.7414,-0.7489,-0.7563,-0.8378,-0.9673,-1.0532,-1.2032,-1.3968,-1.4555,-1.5235,-1.5832,-1.5832,-1.6099,-1.6513,-1.6647,-1.6981,-1.7435,3.8689,3.8689,3.9203,4.0818,4.1111,4.1662,4.324,4.3391,4.3142,4.2616,4.1595,4.092,4.092,4.028,3.9817,3.9648,3.9106,3.8734,3.8565,3.8261,3.7719,3.6806,3.7043,3.6705,3.5656,3.5757,3.5791,3.5622,3.5622,3.5622,3.5622,3.5622,3.5284,3.4742,3.5351,3.4956,3.3871,3.3971,3.3794,3.3593,3.4872,3.4616,3.3634,3.4861,3.5091,3.4658,3.2947,3.0648,2.8239,2.7188,2.6677,2.6202,2.4467,2.3931,0.0,2.1846,2.1107,2.0839,2.0643,2.049,0.0,0.0,0.0,1.7861,0.0,0.0,0.0,0.0,0.0,0.0,0.0,0.0,0.0,0.0,0.0,0.0,0.0,0.0,0.0,0.0,0.0,0.0,0.0,0.4491,0.07,-0.4663,-0.4258,-0.4596,-0.6597,-0.6793,-0.6953,-0.7095,-0.7102,-0.7109,-0.7143,-0.7143,-0.7204,-0.7326,-0.7204,-0.7204,-0.7333,-0.7759,-0.8676,-1.0001,-1.1602,-1.2973,-1.4364,-1.5343,-1.5832,-1.5832,-1.5832,-1.6152,-1.6633,-1.6687,-1.7074,-1.7635,3.8579,3.8689,3.9203,4.0818,4.1111,4.1662,4.324,4.3105,4.2577,4.1979,4.1296,4.092,4.092,3.9836,3.9884,4.1745,3.9546,3.8836,4.0696,3.9614,3.8227,3.684,3.8024,3.7753,3.5656,3.6299,3.6299,3.5622,3.5622,3.5622,3.5622,3.5622,3.5588,3.5487,3.5588,3.5479,3.535,3.5399,3.4663,3.3568,3.4333,3.4206,0.0,3.4322,3.376,3.2285,2.9996,2.8438,2.7264,0.0,2.577,2.6064,0.0,2.2928,2.2908,2.2067,2.073,1.9685,0.0,0.0,0.0,0.0,1.8005,0.0,0.0,0.0,1.4296,1.3492,0.0,0.0,0.0,0.0,0.0,0.0,0.0,0.0,0.0,0.0,0.0,0.0,0.0,0.0,0.0,0.0,0.0074,-0.0686,-0.3977,-0.6086,-0.6316,-0.6585,-0.6797,-0.6946,-0.6953,-0.7014,-0.7136,-0.7143,-0.7149,-0.717,-0.7149,-0.7149,-0.717,-0.8485,-0.9913,-1.1375,-1.2856,-1.4251,-1.5629,-1.5737,-1.5832,-1.5832,-1.5832,-1.6032,-1.6353,-1.6607,-1.7074,-1.7662,3.8615,3.8689,3.9203,4.0818,4.1111,4.1662,4.324,4.3069,4.2616,4.2342,4.1473,4.1093,4.1579,4.0417,4.0155,4.1542,3.9749,3.9106,0.0,3.958,3.87,3.8091,3.8667,3.8362,3.6975,3.728,3.7043,3.6299,3.6299,3.6062,3.5622,3.5622,3.5385,3.4979,3.5419,3.4891,3.3856,3.4665,3.4446,3.3484,3.3393,3.3427,0.0,3.3814,3.2679,3.0704,2.9201,2.7919,2.6627,0.0,2.53,0.0,0.0,0.0,0.0,2.1053,2.0219,1.9664,0.0,0.0,0.0,0.0,0.0,0.0,1.5531,0.0,1.3325,0.0,0.0,0.0,0.0,0.0,0.0,0.0,0.7242,0.0,0.0,0.0,0.0,0.0,0.0,0.0,0.0,0.0,0.0,0.0,0.0,-0.3744,-0.617,-0.6397,-0.6605,-0.6919,-0.6926,-0.7,-0.7136,-0.7143,-0.7143,-0.7143,-0.7231,-0.7631,-0.843,-0.9259,-1.0734,-1.2789,-1.352,-1.4551,-1.5832,-1.5832,-1.5925,-1.6086,-1.6086,-1.6273,-1.6553,-1.686,-1.7341,-1.7943,3.8652,3.8689,3.9203,4.0818,4.0928,4.1332,4.291,4.2923,4.2655,4.2462,4.1552,4.1207,4.2049,4.1307,4.1238,4.2625,4.1001,4.0223,0.0,3.9952,3.9106,3.8734,3.9073,3.887,3.7922,3.8091,3.7821,3.7077,3.6874,3.6603,3.6231,3.5825,3.5453,3.5148,3.569,3.4864,3.3163,3.4377,3.4254,3.3185,3.2706,3.2706,3.2885,3.2429,3.1197,2.9492,2.849,2.7224,2.5955,2.4921,2.4564,0.0,2.2264,0.0,2.1748,0.0,0.0,1.9944,1.9408,0.0,0.0,0.0,0.0,0.0,0.0,0.0,0.0,0.0,0.0,0.0,0.0,0.0,0.7437,0.6482,0.0,0.6191,0.0,0.0,0.0,0.0,0.0,0.0,0.0,0.0,0.0,0.0,0.0,0.0,-0.4405,-0.5743,-0.6532,-0.678,-0.6912,-0.7,-0.7136,-0.7183,-0.7204,-0.7204,-0.7717,-0.8421,-0.9423,-1.0407,-1.19,-1.3719,-1.4254,-1.4949,-1.5832,-1.5832,-1.6005,-1.6286,-1.6446,-1.6687,-1.6967,-1.7181,-1.7702,-1.8357,3.8542,3.8689,3.9203,4.0818,4.0451,4.0487,4.2103,4.2523,4.2498,4.1895,4.1296,4.1271,4.2189,4.2219,4.3403,4.6346,4.391,4.2523,4.3267,0.0,3.9445,3.8024,3.9276,3.9377,3.7922,3.8599,3.8599,3.7855,3.7144,3.7144,3.7787,3.6299,3.5994,3.6705,3.6738,3.5925,3.4569,3.5358,3.4466,3.2527,3.2527,3.2138,3.1395,0.0,2.8964,2.8528,2.7054,0.0,0.0,2.3891,2.3526,0.0,0.0,0.0,0.0,0.0,0.0,0.0,0.0,0.0,0.0,1.6674,0.0,0.0,0.0,0.0,1.0775,0.0,0.0,0.0,0.0,0.7007,0.6736,0.5607,0.5555,0.0,0.0,0.0,0.0,0.0,0.0,0.0,0.0,0.0,0.0,0.0,0.0,0.0,-0.0156,-0.4245,-0.6573,-0.6632,-0.6773,-0.7,-0.7136,-0.7292,-0.7366,-0.7366,-0.879,-0.9418,-0.9612,-1.2346,-1.3602,-1.3812,-1.5132,-1.5737,-1.5832,-1.5832,-1.6005,-1.6326,-1.6901,-1.7301,-1.7555,-1.7569,-1.813,-1.8945,3.935,3.9496,3.9827,4.0928,4.0891,4.1123,4.2378,4.1966,4.1981,0.0,4.2943,0.0,0.0,4.5568,4.5872,0.0,0.0,4.4451,4.4215,4.2523,0.0,4.0121,4.0087,3.9851,0.0,3.958,3.9343,3.8633,3.8362,3.8125,3.7889,3.6874,3.6535,3.6772,3.6231,3.5499,3.4643,0.0,0.0,0.0,0.0,3.1506,3.1061,0.0,0.0,2.8698,2.7105,2.5886,0.0,2.3527,2.2672,2.1828,2.0232,1.993,2.0132,1.9856,1.9449,0.0,0.0,0.0,1.7184,1.618,0.0,0.0,0.0,0.0,0.0,0.0,0.0,0.0,0.0,0.6193,0.6086,0.561,0.5555,0.5535,0.0,0.0,0.0,0.0,0.0,0.0,0.0,0.0,0.0,0.0,0.0,0.0,0.0,-0.144,-0.3602,-0.6632,-0.6773,-0.6914,-0.7136,-0.8095,-0.8631,-0.8721,-1.0213,-1.1402,-1.2346,-1.3354,-1.4325,-1.5119,-1.58,-1.6005,-1.5858,-1.6246,-1.6473,-1.662,-1.7208,-1.7742,-1.8183,-1.8183,-1.8624,-1.9319,3.979,3.99,4.023,4.1332,4.1638,4.1795,4.219,0.0,0.0,0.0,4.4463,0.0,4.8037,0.0,4.8274,0.0,4.8206,4.6786,4.4722,4.4147,0.0,4.0899,4.0865,4.073,0.0,0.0,3.9851,3.9377,3.9106,3.8722,3.8254,3.698,3.6415,3.6372,3.5642,3.4758,3.3935,3.4176,3.3685,0.0,0.0,3.0568,0.0,0.0,2.7934,2.866,0.0,2.53,2.4255,2.2822,2.1731,2.0696,1.9634,1.9058,1.8839,1.8839,1.8247,1.7464,1.6918,1.6403,0.0,1.4922,1.3903,0.0,1.1909,0.0,0.0,0.0,0.0,0.0,0.0,0.5928,0.5901,0.5698,0.5664,0.5596,0.0,0.5425,0.0,0.0,0.0,0.0,0.0,0.0,0.0,0.0,0.0,0.0,0.0,0.0,-0.259,-0.56,-0.6503,-0.6967,-0.7143,-0.8599,-0.9349,-0.9349,-1.1515,-1.2964,-1.3838,-1.4291,-1.5096,-1.5992,-1.6072,-1.6126,-1.6166,-1.6433,-1.6673,-1.6927,-1.7515,-1.805,-1.8517,-1.8731,-1.9239,-1.9933,4.001,4.0047,4.0561,4.2069,4.2523,0.0,0.0,0.0,4.4302,0.0,4.593,4.753,4.9052,4.983,5.0541,5.1251,5.1319,4.9492,4.5196,4.6177,0.0,0.0,4.1745,4.2083,4.1271,0.0,0.0,4.0087,3.9377,3.8941,3.8809,3.6682,3.5701,3.5678,3.5027,3.3985,3.2718,3.3395,3.2767,3.1278,2.9628,2.9532,2.9993,2.7497,2.7361,2.8245,2.5844,2.4302,2.3267,2.1816,2.0642,1.9785,1.9355,1.8616,1.7879,1.7879,1.7116,1.6043,1.505,1.4531,1.4081,1.2947,0.0,0.0,0.0,0.0,0.7812,0.0,0.0,0.0,0.0,0.0,0.6159,0.5861,0.5806,0.5705,0.542,0.5452,0.0,0.0,0.0,0.0,0.0,0.0,0.0,0.0,0.0,0.0,0.0,0.0,-0.3549,-0.3725,-0.5923,-0.7156,-0.7149,-0.8802,-0.9621,-0.963,-1.2585,-1.3968,-1.4076,-1.5261,-1.5992,-1.6233,-1.6005,-1.6192,-1.666,-1.6433,-1.6673,-1.7235,-1.7809,-1.8263,-1.8637,-1.9199,-1.9947,-2.0722,4.1552,4.2176,4.2587,0.0,4.2279,4.1824,0.0,0.0,0.0,0.0,4.7954,5.0033,5.2131,5.2503,5.2706,5.2909,5.2909,0.0,0.0,0.0,0.0,4.5196,4.4925,4.3944,4.2049,4.1813,4.117,4.0087,3.9306,3.8692,3.8203,3.7026,3.6194,3.5678,3.4974,3.442,3.4048,3.3248,3.2,3.051,2.9442,2.947,0.0,0.0,2.6739,2.6918,2.5095,2.3886,2.2782,2.1032,1.9798,1.8887,1.8477,1.7675,1.6953,1.6953,1.5926,1.4682,1.4141,1.359,1.2906,1.1615,1.1067,1.0455,0.0,0.0,0.0,0.0,0.0,0.0,0.0,0.0,0.0,0.6003,0.5874,0.5772,0.5698,0.5691,0.0,0.5745,0.0,0.0,0.0,0.0,0.0,0.0,0.0,0.0,0.0,0.0,0.0,-0.6103,-0.7039,-0.7444,-0.7339,-0.9833,-1.114,-1.115,-1.4016,-1.5343,-1.5343,-1.5963,-1.6086,-1.5979,-1.6553,-1.6647,-1.6433,-1.7007,-1.7341,-1.7528,-1.813,-1.8945,-1.98,-1.996,-2.0294,-2.0722,4.2213,4.2947,0.0,4.2462,0.0,0.0,4.2458,4.2979,0.0,4.6481,4.8714,0.0,5.186,5.2909,5.3518,5.3518,5.3518,0.0,5.0845,0.0,0.0,4.6887,4.6075,4.479,4.2828,4.1813,0.0,3.961,3.8772,3.809,3.7383,3.6324,3.542,3.467,3.3675,3.3239,3.3153,3.2027,3.1072,3.0208,2.8939,2.8644,0.0,2.6873,2.5877,2.5364,2.3665,2.2548,2.1729,2.0024,1.9034,1.8555,1.8144,1.7079,1.6,1.6,1.4689,1.3155,1.3112,1.2466,1.1589,1.0944,1.011,0.9246,0.8138,0.762,0.7221,0.0,0.0,0.0,0.0,0.0,0.0,0.6057,0.5956,0.5881,0.5813,0.0,0.0,0.0,0.5781,0.0,0.0,0.0,0.0,0.0,0.0,0.0,0.0,0.0,0.0,-0.3927,-0.5663,-0.7237,-0.8606,-1.0716,-1.1984,-1.2559,-1.4728,-1.5832,-1.5845,-1.6139,-1.6246,-1.6233,-1.674,-1.6914,-1.6887,-1.7382,-1.7662,-1.7862,-1.8584,-1.9426,-2.0254,-2.0374,-2.0615,-2.0909,4.2365,4.2917,0.0,0.0,0.0,0.0,0.0,4.4409,0.0,4.6955,0.0,5.0541,5.0541,5.23,5.3518,5.3518,0.0,5.2604,5.0507,5.098,5.0135,4.7327,4.6515,4.5274,4.3406,4.1336,3.9759,3.8745,3.7817,3.707,3.6445,3.5146,3.4178,3.3455,3.2198,3.1541,3.1278,3.0598,3.0147,2.9813,2.8217,2.7565,2.7288,2.5886,2.4743,2.3715,2.189,2.0989,2.0456,1.9043,1.8484,1.8426,1.7988,1.6576,1.5155,1.5013,1.3513,1.1931,1.2065,1.1265,1.0394,1.0427,0.9064,0.7787,0.7658,0.6979,0.6373,0.6393,0.6386,0.6373,0.0,0.0,0.0,0.6112,0.6091,0.0,0.0,0.0,0.0,0.0,0.0,0.0,0.0,0.0,0.0,0.0,0.0,0.0,0.0,0.0,0.0,-0.1014,-0.3885,0.0,-1.0295,0.0,-1.2603,-1.3755,-1.5132,-1.5845,-1.5899,-1.6192,-1.6473,-1.6714,-1.678,-1.7088,-1.7528,-1.7609,-1.7849,-1.825,-1.9092,-1.976,-2.0267,-2.0561,-2.098,-2.1515,4.274,4.2736,0.0,0.0,0.0,4.4854,4.6192,4.7793,4.9052,4.9458,5.1488,5.2909,5.2909,5.3281,5.3518,5.3518,5.3518,0.0,0.0,0.0,0.0,4.9593,4.8815,4.6885,4.3455,4.1886,4.0071,0.0,0.0,3.5435,3.5763,3.4364,3.3607,3.3455,3.2677,3.1664,3.051,3.0329,0.0,2.8076,2.7338,2.6635,2.5794,2.4384,2.3015,2.1755,2.0725,2.0318,2.0044,1.8586,1.8125,1.7968,1.7097,1.6088,1.5029,1.4243,1.2942,1.1787,1.1243,1.0754,1.0103,0.8713,0.8084,0.759,0.6878,0.6596,0.6471,0.6695,0.6627,0.6551,0.6638,0.0,0.0,0.0,0.0,0.0,0.0,0.0,0.0,0.0,0.0,0.6061,0.0,0.0,0.0,0.0,0.0,0.0,0.0,0.0,0.0,0.0,-0.7139,0.0,0.0,0.0,-1.3622,-1.3909,-1.5222,-1.5952,-1.6206,-1.65,-1.666,-1.6727,-1.7221,-1.7355,-1.7261,-1.7756,-1.8277,-1.8838,-1.9479,-1.9933,-2.0267,-2.0561,-2.1714,-2.3216,0.0,0.0,4.2777,0.0,0.0,0.0,0.0,5.0168,0.0,5.0236,5.1048,5.1725,5.1725,5.2807,5.3518,5.3518,5.3518,5.3179,5.2367,5.1961,5.1251,5.0135,4.8207,4.5996,4.3476,4.0827,3.8727,3.7144,0.0,3.4906,3.552,3.448,3.3814,3.3455,3.1988,3.0739,0.0,0.0,0.0,2.6503,2.5532,2.4583,2.3732,2.2744,2.1732,2.0617,1.991,1.9375,1.8879,1.8203,1.8008,1.7872,1.6922,1.593,1.5013,1.4027,1.24,1.0916,1.0743,0.9746,0.8548,0.7808,0.7331,0.6887,0.6499,0.6363,0.639,0.6551,0.6517,0.6146,0.502,0.4703,0.0,0.0,0.0,0.0,0.0,0.0,0.6605,0.0,0.0,0.0,0.0,0.0,0.0,0.0,0.0,0.0,0.0,0.0,0.0,0.0,0.0,0.0,0.0,0.0,0.0,-1.3872,-1.514,-1.5979,-1.6286,-1.6567,-1.6794,-1.6967,-1.7569,-1.7742,-1.7662,-1.8263,-1.8758,-1.9212,-1.98,-2.0107,-2.0402,-2.1698,-2.2835,-2.3574,0.0,4.35,0.0,0.0,4.6673,0.0,4.8843,5.142,5.2604,5.0777,5.071,5.0811,5.0811,5.2435,5.3518,5.3518,5.3518,5.3078,5.2131,5.1522,5.068,4.9375,4.6733,4.4447,4.2696,3.9344,3.7081,0.0,0.0,0.0,3.528,3.4179,3.3309,0.0,0.0,0.0,0.0,0.0,2.6125,2.5025,2.3704,2.2752,2.2048,2.1264,2.0508,1.986,1.9235,1.8596,1.794,1.7784,1.7716,1.7579,1.6576,1.5649,1.4657,1.3432,1.1637,1.0149,0.9933,0.8571,0.7169,0.7163,0.6745,0.6338,0.6338,0.6261,0.6268,0.6281,0.5569,0.4477,0.2771,0.2407,0.0,0.0,0.0,0.0,0.0,0.0,0.0,0.0,0.0,0.0,0.6546,0.0,0.0,0.0,0.0,0.0,0.0,0.0,0.0,0.0,0.0,-0.8886,-1.0769,0.0,-1.2834,0.0,-1.5338,-1.6112,-1.6473,-1.67,-1.6954,-1.7275,-1.7809,-1.8116,-1.8263,-1.8731,-1.9092,-1.9426,-2.0,-2.047,-2.1022,-2.2842,-2.4054,-2.4671,0.0,0.0,0.0,0.0,0.0,0.0,4.8883,5.0947,5.2334,5.2131,5.2739,5.3179,5.3179,5.3382,5.3518,5.3518,5.3518,5.2875,5.142,5.1251,4.9917,4.7073,4.5454,4.3163,4.0222,3.7997,3.6168,0.0,0.0,3.3094,0.0,3.2122,0.0,0.0,0.0,0.0,0.0,2.6418,2.5317,2.3636,2.2545,2.2115,2.1798,2.0157,1.9438,1.9239,1.8414,1.8076,1.7872,1.6991,1.6715,1.6558,1.5649,1.4673,1.3461,1.1454,1.0635,0.9967,0.8127,0.7419,0.7098,0.6314,0.6222,0.6338,0.6338,0.6268,0.6281,0.6295,0.3292,0.0557,0.0332,0.0329,0.0329,0.0,0.0,0.0,0.0,0.0,0.6292,0.4157,0.0,0.0,0.0,0.645,0.0,0.0,0.0,0.0,0.0,0.0,0.0,-0.68,0.0,-0.914,-1.1352,-1.2896,-1.3893,-1.4323,-1.5622,-1.6526,-1.7074,-1.7101,-1.7261,-1.7555,-1.7903,-1.8343,-1.8851,-1.8905,-1.9092,-1.9426,-2.0,-2.118,-2.2557,-2.3335,-2.5391,-2.7931,0.0,0.0,0.0,0.0,0.0,0.0,0.0,5.1454,5.23,5.23,5.301,5.3518,5.3518,5.3518,5.3518,5.3518,5.3078,5.2334,5.1285,4.9854,4.8362,4.6713,4.3816,4.153,3.9866,3.7333,3.5292,0.0,0.0,0.0,0.0,0.0,0.0,0.0,0.0,2.6926,2.5414,2.4518,2.3231,2.1804,2.1064,2.0292,1.9541,1.8785,1.8529,1.8395,1.7491,1.7148,1.701,1.607,1.614,1.6349,1.4799,1.365,1.2517,1.1108,0.9721,0.849,0.7616,0.7,0.647,0.6105,0.6146,0.6281,0.6369,0.6317,0.5952,0.4642,0.2042,-0.0,-0.0,-0.0,-0.0,0.0,0.0,0.0,0.0,0.0,0.0,0.3886,0.0,0.3389,0.0,0.0,0.0,0.0,0.0,0.0,0.0,0.0,0.0,-0.879,0.0,-1.029,-1.1712,-1.3299,-1.4154,-1.4359,-1.5841,-1.6754,-1.7154,-1.7154,-1.7502,-1.8143,-1.8437,-1.8811,-1.9185,-1.9185,-1.9359,-1.9784,-2.1131,-2.2242,-2.3172,-2.5577,-2.7331,-2.8545,4.8021,0.0,4.756,0.0,4.8958,4.9086,5.0642,5.1319,5.1725,5.1961,5.2469,5.2909,5.3112,5.2942,5.2841,5.2841,5.23,5.1425,5.0253,4.8628,4.6881,4.4984,4.2097,0.0,3.8846,3.6663,3.4741,3.3157,3.2825,0.0,0.0,0.0,0.0,0.0,2.6367,2.504,2.3879,2.28,2.1596,2.0298,1.9754,1.8992,1.8115,1.7754,1.7579,1.751,1.6507,1.621,1.607,1.5084,1.4996,1.5051,1.3708,1.2618,1.1563,1.0233,0.8748,0.7484,0.7074,0.6544,0.6084,0.6037,0.6179,0.6349,0.6458,0.6451,0.5618,0.2782,0.1013,-0.0,-0.0,-0.0,-0.0,-0.0,0.0,0.0,0.0,0.0,0.0,0.2772,-0.0178,-0.1412,0.0262,-0.0522,0.0,0.0,0.0,0.0,0.0,0.0,0.0,0.0,0.0,0.0,0.0,-1.3739,-1.443,-1.4595,-1.6111,-1.7034,-1.7422,-1.7502,-1.7929,-1.8624,-1.8838,-1.9092,-1.9488,-2.002,-2.0289,-2.0746,-2.2795,-2.3935,-2.4907,-2.7432,-2.8664,-2.9294,4.9407,4.9203,4.9227,5.0957,5.0617,5.0067,5.0101,5.0101,5.0371,5.115,5.1251,5.1522,5.2232,5.1657,5.1251,5.1251,5.1251,5.0253,4.7902,4.7704,4.5667,0.0,0.0,3.8816,3.6603,3.5848,3.4676,3.3082,0.0,0.0,3.073,0.0,2.7284,2.5803,2.4768,2.326,2.1439,2.1439,2.0606,1.9238,1.8809,1.8633,1.8434,1.7139,1.6627,1.6489,1.5579,1.5226,1.5084,1.4027,1.3055,1.2225,1.2225,1.1575,1.0364,0.8208,0.7626,0.7475,0.6172,0.6023,0.622,0.6071,0.6254,0.6471,0.6337,0.6463,0.5426,0.0952,-0.0,-0.0,-0.0,-0.0,-0.0,-0.0,0.0,0.0,0.0,0.0,0.0,0.009,-0.415,-0.6974,-0.6936,0.0,0.0,0.0,0.0,0.0,0.0,0.0,0.0,-1.2699,-1.2946,0.0,-1.3872,-1.4131,-1.4619,-1.5255,-1.651,-1.7462,-1.805,-1.8343,-1.8637,-1.8918,-1.8918,-1.9092,-1.9502,-2.1365,-2.218,-2.2357,-2.4687,-2.6523,-2.8002,-2.8282,-2.9412,-3.0957,5.0599,5.0146,4.9769,5.0359,4.9848,4.9526,4.9999,5.0101,5.0371,5.1116,5.0777,5.0338,5.0067,5.0304,5.0439,0.0,4.8952,4.7766,0.0,4.4911,4.2816,4.0925,3.9137,3.7654,3.6507,3.5163,3.3523,3.164,0.0,0.0,0.0,2.682,2.5682,2.4169,2.2878,2.1987,2.1345,2.0398,1.9528,1.8757,1.7962,1.7454,1.7107,1.6053,1.5649,1.5508,1.453,1.4171,1.4027,1.3098,1.2057,1.1143,1.0473,0.9583,0.8599,0.7929,0.7279,0.6696,0.6291,0.6186,0.6274,0.6322,0.6403,0.6525,0.6659,0.5609,0.3689,0.0622,-0.0,-0.0,-0.0,-0.0,-0.0,-0.0,-0.0,0.0,0.0,0.0,0.0,-0.505,-0.6788,-0.7647,0.0,-0.6919,0.0,0.0,0.0,0.0,0.0,0.0,0.0,0.0,-1.325,0.0,-1.5531,-1.6008,-1.633,-1.6523,-1.7345,-1.7969,-1.8357,-1.8651,-1.8838,-1.8931,-2.0231,-2.0945,-2.1467,-2.3059,-2.4069,-2.4655,-2.6537,-2.7641,-2.8364,-2.9611,-3.0584,-3.1328,5.0789,5.0601,5.0351,5.0096,4.9729,4.9492,4.9661,4.9695,4.9603,4.9516,4.905,4.8416,4.7331,4.7334,0.0,4.8312,4.6746,4.544,4.4851,4.2658,4.0839,3.9573,3.7926,3.6611,3.5592,0.0,0.0,3.0746,2.9334,2.7601,2.5468,2.4715,2.3868,2.2892,2.1481,2.0769,2.0512,1.9508,1.8576,1.782,1.7238,1.6581,1.6,1.5013,1.4673,1.453,1.352,1.3171,1.3025,1.2057,1.1093,1.0045,0.9064,0.8008,0.7249,0.7249,0.6795,0.6274,0.6329,0.6342,0.6376,0.6519,0.66,0.6709,0.6966,0.4511,0.1787,0.0269,-0.0,-0.0,-0.0,-0.0,-0.0,-0.0,-0.0,-0.0629,-0.2426,0.0,0.0,0.0,0.0,0.0,0.0,-0.7672,0.0,0.0,0.0,0.0,0.0,0.0,0.0,-1.2619,-1.4193,0.0,-1.6607,-1.6967,-1.7208,-1.7315,-1.7929,-1.837,-1.8664,-1.9498,-1.9849,-1.9976,-2.1858,-2.2788,-2.3237,-2.5009,-2.6093,-2.6658,-2.8363,-2.9189,-2.9431,-3.0683,-3.1289,-3.1562,5.0236,5.0777,0.0,0.0,5.0135,0.0,4.9058,4.8923,4.8308,4.6746,4.6518,4.5865,4.4294,4.3423,4.3525,4.5009,0.0,0.0,0.0,4.0945,3.961,3.7404,3.6709,3.5651,3.4041,3.3876,3.264,3.0224,2.7236,2.5444,2.485,2.2914,2.1941,2.1824,2.0492,1.9629,1.9219,1.8789,1.7783,1.6558,1.6489,1.593,1.5029,1.3954,1.3593,1.3462,1.2586,1.2231,1.207,1.1093,1.0121,0.8998,0.8084,0.7103,0.6352,0.6268,0.6345,0.6302,0.6437,0.6478,0.6525,0.6675,0.6837,0.7,0.7081,0.3681,0.0359,0.009,-0.0,-0.0,-0.0,-0.027,-0.036,-0.009,-0.0,-0.1527,-0.5947,0.0,0.0,0.0,0.0,0.0,0.0,-0.776,-0.7821,0.0,0.0,0.0,0.0,0.0,-1.3225,-1.4138,-1.5601,-1.6593,-1.7141,-1.7194,-1.7368,-1.7689,-1.825,-1.8677,-1.9185,-2.0786,-2.1699,-2.1828,-2.3748,-2.4725,-2.4922,-2.716,-2.8217,-2.8388,-3.0238,-3.0898,-3.0937,-3.1367,-3.1543,-3.168,0.0,0.0,5.115,5.098,5.0473,4.9641,4.8131,4.7933,4.7342,4.5759,4.5559,4.5008,4.3554,4.2161,4.1292,4.1047,4.0915,4.0368,3.9486,3.8666,3.7767,3.6746,3.5869,3.4951,3.4041,3.2593,3.0838,2.8664,2.6359,2.4753,2.3818,2.2542,2.1398,2.0341,1.9703,1.9199,1.8769,1.834,1.7517,1.6558,1.579,1.4942,1.3954,1.3025,1.2659,1.2586,1.2378,1.1848,1.1093,1.0858,0.9583,0.8084,0.7855,0.718,0.6403,0.6295,0.6335,0.643,0.6464,0.6559,0.6681,0.6837,0.7075,0.7305,0.7283,0.6386,0.441,0.075,-0.0,-0.0,-0.0,-0.2995,-0.4226,-0.0629,-0.0,-0.0358,-0.1527,-0.4195,0.0,0.0,-0.6323,-0.7994,-0.7929,-0.797,-0.7936,0.0,0.0,0.0,0.0,-1.1956,-1.2543,-1.2862,-1.5582,-1.7109,-1.7154,-1.7609,-1.809,-1.8611,-1.8758,-1.9511,-2.1028,-2.1442,-2.2251,-2.3391,-2.5345,-2.637,-2.6786,-2.8803,-2.993,-3.0257,-3.0723,-3.0898,-3.0937,-3.1367,-3.1738,-3.209,5.2232,5.1995,5.1725,5.1725,5.1082,5.0082,4.8332,4.7869,4.678,4.4452,4.3832,4.3094,4.1548,4.0632,3.9772,3.8727,3.8635,3.8482,3.8116,3.7375,3.6603,3.5878,3.498,3.3943,3.2763,3.1487,2.9563,2.7017,2.5228,2.3818,2.2765,2.1603,2.0647,1.9883,1.9277,1.8848,1.8543,1.8184,1.7217,1.593,1.5367,1.4314,1.3025,1.2526,1.2305,1.2231,1.1774,1.1242,1.0634,0.9734,0.8741,0.7827,0.736,0.6929,0.6559,0.6485,0.6519,0.6593,0.6661,0.679,0.6953,0.7177,0.736,0.7502,0.7402,0.7341,0.659,0.3813,0.1512,-0.075,-0.3193,-0.5558,-0.6218,-0.3639,-0.1453,-0.0726,-0.291,-0.5953,0.0,-0.5867,-0.7009,-0.8,-0.8024,-0.8038,-0.8031,-0.8024,0.0,0.0,-1.1435,-1.2846,-1.3881,-1.4523,-1.6253,-1.7288,-1.7555,-1.8023,-1.8795,-1.9907,-1.9907,-2.0837,-2.2589,-2.3375,-2.4044,-2.4965,-2.7123,-2.8202,-2.8446,-2.9891,-3.0664,-3.0898,-3.0898,-3.1016,-3.123,-3.166,-3.209,-3.2519,5.2469,5.2469,5.2401,5.2164,5.1493,5.0424,4.8592,4.7601,4.6015,4.2962,4.2005,4.1005,3.9541,3.932,3.8751,3.7524,3.7315,3.7225,3.7135,3.6462,3.5731,3.4889,3.4025,3.2806,3.1241,3.0414,2.866,2.5803,2.4265,2.2988,2.1941,2.0552,1.9883,1.9785,1.8984,1.8594,1.8446,1.8007,1.6802,1.5171,1.5029,1.3882,1.2305,1.2305,1.2231,1.1996,1.1093,1.0582,1.0089,0.8426,0.7783,0.7693,0.6827,0.6614,0.6736,0.6736,0.677,0.6824,0.6932,0.7082,0.7278,0.7563,0.7631,0.7638,0.7482,0.7311,0.7133,0.7254,0.3361,-0.1628,-0.7037,-0.759,-0.7197,-0.7178,-0.3708,-0.2409,-0.6132,0.0,-0.7452,-0.7738,-0.7868,-0.8028,-0.8058,-0.8072,-0.814,-0.8289,-0.9611,-1.0595,0.0,-1.3674,-1.5823,-1.7275,-1.7288,-1.7569,-1.817,-1.8644,-1.9667,-2.1279,-2.139,-2.2418,-2.4156,-2.5551,-2.6354,-2.6628,-2.8814,-2.9668,-2.9726,-3.0547,-3.0898,-3.0898,-3.0898,-3.1152,-3.1562,-3.2012,-3.2544,-3.3223,5.3315,5.3315,5.2909,5.1623,5.0627,4.9217,4.698,4.5334,4.3749,4.1896,4.1009,4.0274,3.9499,3.8901,3.8242,3.7464,3.6926,3.6387,3.5848,3.4882,3.4322,3.4157,3.2506,3.1536,3.1167,2.9391,2.758,2.5803,2.4265,2.2988,2.1941,2.0552,1.9727,1.9355,1.8867,1.8437,1.8037,1.7166,1.621,1.5155,1.4243,1.3317,1.2305,1.2305,1.1774,1.1007,1.0858,0.9774,0.8391,0.8077,0.7492,0.6908,0.675,0.677,0.6892,0.6892,0.7068,0.7244,0.7136,0.7312,0.757,0.774,0.778,0.7821,0.7872,0.6184,0.5191,0.7441,0.3657,-0.1661,-0.6973,-0.7931,-0.7813,-0.7523,-0.6655,-0.569,-0.4635,0.0,-0.5465,-0.7647,-0.7943,-0.8072,-0.8221,-0.8235,-0.8296,-0.8438,-0.9784,-1.12,-1.2546,-1.4283,-1.5996,-1.7782,-1.7903,-1.8196,-1.8784,-2.0017,-2.0959,-2.1511,-2.2735,-2.4199,-2.5717,-2.6295,-2.7234,-2.852,-2.9614,-3.0098,-3.0137,-3.0664,-3.0898,-3.0898,-3.0898,-3.1152,-3.1562,-3.2012,-3.3357,-3.4897,5.3518,5.3145,5.2471,5.1262,5.0355,4.8936,4.6402,4.4778,4.3291,4.1595,4.0487,3.9738,3.9439,3.914,3.8661,3.8003,3.7345,3.6484,3.5331,3.4448,3.3739,3.3227,3.1947,3.0682,2.9567,2.8076,2.638,2.4576,2.332,2.2188,2.1221,2.0325,1.9687,1.9277,1.8309,1.761,1.7217,1.621,1.5296,1.4386,1.3882,1.3171,1.2305,1.2305,1.17,1.0732,1.0253,0.9213,0.7899,0.745,0.7109,0.6837,0.6912,0.7041,0.7183,0.7265,0.7326,0.7394,0.7475,0.7604,0.7746,0.7896,0.7943,0.7878,0.7965,0.7071,0.4839,0.0302,-0.2602,-0.5088,-0.7588,-0.7868,-0.7849,-0.774,-0.7555,0.0,0.0,-0.5494,-0.6564,-0.7872,-0.8085,-0.8194,-0.8262,-0.905,-0.968,-0.9738,-1.184,-1.3561,-1.4556,-1.5897,-1.718,-1.8277,-1.9181,-1.9832,-2.0117,-2.1719,-2.3102,-2.4044,-2.471,-2.5827,-2.7295,-2.771,-2.8248,-2.8965,-2.9824,-3.0195,-3.0234,-3.0703,-3.0898,-3.0918,-3.1133,-3.1484,-3.2035,-3.3397,-3.4817,-3.6178,5.3518,5.2841,5.1933,5.0883,4.9805,4.8388,4.5809,4.4211,4.2781,4.1385,4.0157,3.9409,3.9409,3.9409,3.914,3.8452,3.7704,3.6604,3.5091,3.4085,3.3185,3.2307,3.1256,2.9725,2.7804,2.6868,2.5354,2.3136,2.2414,2.1527,2.0547,2.0117,1.9746,1.9341,1.7842,1.7009,1.6632,1.5417,1.4386,1.3665,1.3448,1.2994,1.2412,1.21,1.1377,1.045,0.9546,0.856,0.7698,0.7014,0.6932,0.7102,0.721,0.7326,0.7448,0.7563,0.7543,0.7522,0.7746,0.7834,0.7896,0.8018,0.7959,0.7666,0.6448,0.6158,0.3626,-0.5244,-0.7604,-0.8006,-0.7979,-0.7878,-0.7791,-0.7868,0.0,0.0,0.0,-0.7105,-0.8019,-0.8119,-0.854,-0.8837,-0.888,-1.0319,-1.1326,-1.1576,-1.3943,-1.553,-1.5979,-1.7354,-1.8386,-1.9112,-2.0419,-2.1345,-2.1769,-2.3468,-2.4931,-2.6155,-2.6591,-2.73,-2.8457,-2.8984,-2.9219,-2.9258,-3.0019,-3.0351,-3.0391,-3.0742,-3.0957,-3.1074,-3.1387,-3.2076,-3.3054,-3.4773,-3.6417,-3.8008,5.3518,5.2841,5.1799,5.0152,4.8562,4.6733,4.432,4.2589,4.1355,4.0546,3.9858,3.9409,3.9409,3.9409,3.914,3.8452,3.7418,3.6331,3.5119,3.323,3.1872,3.1341,2.9905,2.83,2.6764,2.6113,2.4636,2.2113,2.2038,2.1527,2.0547,2.0117,1.9902,1.9749,1.7971,1.7171,1.7045,1.4728,1.3738,1.3593,1.2732,1.254,1.2629,1.1544,1.0662,0.9817,0.8702,0.7774,0.7176,0.7102,0.7305,0.755,0.7563,0.757,0.7584,0.7597,0.7685,0.778,0.7807,0.7916,0.8031,0.7965,0.7972,0.6742,0.1702,0.0601,-0.03,-0.3613,-0.6247,-0.7992,-0.7972,-0.7965,-0.7952,-0.8024,0.0,0.0,-0.7826,-0.8066,-0.8269,-0.8255,-0.9602,-1.0585,-1.0657,-1.2049,-1.2966,-1.3507,-1.4976,-1.5979,-1.6251,-1.7648,-1.9237,-2.0826,-2.1077,-2.1896,-2.355,-2.5133,-2.6045,-2.6155,-2.7891,-2.8758,-2.8906,-2.9726,-3.0098,-3.0137,-3.0625,-3.084,-3.084,-3.0879,-3.1113,-3.1465,-3.1504,-3.2934,-3.5014,-3.5718,-3.8132,-4.1259,5.2841,5.1699,5.022,4.8562,4.6542,4.4642,4.3137,4.1746,4.0696,4.0427,3.9828,3.9409,3.9409,3.9409,3.932,3.905,3.7331,3.584,3.4804,3.2705,3.113,3.0368,2.9783,2.8546,2.6614,2.5797,2.431,2.2038,2.1451,2.0934,2.0644,2.0391,2.0176,1.9827,1.7886,1.685,1.6461,1.4334,1.339,1.339,1.302,1.2933,1.2948,1.1745,1.0767,0.9922,0.8878,0.7971,0.7299,0.7394,0.7502,0.7617,0.7706,0.7733,0.7746,0.7841,0.7909,0.7957,0.797,0.7918,0.7965,0.7972,0.7992,0.6564,0.1203,-0.2609,-0.524,-0.6242,-0.726,-0.7972,-0.7959,-0.7952,-0.8079,-0.8167,0.0,-0.8221,-0.8303,-0.837,-0.8716,-0.9729,-1.0393,-1.116,-1.2077,-1.3816,-1.4831,-1.5021,-1.6637,-1.7648,-1.7917,-1.9555,-2.1607,-2.4158,-2.4158,-2.4556,-2.5261,-2.6717,-2.7492,-2.7511,-2.8494,-2.8926,-2.8945,-2.9805,-3.0195,-3.0215,-3.0684,-3.0898,-3.0918,-3.1172,-3.1938,-3.3039,-3.3592,-3.496,-3.689,-3.8738,-4.0453,-4.2233,5.2469,5.0961,4.921,4.7284,4.5236,4.334,4.1956,4.0965,4.0337,4.0127,3.9709,3.9409,3.9409,3.9409,3.9265,3.8943,3.6982,3.531,3.4169,3.1978,3.0495,2.9856,2.9628,2.8516,2.6394,2.5378,2.3908,2.1732,2.1013,2.0566,2.0566,2.0566,2.041,2.0041,1.7838,1.6702,1.6316,1.408,1.3213,1.3213,1.3213,1.3267,1.3187,1.2107,1.1211,1.0267,0.9341,0.8367,0.7529,0.7631,0.7699,0.7753,0.7848,0.7882,0.7902,0.8011,0.8045,0.7952,0.7972,0.7979,0.7992,0.7992,0.8039,0.6326,-0.0,-0.4896,-0.8133,-0.8153,-0.8174,-0.8187,-0.8119,-0.8147,-0.8214,-0.8323,-0.8336,-0.8577,-0.9086,-0.9249,-0.9797,-1.1245,-1.1953,-1.2713,-1.3667,-1.5363,-1.6525,-1.6698,-1.7806,-1.8874,-1.9694,-2.1805,-2.3933,-2.6045,-2.6608,-2.6825,-2.6825,-2.7833,-2.8359,-2.8496,-2.8926,-2.9199,-2.9336,-3.0078,-3.041,-3.043,-3.0762,-3.0957,-3.1113,-3.1406,-3.2572,-3.437,-3.5002,-3.6622,-3.901,-4.0952,-4.2328,-4.3503,5.2435,5.0961,4.9046,4.6711,4.489,4.3002,4.0724,4.0397,4.0157,3.9499,3.9409,3.9439,3.9409,3.9439,3.8943,3.7919,3.6304,3.4694,3.304,3.0983,2.9804,2.9804,2.9252,2.7888,2.5824,2.4835,2.3272,2.125,2.0781,2.0566,2.0566,2.0566,2.0566,2.0469,1.8039,1.6929,1.6756,1.4259,1.3213,1.3213,1.3227,1.34,1.3517,1.2662,1.1717,1.0711,0.9819,0.8808,0.7814,0.7814,0.7916,0.8038,0.8038,0.8038,0.8038,0.8038,0.7959,0.7972,0.7979,0.7999,0.8026,0.8026,0.7929,0.5709,-0.2579,-0.662,-0.8499,-0.8309,-0.8384,-0.8438,-0.8296,-0.8384,-0.8479,-0.8486,-0.8486,-0.9003,-1.0543,-1.0809,-1.146,-1.2825,-1.4412,-1.5423,-1.5423,-1.6723,-1.7849,-1.845,-1.849,-1.9389,-2.1556,-2.4488,-2.6155,-2.6155,-2.7511,-2.8301,-2.8301,-2.8301,-2.8516,-2.8926,-2.9355,-2.9785,-3.0215,-3.0684,-3.0898,-3.0898,-3.0898,-3.1133,-3.1523,-3.1523,-3.2934,-3.5255,-3.5255,-3.7732,-4.1448,-4.2114,-4.3647,-4.5573,5.0792,4.9206,4.7316,4.4912,4.3217,4.173,4.0591,4.0008,3.9649,3.9439,3.9828,3.9918,3.9469,3.9106,3.8638,3.7872,3.5328,3.2855,3.0854,3.0188,2.9804,2.9804,2.8856,2.7522,2.5824,2.4814,2.3387,2.1699,2.125,2.1035,2.1035,2.0703,2.0566,2.0489,1.8179,1.7169,1.6992,1.4735,1.3828,1.3841,1.4041,1.4175,1.4111,1.3233,1.2213,1.1135,1.0076,0.8987,0.797,0.797,0.7997,0.8038,0.8038,0.8038,0.7965,0.7985,0.8052,0.8026,0.8046,0.804,0.7975,0.7975,0.5129,0.1228,-0.3453,-0.6725,-0.8716,-0.8522,-0.8452,-0.8472,-0.8425,-0.8452,-0.852,-0.8621,-0.9481,-1.0363,-1.0923,-1.2073,-1.3396,-1.4808,-1.558,-1.6404,-1.7431,-1.8176,-1.8597,-1.8784,-1.9963,-2.1826,-2.4582,-2.559,-2.6737,-2.8038,-2.8513,-2.8887,-2.918,-2.8887,-2.8789,-2.8926,-2.9668,-3.0078,-3.0215,-3.0684,-3.0898,-3.0918,-3.1211,-3.1406,-3.1682,-3.3435,-3.524,-3.7104,-3.8839,-4.0974,-4.3177,-4.4141,-4.4967,-4.5623,5.0017,4.8142,4.6161,4.4122,4.2423,4.1145,4.0487,3.9828,3.9529,3.9768,3.9918,3.9948,3.9828,3.8969,3.8093,3.7204,3.4203,3.1626,2.9932,2.9804,2.9804,2.9804,2.8688,2.7462,2.6116,2.5267,2.399,2.2129,2.1699,2.1504,2.1484,2.1211,2.0835,2.0316,1.8508,1.743,1.6928,1.519,1.4429,1.4442,1.4629,1.4696,1.4635,1.4191,1.3263,1.2078,1.1039,0.9803,0.8726,0.8137,0.8038,0.8038,0.8038,0.8079,0.814,0.7991,0.7256,0.6658,0.7688,0.8007,0.6906,0.2424,-0.1154,-0.3671,-0.4379,-0.6754,-0.88,-0.8574,-0.8621,-0.8642,-0.8581,-0.8621,-0.8904,-0.9537,-1.0401,-1.1432,-1.2821,-1.3946,-1.5175,-1.6735,-1.7116,-1.7563,-1.838,-1.8651,-1.9023,-1.9794,-2.2204,-2.4373,-2.628,-2.7105,-2.799,-2.916,-2.918,-2.9297,-2.957,-2.9473,-2.9414,-2.9434,-2.9941,-3.0293,-3.0488,-3.0762,-3.0898,-3.0918,-3.1328,-3.1939,-3.2832,-3.4482,-3.6762,-3.9196,-4.0764,-4.2603,-4.4543,-4.5246,-4.5623,-4.5949,4.971,4.754,4.5384,4.3902,4.2484,4.1235,4.0516,3.9888,3.9709,4.0247,3.9828,3.9709,4.0247,3.8852,3.7414,3.629,3.3273,3.0934,2.9854,2.9804,2.9804,2.9804,2.8767,2.7683,2.6565,2.5954,2.4673,2.2559,2.2148,2.1934,2.1934,2.1894,2.1172,1.9943,1.8836,1.7715,1.6507,1.5486,1.4963,1.4963,1.499,1.5003,1.503,1.5324,1.457,1.3274,1.2255,1.1072,0.9805,0.845,0.8058,0.8058,0.8058,0.8167,0.8269,0.8052,0.6139,0.4564,0.7235,0.7675,0.4643,-0.6216,-0.8948,-0.8156,-0.5469,-0.6968,-0.8913,-0.8764,-0.8845,-0.8899,-0.8757,-0.8955,-0.9478,-1.0891,-1.1319,-1.2474,-1.5436,-1.6053,-1.6722,-1.838,-1.8557,-1.8682,-1.878,-1.8891,-1.975,-2.1456,-2.477,-2.677,-2.6882,-2.8649,-2.959,-2.9629,-2.9629,-2.9648,-2.9687,-3.0059,-3.0234,-3.0195,-3.0234,-3.0488,-3.0898,-3.0898,-3.1015,-3.1191,-3.1624,-3.295,-3.488,-3.5508,-3.8015,-4.1377,-4.1731,-4.335,-4.5497,-4.5547,-4.5899,-4.6476,4.8117,4.6329,4.4524,4.3001,4.2376,4.1743,4.0576,4.0277,4.0068,3.9679,3.9948,4.0038,3.9679,3.8998,3.7947,3.6318,3.3273,3.0934,2.9854,2.9804,2.9804,2.9804,2.9546,2.853,2.6565,2.5521,2.4322,2.3008,2.2578,2.2383,2.2363,2.2031,2.1172,1.9943,1.8836,1.7715,1.6507,1.5486,1.4963,1.499,1.5217,1.5297,1.5337,1.5618,1.4956,1.3611,1.2318,1.1072,0.983,0.8679,0.8221,0.8221,0.8221,0.8323,0.8438,0.8445,0.6327,0.457,0.7264,0.4935,-0.0,-0.7127,-0.8863,-0.8732,-0.814,-0.8414,-0.8927,-0.8879,-0.8913,-0.8927,-0.8893,-0.9786,-1.0781,-1.1,-1.294,-1.4752,-1.5764,-1.7114,-1.8158,-1.8798,-1.9038,-1.9617,-2.0827,-2.1938,-2.3292,-2.4919,-2.6038,-2.7234,-2.8358,-2.9225,-2.9726,-3.0059,-3.0059,-3.0234,-3.0605,-3.0703,-3.0547,-3.0195,-3.0566,-3.0801,-3.0898,-3.0898,-3.1736,-3.3298,-3.3637,-3.5019,-3.7044,-3.9216,-4.0575,-4.159,-4.3782,-4.501,-4.5547,-4.5974,-4.6476,-4.7104,4.7469,4.5516,4.3805,4.2959,4.2581,4.2132,4.1444,4.0816,4.0397,4.0367,4.0098,3.9918,3.9888,3.8457,3.6559,3.41,3.2342,3.0934,2.9854,2.9804,2.9804,2.9804,2.9804,2.8791,2.6565,2.588,2.4808,2.3144,2.291,2.2812,2.2812,2.2578,2.1502,1.9712,1.9184,1.7955,1.6162,1.564,1.5378,1.5391,1.5538,1.5605,1.5618,1.5765,1.5439,1.4567,1.263,1.0681,0.8947,0.8418,0.8269,0.8282,0.835,0.8479,0.8495,0.856,0.7517,0.607,0.4533,0.011,-0.4618,-0.6371,-0.7862,-0.8876,-0.8863,-0.8906,-0.8859,-0.8927,-0.8994,-0.9042,-0.9042,-1.0247,-1.1483,-1.2349,-1.4254,-1.6066,-1.7141,-1.8138,-1.8811,-1.9105,-1.9265,-2.0095,-2.168,-2.386,-2.5628,-2.6605,-2.7678,-2.8728,-2.9531,-2.9961,-3.0293,-3.0527,-3.0527,-3.0644,-3.0898,-3.0898,-3.0879,-3.082,-3.0879,-3.0898,-3.0898,-3.1872,-3.2868,-3.4022,-3.5402,-3.7139,-3.9198,-4.081,-4.2158,-4.3566,-4.5166,-4.605,-4.6326,-4.6878,-4.7431,-4.8008,4.7173,4.5077,4.3329,4.3329,4.288,4.2462,4.2222,4.1265,4.0696,4.0995,4.0098,3.9546,3.9936,3.7565,3.4794,3.1949,3.1549,3.0984,3.0005,2.9854,2.9804,2.9804,2.9624,2.853,2.6565,2.6318,2.5231,2.3144,2.3144,2.3144,2.3144,2.2862,2.1587,1.9497,1.9314,1.7948,1.5832,1.5832,1.5832,1.5832,1.5832,1.5832,1.5832,1.5832,1.5642,1.514,1.2727,1.019,0.8065,0.8248,0.8309,0.833,0.8479,0.8535,0.8649,0.8415,0.8608,0.7621,0.1649,-0.4402,-0.831,-0.5917,-0.707,-0.8897,-0.9008,-0.8967,-0.8947,-0.8967,-0.9069,-0.9164,-0.9184,-1.0642,-1.2253,-1.3675,-1.5233,-1.6944,-1.8612,-1.8918,-1.9038,-1.9332,-1.9979,-2.1003,-2.2844,-2.557,-2.7343,-2.7691,-2.9241,-3.0195,-3.0195,-3.0644,-3.0898,-3.0898,-3.0898,-3.0898,-3.0898,-3.1112,-3.1386,-3.1742,-3.1796,-3.1696,-3.1562,-3.3413,-3.4568,-3.5194,-3.726,-3.9384,-4.1504,-4.1918,-4.3472,-4.5673,-4.6225,-4.6778,-4.733,-4.7857,-4.836,-4.8786,4.6429,4.4662,4.3329,4.3329,4.3269,4.2821,4.1683,4.1354,4.0876,3.9828,3.9529,3.9046,3.826,3.6215,3.4338,3.2883,3.1928,3.1135,3.0532,3.0055,2.9804,2.9804,2.8846,2.7763,2.6565,2.5546,2.4382,2.3144,2.3144,2.3144,2.3057,2.2031,2.0836,1.9497,1.8411,1.7124,1.5832,1.5832,1.5832,1.5832,1.5832,1.5832,1.5832,1.5832,1.514,1.3968,1.2425,1.019,0.8079,0.8357,0.8452,0.8486,0.8548,0.8709,0.8809,0.8253,0.8433,0.7633,0.1676,-0.4362,-0.8772,-0.8431,-0.8739,-0.915,-0.913,-0.9028,-0.8974,-0.9096,-0.9137,-0.9191,-0.9327,-1.1617,-1.3665,-1.3808,-1.6287,-1.8321,-1.8878,-1.8918,-1.9038,-1.9332,-2.197,-2.4431,-2.5969,-2.7996,-2.9269,-2.9327,-2.9848,-3.0195,-3.0195,-3.0644,-3.0898,-3.0898,-3.0898,-3.0898,-3.0898,-3.2207,-3.2778,-3.2955,-3.4636,-3.4891,-3.4018,-3.5277,-3.7292,-3.9823,-4.0219,-4.1765,-4.407,-4.4643,-4.5385,-4.625,-4.6803,-4.733,-4.7883,-4.8435,-4.8711,-4.8837,4.6237,4.46,4.321,4.2851,4.309,4.288,4.1564,4.1384,4.1025,4.0098,3.9649,3.9017,3.7919,3.562,3.3539,3.1808,3.1255,3.0733,3.0181,2.993,2.9804,2.9804,2.9287,2.8291,2.6565,2.5964,2.4893,2.3144,2.3144,2.3144,2.3057,2.258,2.1302,1.9497,1.8948,1.7576,1.5832,1.5832,1.5832,1.5832,1.5832,1.5832,1.5737,1.5045,1.4364,1.3607,1.1688,0.9754,0.8214,0.8513,0.8615,0.8548,0.8709,0.8823,0.8883,0.8608,0.6371,0.3365,0.0672,-0.1916,-0.4768,-0.832,-0.9218,-0.9191,-0.9286,-0.9232,-0.9205,-0.9266,-0.9347,-0.9771,-1.0646,-1.2614,-1.4384,-1.5445,-1.7326,-1.8838,-1.9132,-1.9172,-1.9557,-2.0458,-2.2902,-2.5133,-2.6852,-2.8729,-3.0019,-3.0293,-3.0488,-3.0586,-3.0586,-3.0781,-3.0898,-3.0898,-3.0898,-3.1325,-3.2092,-3.2758,-3.3636,-3.4684,-3.6473,-3.6678,-3.5452,-3.7657,-3.9494,-4.0894,-4.2305,-4.3912,-4.5598,-4.5849,-4.6451,-4.7255,-4.7832,-4.8385,-4.8887,-4.9138,-4.9238,-4.9314]},{"header":{"parameterUnit":"m.s-1","parameterCategory":1,"la1":30.6,"la2":28.766,"lo1":-90.7593,"lo2":-88.6598,"dy":0.0162,"dx":0.0183,"nx":116,"ny":114,"refTime":"2024-03-09T06:00:00:Z","depth":0,"parameterNumber":3,"parameterNumberName":"V-component_of_WINDS"},"data":[0.0,0.0,0.0,0.0,0.0,0.0,0.0,0.0,0.0,0.0,0.0,0.0,0.0,0.0,0.0,0.0,0.0,0.0,0.0,0.0,0.0,0.0,0.0,0.0,0.0,0.0,0.0,0.0,0.0,0.0,0.0,0.0,0.0,0.0,0.0,0.0,0.0,0.0,0.0,0.0,0.0,0.0,0.0,0.0,0.0,0.0,0.0,0.0,0.0,0.0,0.0,0.0,0.0,0.0,0.0,0.0,0.0,0.0,0.0,0.0,0.0,0.0,0.0,0.0,0.0,0.0,0.0,0.0,0.0,0.0,0.0,0.0,0.0,0.0,0.0,0.0,0.0,0.0,0.0,0.0,0.0,0.0,0.0,0.0,0.0,0.0,0.0,0.0,0.0,0.0,0.0,0.0,0.0,0.0,0.0,0.0,0.0,0.0,0.0,0.0,0.0,0.0,0.0,0.0,0.0,0.0,0.0,0.0,0.0,0.0,0.0,0.0,0.0,0.0,0.0,0.0,0.0,0.0,0.0,0.0,0.0,0.0,0.0,0.0,0.0,0.0,0.0,0.0,0.0,0.0,0.0,0.0,0.0,0.0,0.0,0.0,0.0,0.0,0.0,0.0,0.0,0.0,0.0,0.0,0.0,0.0,0.0,0.0,0.0,0.0,0.0,0.0,0.0,0.0,0.0,0.0,0.0,0.0,0.0,0.0,0.0,0.0,0.0,0.0,0.0,0.0,0.0,0.0,0.0,0.0,0.0,0.0,0.0,0.0,0.0,0.0,0.0,0.0,0.0,0.0,0.0,0.0,0.0,0.0,0.0,0.0,0.0,0.0,0.0,0.0,0.0,0.0,0.0,0.0,0.0,0.0,0.0,0.0,0.0,0.0,0.0,0.0,0.0,0.0,0.0,0.0,0.0,0.0,0.0,0.0,0.0,0.0,0.0,0.0,0.0,0.0,0.0,0.0,0.0,0.0,0.0,0.0,0.0,0.0,0.0,0.0,0.0,0.0,0.0,0.0,0.0,0.0,0.0,0.0,0.0,0.0,0.0,0.0,0.0,0.0,0.0,0.0,0.0,0.0,0.0,0.0,0.0,0.0,0.0,0.0,0.0,0.0,0.0,0.0,0.0,0.0,0.0,0.0,0.0,0.0,0.0,0.0,0.0,0.0,0.0,0.0,0.0,0.0,0.0,0.0,0.0,0.0,0.0,0.0,0.0,0.0,0.0,0.0,0.0,0.0,0.0,0.0,0.0,0.0,0.0,0.0,0.0,0.0,0.0,0.0,0.0,0.0,0.0,0.0,0.0,0.0,0.0,0.0,0.0,0.0,0.0,0.0,0.0,0.0,0.0,0.0,0.0,0.0,0.0,0.0,0.0,0.0,0.0,0.0,0.0,0.0,0.0,0.0,0.0,0.0,0.0,0.0,0.0,0.0,0.0,0.0,0.0,0.0,0.0,0.0,0.0,0.0,0.0,0.0,0.0,0.0,0.0,0.0,0.0,0.0,0.0,0.0,0.0,0.0,0.0,0.0,0.0,0.0,0.0,0.0,0.0,0.0,0.0,0.0,0.0,0.0,0.0,0.0,0.0,0.0,0.0,0.0,0.0,0.0,0.0,0.0,0.0,0.0,0.0,0.0,0.0,0.0,0.0,0.0,0.0,0.0,0.0,0.0,0.0,0.0,0.0,0.0,0.0,0.0,0.0,0.0,0.0,0.0,0.0,0.0,0.0,0.0,0.0,0.0,0.0,0.0,0.0,0.0,0.0,0.0,0.0,0.0,0.0,0.0,0.0,0.0,0.0,0.0,0.0,0.0,0.0,0.0,0.0,0.0,0.0,0.0,0.0,0.0,0.0,0.0,0.0,0.0,0.0,0.0,0.0,0.0,0.0,0.0,0.0,0.0,0.0,0.0,0.0,0.0,0.0,0.0,0.0,0.0,0.0,0.0,0.0,0.0,0.0,0.0,0.0,0.0,0.0,0.0,0.0,0.0,0.0,0.0,0.0,0.0,0.0,0.0,0.0,0.0,0.0,0.0,0.0,0.0,0.0,0.0,0.0,0.0,0.0,0.0,0.0,0.0,0.0,0.0,0.0,0.0,0.0,0.0,0.0,0.0,0.0,0.0,0.0,0.0,0.0,0.0,0.0,0.0,0.0,0.0,0.0,0.0,0.0,0.0,0.0,0.0,0.0,0.0,0.0,0.0,0.0,0.0,0.0,0.0,0.0,0.0,0.0,0.0,0.0,0.0,0.0,0.0,0.0,0.0,0.0,0.0,0.0,0.0,0.0,0.0,0.0,0.0,0.0,0.0,0.0,0.0,0.0,0.0,0.0,0.0,0.0,0.0,0.0,0.0,0.0,0.0,0.0,0.0,0.0,0.0,0.0,0.0,0.0,0.0,0.0,0.0,0.0,0.0,0.0,0.0,0.0,0.0,0.0,0.0,0.0,0.0,0.0,0.0,0.0,0.0,0.0,0.0,0.0,0.0,0.0,0.0,0.0,0.0,0.0,0.0,0.0,0.0,0.0,0.0,0.0,0.0,0.0,0.0,0.0,0.0,0.0,0.0,0.0,0.0,0.0,0.0,0.0,0.0,0.0,0.0,0.0,0.0,0.0,0.0,0.0,0.0,0.0,0.0,0.0,0.0,0.0,0.0,0.0,0.0,0.0,0.0,0.0,0.0,0.0,0.0,0.0,0.0,0.0,0.0,0.0,0.0,0.0,0.0,0.0,0.0,0.0,0.0,0.0,0.0,0.0,0.0,0.0,0.0,0.0,0.0,0.0,0.0,0.0,0.0,0.0,0.0,0.0,0.0,0.0,0.0,0.0,0.0,0.0,0.0,0.0,0.0,0.0,0.0,0.0,0.0,0.0,0.0,0.0,0.0,0.0,0.0,0.0,0.0,0.0,0.0,0.0,0.0,0.0,0.0,0.0,0.0,0.0,0.0,0.0,0.0,0.0,0.0,0.0,0.0,0.0,0.0,0.0,0.0,0.0,0.0,0.0,0.0,0.0,0.0,0.0,0.0,0.0,0.0,0.0,0.0,0.0,0.0,0.0,0.0,0.0,0.0,0.0,0.0,0.0,0.0,0.0,0.0,0.0,0.0,0.0,0.0,0.0,0.0,0.0,0.0,0.0,0.0,0.0,0.0,0.0,0.0,0.0,0.0,0.0,0.0,0.0,0.0,0.0,0.0,0.0,0.0,0.0,0.0,0.0,0.0,0.0,0.0,0.0,0.0,0.0,0.0,0.0,0.0,0.0,0.0,0.0,0.0,0.0,0.0,0.0,0.0,0.0,0.0,0.0,0.0,0.0,0.0,0.0,0.0,0.0,0.0,0.0,0.0,0.0,0.0,0.0,0.0,0.0,0.0,0.0,0.0,0.0,0.0,0.0,0.0,0.0,0.0,0.0,0.0,0.0,0.0,0.0,0.0,0.0,0.0,0.0,0.0,0.0,0.0,0.0,0.0,0.0,0.0,0.0,0.0,0.0,0.0,0.0,0.0,0.0,0.0,0.0,0.0,0.0,0.0,0.0,0.0,0.0,0.0,0.0,0.0,0.0,0.0,0.0,0.0,0.0,0.0,0.0,0.0,0.0,0.0,0.0,0.0,0.0,0.0,0.0,0.0,0.0,0.0,0.0,0.0,0.0,0.0,0.0,0.0,0.0,0.0,0.0,0.0,0.0,0.0,0.0,0.0,0.0,0.0,0.0,0.0,0.0,0.0,0.0,0.0,0.0,0.0,0.0,0.0,0.0,0.0,0.0,0.0,0.0,0.0,0.0,0.0,0.0,0.0,0.0,0.0,0.0,0.0,0.0,0.0,0.0,0.0,0.0,0.0,0.0,0.0,0.0,0.0,0.0,0.0,0.0,0.0,0.0,0.0,0.0,0.0,0.0,0.0,0.0,0.0,0.0,0.0,0.0,0.0,0.0,0.0,0.0,0.0,0.0,0.0,0.0,0.0,0.0,0.0,0.0,0.0,0.0,0.0,0.0,0.0,0.0,0.0,0.0,0.0,0.0,0.0,0.0,0.0,0.0,0.0,0.0,0.0,0.0,0.0,0.0,0.0,0.0,0.0,0.0,0.0,0.0,0.0,0.0,0.0,0.0,0.0,0.0,0.0,0.0,0.0,0.0,0.0,0.0,0.0,0.0,0.0,0.0,0.0,0.0,0.0,0.0,0.0,0.0,0.0,0.0,0.0,0.0,0.0,0.0,0.0,0.0,0.0,0.0,0.0,0.0,0.0,0.0,0.0,0.0,0.0,0.0,0.0,0.0,0.0,0.0,0.0,0.0,0.0,0.0,0.0,0.0,0.0,0.0,0.0,0.0,0.0,0.0,0.0,0.0,0.0,0.0,0.0,0.0,0.0,0.0,0.0,0.0,0.0,0.0,0.0,0.0,0.0,0.0,0.0,0.0,0.0,0.0,0.0,0.0,0.0,0.0,0.0,0.0,0.0,0.0,0.0,0.0,0.0,0.0,0.0,0.0,0.0,0.0,0.0,0.0,0.0,0.0,0.0,0.0,0.0,0.0,0.0,0.0,0.0,0.0,0.0,0.0,0.0,0.0,0.0,0.0,0.0,0.0,0.0,0.0,0.0,0.0,0.0,0.0,0.0,0.0,0.0,0.0,0.0,0.0,0.0,0.0,0.0,0.0,0.0,0.0,0.0,0.0,0.0,0.0,0.0,0.0,0.0,0.0,0.0,0.0,0.0,0.0,0.0,0.0,0.0,0.0,0.0,0.0,0.0,0.0,0.0,0.0,0.0,0.0,0.0,0.0,0.0,0.0,0.0,0.0,0.0,0.0,0.0,0.0,0.0,0.0,0.0,0.0,0.0,0.0,0.0,0.0,0.0,0.0,0.0,0.0,0.0,0.0,0.0,0.0,0.0,0.0,0.0,0.0,0.0,0.0,0.0,0.0,0.0,0.0,0.0,0.0,0.0,0.0,0.0,0.0,0.0,0.0,0.0,0.0,0.0,0.0,0.0,0.0,0.0,0.0,0.0,0.0,0.0,0.0,0.0,0.0,0.0,0.0,0.0,0.0,0.0,0.0,0.0,0.0,0.0,0.0,0.0,0.0,0.0,0.0,0.0,0.0,0.0,0.0,0.0,0.0,0.0,0.0,0.0,0.0,0.0,0.0,0.0,0.0,0.0,0.0,0.0,0.0,0.0,0.0,0.0,0.0,0.0,0.0,0.0,0.0,0.0,0.0,0.0,0.0,0.0,0.0,0.0,0.0,0.0,0.0,0.0,0.0,0.0,0.0,0.0,0.0,0.0,0.0,0.0,0.0,0.0,0.0,0.0,0.0,0.0,0.0,0.0,0.0,0.0,0.0,0.0,0.0,0.0,0.0,0.0,0.0,0.0,0.0,0.0,0.0,0.0,0.0,0.0,0.0,0.0,0.0,0.0,0.0,0.0,0.0,0.0,0.0,0.0,0.0,0.0,0.0,0.0,0.0,0.0,0.0,0.0,0.0,0.0,0.0,0.0,0.0,0.0,0.0,0.0,0.0,0.0,0.0,0.0,0.0,0.0,0.0,0.0,0.0,0.0,0.0,0.0,0.0,0.0,0.0,0.0,0.0,0.0,0.0,0.0,0.0,0.0,0.0,0.0,0.0,0.0,0.0,0.0,0.0,0.0,0.0,0.0,0.0,0.0,0.0,0.0,0.0,0.0,0.0,0.0,0.0,0.0,0.0,0.0,0.0,0.0,0.0,0.0,0.0,0.0,0.0,0.0,0.0,0.0,0.0,0.0,0.0,0.0,0.0,0.0,0.0,0.0,0.0,0.0,0.0,0.0,0.0,0.0,0.0,0.0,0.0,0.0,0.0,0.0,0.0,0.0,0.0,0.0,0.0,0.0,0.0,0.0,0.0,0.0,0.0,0.0,0.0,0.0,0.0,0.0,0.0,0.0,0.0,0.0,0.0,0.0,0.0,0.0,0.0,0.0,0.0,0.0,0.0,0.0,0.0,0.0,0.0,0.0,0.0,0.0,0.0,0.0,0.0,0.0,0.0,0.0,0.0,0.0,0.0,0.0,0.0,0.0,0.0,0.0,0.0,0.0,0.0,0.0,0.0,0.0,0.0,0.0,0.0,0.0,-3.1603,0.0,0.0,0.0,0.0,0.0,0.0,0.0,0.0,0.0,0.0,0.0,0.0,0.0,0.0,0.0,0.0,0.0,0.0,0.0,0.0,0.0,0.0,0.0,0.0,0.0,0.0,0.0,0.0,0.0,0.0,0.0,0.0,0.0,0.0,0.0,-1.7582,-1.7435,-1.7355,-1.7355,-1.7221,-1.6914,-1.6486,-1.6633,-1.678,-1.6927,0.0,0.0,0.0,0.0,0.0,0.0,0.0,0.0,0.0,0.0,0.0,0.0,0.0,0.0,0.0,0.0,0.0,0.0,0.0,0.0,0.0,0.0,0.0,0.0,0.0,0.0,0.0,0.0,0.0,0.0,0.0,0.0,0.0,0.0,0.0,0.0,0.0,0.0,0.0,0.0,0.0,0.0,0.0,0.0,0.0,0.0,0.0,0.0,0.0,0.0,0.0,0.0,0.0,0.0,0.0,0.0,0.0,0.0,0.0,0.0,0.0,0.0,0.0,0.0,0.0,0.0,0.0,0.0,0.0,0.0,0.0,-3.3935,0.0,0.0,0.0,0.0,0.0,0.0,0.0,0.0,0.0,0.0,0.0,0.0,0.0,0.0,0.0,0.0,0.0,0.0,0.0,0.0,0.0,0.0,0.0,-1.5944,-1.6847,-1.7194,-1.7448,-1.7582,0.0,0.0,0.0,0.0,0.0,-1.7582,-1.7582,-1.7582,-1.7555,-1.7502,-1.7208,-1.6941,-1.6714,-1.6807,-1.6994,-1.7248,-1.7635,0.0,0.0,0.0,0.0,0.0,0.0,0.0,0.0,0.0,0.0,0.0,0.0,0.0,0.0,0.0,0.0,0.0,0.0,0.0,0.0,0.0,0.0,0.0,0.0,0.0,0.0,0.0,0.0,0.0,0.0,0.0,0.0,0.0,0.0,0.0,0.0,0.0,0.0,0.0,0.0,0.0,0.0,0.0,0.0,0.0,0.0,0.0,0.0,0.0,0.0,0.0,0.0,0.0,0.0,0.0,0.0,0.0,0.0,0.0,0.0,0.0,0.0,0.0,-3.4129,-3.4852,-3.5669,-3.6445,-3.727,-3.8083,-3.6938,-3.6064,-3.5489,0.0,0.0,0.0,0.0,0.0,0.0,0.0,0.0,0.0,0.0,0.0,0.0,0.0,0.0,0.0,0.0,0.0,0.0,0.0,0.0,0.0,0.0,-1.6573,-1.6927,-1.7475,-1.7555,-1.7582,-1.7582,0.0,-1.7582,-1.7582,-1.7582,-1.7582,-1.7582,-1.7582,-1.7462,-1.7208,-1.6914,-1.674,-1.6714,-1.7235,-1.7488,-1.7502,-1.7074,-1.7275,-1.7903,0.0,0.0,0.0,0.0,0.0,0.0,0.0,0.0,0.0,0.0,0.0,0.0,0.0,0.0,0.0,0.0,0.0,0.0,0.0,0.0,0.0,0.0,0.0,0.0,0.0,0.0,0.0,0.0,0.0,0.0,0.0,0.0,0.0,0.0,0.0,0.0,0.0,0.0,0.0,0.0,0.0,-2.3066,-2.3524,0.0,0.0,0.0,0.0,0.0,0.0,0.0,0.0,0.0,0.0,0.0,0.0,0.0,0.0,-3.3317,-3.499,-3.5644,-3.5175,-3.5829,-3.6261,-3.6394,-3.7277,-3.8344,-3.9674,-4.0856,0.0,-3.9242,-3.8097,0.0,0.0,0.0,0.0,0.0,0.0,0.0,0.0,0.0,0.0,0.0,0.0,0.0,0.0,0.0,0.0,0.0,0.0,0.0,0.0,0.0,-1.6607,-1.6807,-1.7061,-1.7555,-1.7702,-1.7355,-1.7809,-1.7943,-1.7595,-1.7582,-1.7582,-1.7582,-1.7422,-1.7194,-1.6901,-1.6941,-1.6954,-1.6967,-1.7569,-1.7836,-1.7822,-1.7742,-1.7742,-1.7769,-1.7502,0.0,0.0,0.0,0.0,0.0,0.0,0.0,0.0,0.0,0.0,0.0,0.0,0.0,0.0,0.0,0.0,0.0,0.0,0.0,0.0,0.0,0.0,0.0,0.0,0.0,0.0,0.0,0.0,0.0,0.0,0.0,0.0,0.0,0.0,0.0,0.0,0.0,0.0,0.0,-2.4341,-2.5385,-2.5509,-2.6703,-2.7556,0.0,0.0,0.0,0.0,0.0,0.0,0.0,0.0,0.0,-3.3366,-3.408,-3.4751,-3.5369,-3.6454,-3.7045,-3.7135,-3.7823,-3.8123,-3.8192,-3.9565,-4.0702,-4.1756,-4.3489,-4.3842,-4.3132,-4.1157,-4.0236,-3.9969,0.0,0.0,0.0,0.0,0.0,-3.8656,0.0,0.0,0.0,0.0,0.0,0.0,0.0,0.0,0.0,0.0,0.0,0.0,-1.6473,-1.6754,-1.6994,-1.7154,-1.7702,-1.7889,-1.7515,-1.7903,-1.7983,-1.7595,-1.7582,-1.7582,-1.7582,-1.7368,-1.7114,-1.682,-1.7275,-1.7488,-1.7515,-1.8183,-1.849,-1.8477,-1.8718,-1.8531,-1.8023,-1.7716,-1.7422,-1.7141,0.0,0.0,0.0,0.0,0.0,0.0,0.0,0.0,0.0,0.0,0.0,0.0,0.0,0.0,0.0,0.0,0.0,0.0,0.0,0.0,0.0,0.0,0.0,0.0,0.0,0.0,0.0,0.0,0.0,0.0,0.0,0.0,0.0,0.0,0.0,0.0,0.0,-2.5543,-2.6917,-2.6738,-2.8235,-2.9413,0.0,0.0,0.0,0.0,0.0,0.0,-3.3776,-3.4502,-3.502,-3.5369,-3.5963,-3.6567,-3.7225,-3.7853,-3.8422,-3.8901,-3.9589,-4.0008,-4.0231,-4.1826,-4.2909,-4.3714,-4.5463,-4.6177,-4.5805,-4.3504,-4.1914,-4.0848,-3.9854,-3.9964,-4.0594,-3.9781,-4.0349,-4.1464,0.0,0.0,0.0,0.0,0.0,0.0,0.0,0.0,0.0,0.0,0.0,-1.6166,-1.7021,-1.7368,-1.7769,-1.8343,-1.8183,-1.8156,-1.841,-1.7662,-1.7328,-1.7569,-1.7582,-1.7582,-1.7582,-1.7569,-1.7422,-1.7128,-1.7996,-1.8424,-1.8437,-1.9305,-1.9706,-1.9706,-1.9733,-1.9559,-1.9199,-1.8063,-1.7903,-1.8303,-1.7168,0.0,0.0,0.0,0.0,0.0,0.0,0.0,0.0,0.0,0.0,0.0,0.0,0.0,0.0,0.0,0.0,0.0,0.0,0.0,0.0,0.0,0.0,0.0,0.0,0.0,0.0,0.0,0.0,0.0,0.0,0.0,0.0,0.0,0.0,0.0,0.0,0.0,0.0,-2.5172,-2.8282,0.0,0.0,0.0,0.0,-3.3739,-3.4421,-3.5473,-3.7049,-3.7246,-3.7814,-3.9098,-3.8571,-3.8571,-3.926,-3.9918,-4.0277,-4.0307,-4.0965,-4.1624,-4.2269,-4.349,-4.4381,-4.5122,-4.6995,-4.7394,-4.6549,-4.4282,-4.3301,-4.3098,-4.1659,-4.192,-4.3034,-4.2306,-4.2732,-4.3628,0.0,0.0,0.0,0.0,0.0,0.0,0.0,0.0,-1.5939,-1.6233,-1.6179,-1.6526,-1.7609,-1.7635,-1.7903,-1.8704,-1.8851,-1.8784,-1.8504,-1.837,-1.817,-1.7889,-1.7876,-1.7876,-1.7876,-1.7502,-1.7542,-1.8009,-1.8517,-1.8958,-1.9345,-2.004,-2.0361,-2.0374,-2.0561,-2.0481,-2.012,-1.8744,-1.8063,-1.7849,-1.7235,-1.682,0.0,0.0,0.0,0.0,0.0,0.0,0.0,0.0,0.0,0.0,0.0,0.0,0.0,0.0,0.0,0.0,0.0,0.0,0.0,0.0,0.0,0.0,0.0,0.0,0.0,0.0,0.0,0.0,0.0,0.0,0.0,0.0,0.0,0.0,0.0,0.0,0.0,-2.8667,-3.1345,0.0,-3.46,-3.4512,-3.5292,-3.7311,-3.7689,-3.8068,-3.8691,-3.8691,-3.911,-4.0008,-3.9798,-4.0217,-4.1294,-4.1534,-4.1863,-4.2282,-4.2521,-4.2761,-4.3049,-4.4714,-4.5565,-4.5891,-4.7761,-4.8477,-4.8105,-4.6853,-4.5737,-4.4846,-4.4213,-4.4555,-4.5316,-4.5543,-4.608,-4.6681,0.0,0.0,0.0,0.0,0.0,0.0,0.0,0.0,-1.5939,-1.6233,-1.6366,-1.6834,-1.7929,-1.813,-1.8544,-1.9439,-1.9426,-1.9239,-1.8958,-1.8637,-1.8303,-1.7903,-1.7889,-1.7836,-1.7742,-1.7742,-1.8036,-1.8637,-1.9225,-1.972,-2.0107,-2.0601,-2.0882,-2.0975,-2.1176,-2.1203,-2.1042,-1.9973,-1.9011,-1.813,-1.7542,-1.7301,-1.7221,0.0,0.0,0.0,0.0,0.0,0.0,0.0,0.0,0.0,0.0,0.0,0.0,0.0,0.0,0.0,0.0,0.0,0.0,0.0,0.0,0.0,0.0,0.0,0.0,0.0,0.0,0.0,0.0,0.0,0.0,0.0,0.0,0.0,0.0,0.0,-3.1089,-3.0922,-3.3498,-3.5647,-3.6626,-3.6824,-3.7563,-3.9266,-4.0055,-4.0397,-4.0397,-4.0636,-4.1025,-4.1713,-4.1299,-4.1715,-4.3,-4.2574,-4.2693,-4.3329,-4.3935,-4.4182,-4.4261,-4.6167,-4.7017,-4.7119,-4.8656,-4.9357,-4.9323,-4.8849,-4.8071,-4.7115,-4.6302,-4.6361,-4.6885,-4.737,-4.7958,-4.8436,0.0,0.0,0.0,0.0,0.0,0.0,0.0,-1.5832,-1.5939,-1.6233,-1.6526,-1.7048,-1.7969,-1.8851,-1.9733,-2.0628,-1.9907,-1.9519,-1.98,-1.8424,-1.7595,-1.7609,-1.7595,-1.7475,-1.7338,-1.8357,-1.8945,-1.8985,-2.012,-2.0681,-2.0695,-2.0989,-2.1269,-2.155,-2.1563,-2.1724,-2.1964,-2.1683,-2.0748,-1.9345,-1.813,-1.7983,-1.8343,0.0,0.0,0.0,0.0,0.0,0.0,0.0,0.0,0.0,0.0,0.0,0.0,0.0,0.0,0.0,0.0,0.0,0.0,0.0,0.0,0.0,0.0,0.0,0.0,0.0,0.0,0.0,0.0,0.0,0.0,0.0,0.0,0.0,-2.7363,-3.0197,-3.207,-3.1615,-3.4435,-3.6472,-3.6217,-3.7416,-3.8587,-3.9562,-4.1391,-4.2462,-4.2462,-4.306,-4.3608,-4.4236,-4.3102,-4.3102,-4.4265,-4.3102,-4.2782,-4.3359,-4.5064,-4.588,-4.5957,-4.7831,-4.8726,-4.8793,-4.9718,-5.0101,-5.0101,-5.0101,-5.0067,-4.9893,-4.7759,-4.7307,-4.785,-4.785,-4.8295,-4.8848,0.0,0.0,0.0,0.0,0.0,0.0,-1.5832,-1.5832,-1.5939,-1.6233,-1.6526,-1.7208,-1.8531,-1.9279,-2.012,-2.1216,-2.0508,-2.0027,-2.0107,-1.8731,-1.8009,-1.8237,-1.7822,-1.805,-1.9052,-1.9185,-1.9559,-2.0201,-2.0521,-2.0788,-2.1002,-2.1296,-2.147,-2.1563,-2.1777,-2.1911,-2.1977,-2.1897,-2.163,-2.1149,-1.9746,-1.8784,-1.8211,0.0,0.0,0.0,0.0,0.0,0.0,0.0,0.0,0.0,0.0,0.0,0.0,0.0,0.0,0.0,0.0,0.0,0.0,0.0,0.0,0.0,0.0,0.0,0.0,0.0,0.0,0.0,0.0,0.0,0.0,0.0,-2.8041,-2.9273,-2.9683,-3.2156,-3.4396,-3.5437,-3.7117,-3.8532,-3.9302,-4.015,-4.1128,-4.2252,-4.3661,-4.4496,-4.4496,-4.4646,-4.4383,-4.3658,-4.4196,-4.4225,-4.3658,-4.4196,-4.4347,-4.4047,-4.5001,-4.5593,-4.5957,-4.7627,-4.879,-4.9519,-5.0456,-5.0574,-5.0101,-5.0101,-5.01,-5.0021,-4.9931,-5.003,-5.0294,-5.1275,-5.181,-5.1871,0.0,0.0,0.0,0.0,0.0,0.0,-1.5832,-1.5832,-1.5885,-1.6072,-1.678,-1.7649,-1.8637,-1.9599,-2.0494,-2.1296,-2.0561,-2.0,-1.988,-1.8731,-1.8063,-1.8103,-1.813,-1.8611,-1.9599,-1.9693,-2.004,-2.0681,-2.0922,-2.1122,-2.1296,-2.1603,-2.1804,-2.1924,-2.2084,-2.2311,-2.2539,-2.2405,-2.2352,-2.2405,-2.2159,-2.1413,-2.0557,-2.0464,-2.1124,-2.2143,-2.2673,-2.337,-2.3931,-2.342,0.0,0.0,0.0,0.0,0.0,0.0,0.0,0.0,0.0,0.0,0.0,0.0,0.0,0.0,0.0,0.0,0.0,0.0,0.0,0.0,0.0,0.0,0.0,0.0,-2.9928,-3.1638,-3.2861,-3.4413,-3.5956,-3.7362,-3.8517,-3.9677,-4.092,-4.1924,-4.2914,-4.4177,-4.54,-4.6022,-4.5753,-4.5723,-4.5158,-4.3891,-4.4529,-4.4529,-4.3803,-4.4529,-4.4832,-4.4736,-4.6284,-4.7169,-4.7454,-4.9199,-5.0245,0.0,-5.1427,-5.142,-5.1078,-5.1361,-5.1313,0.0,0.0,0.0,0.0,0.0,-5.2509,-5.2623,0.0,0.0,0.0,0.0,0.0,0.0,-1.5832,-1.5832,-1.5832,-1.5832,-1.7101,-1.8103,-1.8357,-1.9706,-2.0722,-2.1082,-2.0281,-1.9613,-1.9292,-1.8464,-1.7929,-1.7796,-1.8584,-1.9172,-1.9506,-2.0054,-2.0454,-2.0722,-2.1243,-2.1523,-2.1563,-2.1844,-2.2138,-2.2418,-2.2458,-2.2792,-2.33,-2.2993,-2.3036,-2.3475,-2.4744,-2.468,-2.3843,-2.2905,-2.435,-2.7074,-2.6683,-2.688,-2.7226,-2.6758,0.0,0.0,0.0,0.0,0.0,0.0,0.0,0.0,0.0,0.0,0.0,0.0,0.0,0.0,0.0,0.0,0.0,0.0,0.0,0.0,0.0,0.0,0.0,0.0,-3.1908,-3.4098,-3.6257,-3.6634,-3.7086,-3.8165,-3.917,-4.0262,-4.1597,-4.2846,-4.4059,-4.5298,-4.655,-4.704,-4.6471,0.0,0.0,0.0,0.0,-4.4671,-4.4464,-4.4671,-4.5053,-4.5642,-4.8122,-4.9405,-4.9608,-5.1422,-5.2302,-5.2435,-5.2435,-5.2467,-5.2462,-5.3191,-5.3133,-5.2381,-5.085,-5.0751,-5.1485,-5.1378,-5.1741,0.0,0.0,0.0,0.0,0.0,0.0,0.0,-1.5832,-1.5832,-1.5832,-1.5832,-1.6901,-1.7689,-1.7756,-1.9078,-2.0281,-2.1042,-2.0094,-1.9225,-1.8691,-1.8036,-1.8076,-1.8985,-1.9412,-1.988,-2.0414,-2.0762,-2.0962,-2.1029,-2.1136,-2.1323,-2.1563,-2.1844,-2.2138,-2.2432,-2.2672,-2.2979,-2.33,-2.2993,-2.408,-2.5864,-2.5951,-2.508,-2.4085,-2.5982,-2.6725,-2.7048,-2.7701,-2.8397,-2.8965,-2.8184,-2.8262,-2.8496,-2.7383,-2.6621,0.0,0.0,0.0,0.0,0.0,0.0,0.0,0.0,0.0,0.0,0.0,0.0,0.0,0.0,0.0,0.0,0.0,0.0,0.0,-3.152,-3.358,-3.568,-3.7437,-3.809,-3.8793,-3.9898,-4.0224,-4.0847,-4.2102,-4.3345,-4.4506,-4.5355,-4.655,-4.7249,-4.713,-4.713,0.0,-4.5216,-4.6168,-4.6256,-4.5216,-4.6256,-4.6966,-4.7311,0.0,0.0,-5.0659,-5.1569,-5.2463,-5.3281,-5.3281,-5.327,-5.3314,-5.3437,-5.3774,-5.4,-5.2337,-5.2557,-5.3644,-5.3024,-5.3083,-5.3454,0.0,0.0,0.0,0.0,0.0,0.0,-1.5832,-1.5832,-1.5832,-1.5832,-1.6727,-1.7368,-1.7368,-1.8437,-1.9252,-1.9533,-1.8891,-1.8357,-1.805,-1.817,-1.8718,-1.976,-2.0227,-2.0735,-2.1323,-2.147,-2.155,-2.155,-2.1697,-2.1844,-2.1991,-2.2285,-2.2498,-2.2645,-2.2792,-2.3113,-2.3527,-2.4302,-2.5455,-2.6979,-2.8575,-2.8693,-2.8101,-2.9136,-2.9738,-2.9865,-3.0374,-3.041,-3.0137,-2.9473,-2.9238,-2.9101,-2.8242,-2.7539,-2.6894,0.0,0.0,0.0,0.0,0.0,0.0,0.0,0.0,0.0,0.0,0.0,0.0,0.0,0.0,-2.9141,-2.9666,0.0,-3.2607,-3.3686,-3.5481,-3.7161,-3.8291,-3.917,-3.9898,-4.045,-4.0848,-4.1771,-4.3714,-4.4775,-4.5657,-4.6246,-4.7199,-4.7495,-4.6814,-4.7109,-4.6726,-4.5389,-4.6638,-4.6726,-4.5389,-4.6638,-4.7667,-4.8314,-4.9219,-5.0249,-5.1432,-5.2287,-5.3008,-5.3484,-5.3881,-5.4058,-5.4079,-5.4486,-5.5274,-5.615,-5.4464,-5.4062,-5.4406,-5.4142,-5.3977,-5.3869,0.0,0.0,0.0,0.0,0.0,0.0,0.0,-1.5832,-1.5832,-1.5832,-1.6553,-1.7048,-1.6981,-1.7729,-1.813,-1.7862,-1.7796,-1.7782,-1.7836,-1.8624,-1.9479,-2.0361,-2.0962,-2.1523,-2.2058,-2.2071,-2.2098,-2.2151,-2.2392,-2.2498,-2.2512,-2.2752,-2.2899,-2.2953,-2.3351,-2.3817,-2.452,-2.6111,-2.7339,-2.8538,-3.1251,-3.2728,-3.3108,-3.2643,-3.286,-3.3144,-3.2988,-3.2051,-3.084,-3.0547,-2.9824,-2.9023,-2.8848,-2.8496,-2.7969,-2.7031,-2.696,0.0,0.0,0.0,0.0,0.0,0.0,0.0,0.0,-2.8754,-2.9782,-2.9721,-3.0885,-3.2039,-3.2591,-3.3972,-3.5253,-3.5906,-3.7236,-3.8366,-3.8944,-3.9798,-4.0505,-4.079,-4.1568,-4.2911,-4.5117,-4.6158,-4.6951,-4.7543,-4.8176,-4.8,-4.6819,-4.7377,-4.7199,-4.6156,-4.7111,-4.7228,-4.6283,-4.7225,-4.8363,-4.9456,-5.032,-5.1229,-5.2241,-5.311,-5.3518,-5.3551,-5.4419,-5.4878,-5.5108,-5.5845,-5.6867,-5.785,-5.6565,-5.5625,-5.4981,-5.502,-5.4615,-5.4149,0.0,0.0,0.0,0.0,0.0,0.0,0.0,0.0,-1.5832,-1.5832,-1.6366,-1.666,-1.6406,-1.6927,-1.7288,-1.7248,-1.7943,-1.8504,-1.8758,-1.9359,-2.0094,-2.0975,-2.1577,-2.2044,-2.2365,-2.2378,-2.2498,-2.2766,-2.2792,-2.2819,-2.2819,-2.2846,-2.3006,-2.3273,-2.502,-2.6171,-2.6766,-2.8355,-3.0615,-3.3003,-3.3188,-3.4613,-3.6712,-3.6654,-3.5763,-3.4394,-3.3633,-3.2285,-3.0937,-3.1269,-3.0527,-2.9629,-3.0371,-3.0293,-2.9668,-2.8437,-2.7703,-2.7117,-2.6243,-2.6863,-2.7825,-2.8375,-2.8197,-2.8545,0.0,-3.0626,-3.0302,-3.2226,-3.3133,-3.3796,-3.4349,-3.5403,-3.6508,-3.7563,-3.8316,-3.8969,-3.9521,-3.9697,-4.0362,-4.203,-4.3203,-4.4246,-4.5228,-4.6923,-4.8312,-4.9012,-4.9104,-4.9164,-4.8954,-4.8985,-4.9045,-4.8835,-4.9045,-4.9159,-4.932,-4.9489,-5.0214,-5.1525,-5.1671,-5.2312,-5.3348,-5.345,-5.3518,-5.3551,-5.4999,-5.5948,-5.6721,-5.7473,-5.784,-5.796,-5.7813,-5.7463,-5.6958,-5.5508,-5.4999,-5.496,0.0,0.0,0.0,0.0,0.0,0.0,0.0,0.0,0.0,-1.5832,-1.6046,-1.6152,-1.6032,-1.6233,-1.638,-1.638,-1.7034,-1.7876,-1.8865,-1.9626,-2.1149,-2.3738,-2.4228,-2.5143,-2.6405,-2.6405,-2.6481,-2.6618,-2.6618,-2.6618,-2.6618,-2.6618,-2.6939,-2.7277,-2.8095,-2.8879,-2.9536,-3.1371,-3.2985,-3.4703,-3.5575,-3.6598,-3.7637,-3.7383,-3.6055,-3.4219,-3.3359,-3.2129,0.0,-3.0195,-2.9805,-2.9726,-3.0605,-3.0059,-2.8984,-2.8457,-2.7554,-2.6754,-2.6496,-2.6845,-2.7568,-2.9047,-2.9261,-2.9773,-3.2536,-3.2649,-3.2624,-3.4184,-3.4951,-3.5504,-3.6056,-3.7061,-3.7965,0.0,-3.8969,-3.9421,-3.9672,-3.9973,-4.0491,-4.1214,-4.2778,-4.463,-4.6812,-4.7749,-4.8635,-4.9735,-4.9872,-4.9604,-4.9303,-4.9278,-4.9254,-4.9254,-4.9254,-4.9428,-4.978,-4.9749,-5.0517,-5.1921,-5.1921,-5.2487,-5.3518,-5.3518,-5.3946,-5.4818,-5.5928,-5.6825,-5.7546,-5.7867,-5.7997,-5.8042,-5.8326,-5.8191,-5.7752,-5.7039,-5.6393,-5.5885,0.0,0.0,0.0,0.0,0.0,0.0,0.0,0.0,0.0,0.0,-1.5832,-1.5832,-1.5832,-1.5832,-1.5832,-1.5832,-1.6446,-1.7355,-1.8597,-1.9733,-2.1881,-2.5291,-2.5862,-2.7289,-2.9506,-2.9523,-2.9572,-2.9672,-2.9771,-2.9755,-2.9672,-2.991,-3.0093,-3.05,-3.092,-3.1611,-3.2457,-3.4215,-3.5569,-3.6311,-3.7663,-3.8203,-3.8027,-3.7383,-3.5703,-3.3613,-3.2754,-3.1309,-2.9668,-2.8711,-2.8437,-2.8691,-2.9687,-2.9219,-2.8223,-2.7871,-2.696,-2.6275,-2.6767,-2.715,-2.7888,-2.9759,-3.0567,-3.1552,-3.402,-3.4575,-3.4901,-3.6006,-3.6659,-3.7186,-3.7563,-3.8442,-3.9094,-3.9094,-3.9421,-3.9697,-3.9697,-3.9898,-4.0236,-4.0657,-4.1424,-4.3325,-4.7062,-4.7894,-4.8808,-5.0057,-5.0337,-5.0223,-4.9776,-4.9838,-4.9793,-4.9793,-5.0125,-5.038,-5.0528,-5.0825,-5.1417,-5.2312,-5.2312,-5.28,-5.3518,-5.3717,-5.4482,-5.578,-5.6563,-5.7351,-5.7997,-5.7997,-5.7997,-5.8042,-5.8545,-5.8615,-5.8484,-5.8618,-5.7794,-5.6613,0.0,0.0,0.0,0.0,0.0,0.0,0.0,0.0,0.0,0.0,0.0,0.0,0.0,-1.5832,-1.5832,-1.5832,-1.6633,-1.7395,-1.8009,-1.9693,-2.1923,-2.4774,-2.5755,-2.7398,-2.9887,-2.9904,-3.007,-3.0277,-3.0766,-3.0766,-3.0418,-3.0926,-3.1093,-3.1253,-3.3127,-3.4287,-3.503,-3.699,-3.8234,-3.9012,-3.916,-3.8926,-3.8418,-3.7168,-3.5078,-3.2715,-3.1855,-2.9648,-2.7129,-2.709,-2.6523,-2.6074,-2.7363,-2.8008,-2.8047,-2.6816,-2.5953,-2.5672,-2.6926,-2.8434,-2.9976,-3.1113,-3.2582,-3.4274,-3.5956,-3.6307,-3.6609,-3.7713,-3.8391,-3.8793,-3.8818,-3.927,-3.9672,-3.9672,-3.9697,-3.9697,-3.9697,-3.9245,-3.9371,-4.0649,-3.9257,-4.0114,0.0,-4.7211,-4.8843,-5.0087,-5.084,-5.1199,-5.1105,-5.1169,-5.1169,-5.1169,-5.2244,-5.259,-5.2252,-5.3278,-5.3705,-5.3416,-5.3416,-5.3484,-5.3484,-5.4264,-5.4999,-5.578,-5.6563,-5.7351,-5.7997,-5.7997,-5.7997,-5.8042,-5.8545,-5.8952,-5.942,-5.9878,-5.8757,-5.6973,0.0,0.0,0.0,0.0,0.0,0.0,0.0,0.0,0.0,0.0,0.0,0.0,0.0,0.0,0.0,0.0,-1.6286,-1.6901,-1.7675,-1.9212,-2.1324,-2.4094,-2.5514,-2.7836,-3.1484,-3.1731,-3.2606,-3.4566,-3.4696,-3.4845,-3.4975,-3.5526,-3.5861,-3.6141,-3.7005,-3.7754,-3.8307,-3.8922,-3.9219,-3.918,-3.8906,-3.8535,-3.7969,-3.6406,-3.4043,-3.1348,0.0,-2.7988,-2.6035,-2.5156,-2.4863,-2.5039,-2.6055,-2.6074,-2.5527,-2.4531,-2.5087,-2.6469,-2.7986,-2.9834,-3.1937,-3.4213,-3.5102,-3.5981,-3.7663,-3.804,-3.814,-3.8492,-3.814,-3.7638,-3.7262,-3.7362,-3.788,-3.9058,-3.9216,-3.955,-4.0792,-4.0763,-4.0841,-4.1233,-4.1153,0.0,0.0,0.0,0.0,-4.9213,-4.9347,-4.961,-5.0486,-5.0965,-5.1572,-5.2305,-5.2723,-5.3269,-5.4137,-5.4033,-5.4044,-5.4228,-5.3721,-5.3783,-5.4264,-5.4999,-5.5724,-5.6563,-5.7266,-5.7774,-5.7997,-5.7997,-5.815,-5.8508,-5.899,-5.9458,-5.9916,-6.0365,-5.9763,-5.8665,0.0,0.0,0.0,0.0,0.0,0.0,0.0,0.0,0.0,0.0,0.0,0.0,0.0,0.0,0.0,0.0,0.0,-1.6553,-1.7221,-1.8464,-2.0364,-2.3291,-2.4477,-2.6745,-3.0099,-3.0348,-3.1596,-3.3915,-3.4202,-3.4931,-3.5918,-3.6504,-3.7012,-3.7461,-3.7871,-3.8476,-3.918,-3.9023,-3.8789,-3.8437,-3.7539,-3.666,-3.5664,-3.3789,-3.1504,0.0,-2.748,-2.5996,-2.4687,-2.3848,-2.373,-2.4062,-2.5073,-2.529,-2.5118,-2.4959,-2.6344,-2.8299,-2.994,-3.2031,-3.425,-3.6368,-3.7111,-3.7588,-3.8868,-3.9019,-3.8743,-3.8341,-3.7538,-3.6659,-3.5906,-3.5881,-3.6493,-3.7883,-3.8152,-3.8974,-4.1281,-4.1221,-4.1309,-4.2158,-4.2095,-4.2772,0.0,0.0,0.0,-4.8486,-4.8909,-4.9289,-5.0135,-5.1259,-5.2154,-5.29,-5.3656,-5.4274,-5.4678,-5.4626,-5.4472,-5.4194,-5.3991,-5.4154,-5.4668,-5.5379,-5.6114,-5.6964,-5.7679,-5.7997,-5.7997,-5.8186,-5.8418,-5.8756,-5.9389,-5.9855,-6.0161,-6.0622,-6.0435,-5.9935,0.0,0.0,0.0,0.0,0.0,0.0,0.0,0.0,0.0,0.0,0.0,0.0,0.0,0.0,0.0,0.0,0.0,0.0,-1.6647,-1.7502,-1.9111,-2.1856,-2.2589,-2.3952,-2.6184,-2.6202,-2.7116,-2.8865,-2.9757,-3.117,-3.3049,-3.4011,-3.4634,-3.5082,-3.5625,-3.6504,-3.7598,-3.7207,-3.7012,-3.6816,-3.5137,-3.3496,-3.1797,-2.9668,-2.7832,-2.6211,-2.4922,-2.3887,-2.3212,-2.3144,-2.3144,-2.3387,-2.4573,-2.5673,-2.679,-2.7888,-2.9375,-3.1137,-3.2807,-3.4908,-3.6835,-3.7864,-3.8542,-3.9069,-3.9546,-3.9195,-3.8467,-3.7337,-3.6584,-3.578,-3.47,-3.4751,-3.5305,-3.6328,-3.6779,-3.8096,-4.1488,-4.0957,-4.114,0.0,0.0,-4.2298,0.0,0.0,0.0,-4.8029,0.0,-5.012,-5.0272,-5.1968,-5.2989,-5.3077,-5.5134,-5.5545,-5.4237,-5.5219,-5.504,-5.3619,-5.4262,-5.4597,-5.4765,-5.5379,-5.615,-5.7015,-5.7679,-5.7997,-5.8042,-5.8545,-5.8676,-5.8835,-5.976,-6.0132,-6.0189,-6.0622,-6.0781,-6.0666,0.0,0.0,0.0,0.0,0.0,0.0,0.0,0.0,0.0,0.0,0.0,0.0,0.0,0.0,0.0,0.0,0.0,0.0,-1.6046,-1.6887,-1.7684,-1.8415,-1.9459,-2.0974,-2.3225,-2.3478,-2.4727,-2.7151,-2.7481,-2.7935,-2.8796,-3.0285,-3.1095,-3.1227,-3.2556,-3.334,-3.3633,-3.3516,-3.3105,-3.2461,-3.166,-3.0898,-3.0059,-2.8555,-2.7324,-2.625,-2.5254,-2.4666,-2.4211,-2.3387,-2.3627,-2.4594,-2.6149,-2.6852,-2.7375,-2.8901,-3.111,-3.3407,-3.5112,-3.7464,-3.9521,-3.9798,-3.9998,-3.9923,-3.9245,-3.8316,-3.7287,-3.6182,-3.4198,-3.2441,-3.1788,-3.2028,-3.3436,-3.6793,-3.8408,-4.0656,-4.4621,-4.5355,-4.5572,-4.5709,-4.613,-4.6462,-4.6606,-4.6137,0.0,0.0,-4.8625,-4.8869,-5.0538,-5.2121,-5.3656,-5.5296,-5.5889,-5.6459,-5.6908,-5.6622,-5.6055,-5.5141,-5.4769,-5.5201,-5.6317,-5.5857,-5.6474,-5.7726,-5.795,-5.7997,-5.8042,-5.8545,-5.8913,-5.9284,-5.9885,-6.0311,-6.0622,-6.0757,-6.0781,-6.0781,0.0,0.0,0.0,0.0,0.0,0.0,0.0,0.0,0.0,0.0,0.0,0.0,0.0,0.0,0.0,0.0,0.0,0.0,0.0,-1.6299,-1.6633,-1.6754,-1.7408,-1.8355,-1.9575,-1.975,-2.1264,-2.4088,-2.4241,-2.4931,-2.6046,-2.7697,-2.8333,-2.8044,-2.9776,-3.0684,-3.1016,-3.082,-3.0351,0.0,0.0,-2.7871,-2.7187,-2.6094,-2.5371,-2.4902,-2.4394,-2.4424,-2.4871,-2.548,-2.6389,-2.7599,-2.8723,-2.9793,-3.0914,-3.2575,-3.4316,-3.6064,-3.7706,-3.9531,-4.0827,-4.0576,-4.0526,-4.0099,-3.8492,-3.7462,-3.6232,-3.4148,-3.2599,-3.1185,-2.9781,-3.0979,-3.3127,-3.6058,-3.8388,-4.1458,-4.5815,-4.698,-4.7637,-4.8072,-4.8743,-4.8895,-4.8237,-4.8177,-4.8914,0.0,-4.9637,-4.9824,-5.1924,-5.349,-5.4888,-5.6204,-5.6701,-5.6921,-5.6934,-5.6528,-5.5953,-5.5209,-5.5451,-5.5998,-5.6892,-5.6451,-5.6876,-5.7997,0.0,-5.7997,-5.8088,-5.8716,-5.9139,-5.9458,-6.0132,-6.0597,-6.0781,-6.0781,-6.0781,-6.0819,0.0,0.0,0.0,0.0,0.0,0.0,0.0,0.0,0.0,0.0,-1.5832,0.0,0.0,0.0,0.0,0.0,0.0,0.0,0.0,0.0,-1.5939,-1.6206,-1.6219,-1.6219,-1.6219,-1.6219,-1.748,-2.0134,-2.0638,-2.1807,-2.3681,-2.539,-2.585,-2.5222,-2.6883,-2.8027,-2.8691,-2.8301,-2.7949,-2.748,-2.5996,-2.4922,-2.416,0.0,-2.3144,-2.3144,-2.3474,-2.4211,-2.5508,-2.8471,-2.9963,-3.0778,-3.1769,-3.3408,-3.5303,-3.7086,-3.8015,-3.8818,-4.0501,-4.1304,-4.1505,-4.0902,-4.0626,-3.9898,-3.7513,-3.6433,-3.5027,-3.1838,-3.1292,-3.0794,-2.854,-3.0647,-3.3297,-3.514,-3.7643,-4.1222,-4.6152,-4.7311,-4.8231,-5.0087,-5.0361,-5.0122,-4.9464,-4.9404,-5.0213,-5.202,-5.1577,-5.202,-5.3873,-5.5371,-5.6282,-5.6437,-5.7372,-5.7273,-5.6021,-5.6021,-5.5719,-5.5213,-5.6398,-5.7025,-5.7206,-5.7065,-5.7375,-5.7997,0.0,0.0,-5.8051,-5.9028,-5.9389,-5.9492,-6.0456,-6.0781,-6.0781,-6.0781,-6.0819,-6.0819,0.0,0.0,0.0,0.0,0.0,0.0,0.0,0.0,0.0,0.0,-1.5832,-1.5832,0.0,0.0,0.0,0.0,0.0,0.0,0.0,0.0,0.0,-1.5899,-1.5912,-1.5912,-1.5912,-1.5912,-1.6116,-1.6633,-1.7814,-1.855,-1.8957,-2.1235,-2.2227,-2.2115,-2.3419,-2.4121,-2.4258,-2.418,-2.4102,-2.4004,-2.3711,-2.3496,-2.334,-2.3203,0.0,0.0,-2.5231,-2.6069,-2.6835,-3.0955,-3.1625,-3.1216,-3.4453,-3.5812,-3.6584,-3.917,-4.0325,-4.1128,-4.2785,-4.3313,-4.3137,-4.2133,-4.1178,-3.9697,-3.6533,-3.47,-3.2968,-3.0557,-2.9567,-2.8917,-2.849,-2.9654,-3.22,-3.6817,-3.8173,-4.103,-4.782,-4.8448,-4.8902,-5.0773,-5.105,-5.078,-5.0122,-5.0062,0.0,0.0,0.0,-5.3905,-5.566,-5.606,-5.6624,-5.7554,-5.7808,-5.778,-5.7509,-5.7509,-5.7803,-5.8356,-5.7971,-5.8141,-5.8754,-5.8159,-5.7919,-5.7997,0.0,0.0,-5.8051,-5.9028,-5.9389,-5.9492,-6.0456,-6.0781,-6.0781,-6.0781,-6.0858,-6.0973,0.0,0.0,0.0,0.0,0.0,0.0,0.0,-1.5578,-1.5551,-1.6005,-1.6192,-1.6166,-1.5858,-1.5832,-1.5832,0.0,0.0,0.0,0.0,0.0,0.0,0.0,-1.5832,-1.5832,-1.5832,-1.5832,-1.6466,-1.7762,0.0,-1.8948,-1.9588,-2.1391,-2.1943,-2.1391,-2.258,-2.3144,-2.3144,-2.3144,-2.3144,-2.3144,-2.3144,-2.3144,-2.3144,-2.3144,0.0,0.0,-2.4978,-2.5964,-2.7062,-3.0567,-3.1847,-3.2561,-3.6163,-3.7613,-3.8467,-4.0375,-4.1329,-4.2057,-4.3438,-4.4016,-4.389,-4.2509,-4.1329,-3.9496,-3.5579,-3.3621,-3.1838,-2.9051,-2.8838,-2.8946,-2.8252,-3.0211,-3.2936,-3.6086,-3.7596,-4.0469,-4.639,-4.7585,-4.8499,-5.0448,-5.1319,-5.172,-5.1637,-5.1576,-5.258,0.0,0.0,-5.5444,-5.6471,-5.6471,-5.6895,-5.7881,-5.7509,-5.734,-5.734,-5.734,-5.7737,-5.8522,-5.8148,-5.8414,-5.9186,-5.8391,-5.8044,-5.7997,-5.7997,0.0,-5.8051,-5.9028,-5.9389,-5.9492,-6.0456,-6.0781,-6.0781,-6.0781,-6.0858,-6.102,0.0,0.0,0.0,0.0,0.0,0.0,0.0,-1.5631,-1.5725,-1.638,-1.6714,-1.6673,-1.6086,-1.6019,-1.5965,0.0,0.0,0.0,0.0,0.0,0.0,0.0,0.0,0.0,-1.5832,0.0,0.0,-1.9131,-1.9405,0.0,0.0,0.0,0.0,0.0,-2.2687,-2.3144,-2.3144,-2.3144,-2.3144,0.0,0.0,-2.3144,0.0,0.0,0.0,0.0,0.0,-2.588,-2.7286,-3.0024,-3.181,-3.3395,-3.6383,-3.8316,-3.9747,-4.0827,-4.1806,-4.276,-4.3865,-4.4468,-4.4443,-4.2886,-4.143,-3.922,-3.4876,-3.2842,-3.104,-2.8033,-2.8598,-2.9361,-2.8444,-3.0848,-3.3495,-3.5185,-3.6611,-3.9284,-4.4534,-4.6066,-4.7584,-4.9881,-5.1289,-5.2208,-5.2874,-5.29,0.0,0.0,0.0,0.0,-5.6964,-5.7036,-5.7306,-5.7881,-5.7171,-5.6867,-5.7036,-5.6867,-5.7294,-5.8229,-5.8264,-5.8574,-5.918,-5.8567,-5.8143,-5.7997,-5.7997,0.0,0.0,-5.9028,-5.9389,-5.9492,-6.0456,-6.0781,-6.0781,-6.0819,-6.0935,-6.1081,0.0,0.0,0.0,0.0,0.0,0.0,0.0,-1.5805,-1.6099,-1.6954,-1.7328,-1.7275,-1.6687,-1.662,-1.6406,0.0,0.0,0.0,0.0,0.0,0.0,0.0,0.0,0.0,0.0,0.0,0.0,-1.787,-1.8948,0.0,0.0,0.0,0.0,0.0,0.0,-2.3144,-2.3144,-2.3144,0.0,0.0,0.0,0.0,0.0,0.0,0.0,0.0,0.0,-2.7035,-2.8322,-3.1141,-3.2156,-3.2616,-3.4449,-3.6835,-3.917,-4.0275,-4.2032,-4.389,-4.502,-4.5372,-4.5121,-4.394,-4.1706,-3.8743,-3.4801,-3.2265,-3.0163,-2.8108,-2.8444,-2.9247,-2.9964,-3.0754,-3.2431,-3.5829,-3.5325,-3.7042,-4.4281,-4.4936,-4.6016,-4.9729,-5.087,-5.1695,-5.2843,-5.29,0.0,0.0,0.0,0.0,-5.7673,-5.778,-5.7814,-5.7881,-5.7171,-5.7137,-5.778,-5.7137,-5.7603,-5.9107,-5.9097,-5.9163,-5.9223,-5.9124,-5.8694,-5.7997,-5.7997,0.0,0.0,-5.9028,-5.9389,-5.9492,-6.0456,-6.0781,-6.0819,-6.0935,-6.1112,-6.1304,0.0,0.0,0.0,0.0,0.0,0.0,-1.5418,-1.5418,-1.5818,-1.7221,-1.7515,-1.7569,-1.7515,-1.7341,-1.686,-1.5912,0.0,0.0,0.0,0.0,0.0,0.0,0.0,0.0,0.0,0.0,-1.6749,-1.878,-1.9222,0.0,0.0,0.0,0.0,0.0,0.0,-2.3144,-2.3144,-2.3144,0.0,0.0,0.0,0.0,0.0,0.0,0.0,0.0,0.0,0.0,-2.8363,-3.0189,-3.0984,-3.1311,-3.1637,-3.342,-3.5855,-3.8291,-4.035,-4.2208,-4.3991,-4.5221,-4.5623,-4.4166,-4.148,-3.8266,-3.47,-3.1662,-2.9201,-2.7941,-2.8363,-2.9254,-3.0147,-3.0862,-3.2077,-3.4319,-3.3797,-3.5001,-4.0412,-4.0944,-4.2823,-4.8218,-4.9488,-5.1188,0.0,0.0,0.0,0.0,0.0,0.0,-5.7239,-5.7239,-5.7442,-5.7881,-5.7171,-5.6934,-5.7239,-5.6987,-5.7374,-5.8556,-5.8467,-5.8734,-5.9208,-5.8694,-5.829,-5.7997,-5.7997,0.0,0.0,-5.9028,-5.9389,-5.9492,-6.0456,-6.0781,-6.0819,-6.0935,-6.1116,-6.1291,0.0,0.0,0.0,0.0,0.0,-1.4376,-1.5257,-1.5297,-1.5792,-1.7368,-1.7582,-1.7702,-1.8009,-1.7609,-1.6994,-1.6166,-1.5925,0.0,0.0,0.0,0.0,0.0,0.0,0.0,0.0,0.0,-1.7747,-1.9497,-1.9861,-2.1033,0.0,0.0,-2.3144,-2.3144,0.0,0.0,0.0,0.0,0.0,0.0,0.0,0.0,0.0,0.0,0.0,0.0,0.0,0.0,0.0,0.0,0.0,-3.0306,-2.9905,-3.0859,-3.2692,-3.568,-3.8191,-4.045,-4.2308,-4.4166,-4.5246,-4.389,-4.1078,-3.7789,-3.4625,-3.1311,-2.8718,-2.8213,-2.8556,-2.9317,-3.045,-3.1102,-3.1898,-3.3036,-3.2826,-3.3814,-3.7584,-3.8272,-4.0402,-4.5725,0.0,-4.933,0.0,-5.5049,0.0,0.0,0.0,0.0,0.0,-5.6799,-5.6934,-5.7239,-5.6528,-5.6258,-5.6461,-5.6503,-5.6892,-5.7742,-5.7944,-5.8304,-5.8841,-5.8253,-5.7997,-5.7997,0.0,0.0,0.0,-5.9028,-5.9389,-5.9492,-6.0456,-6.0819,-6.0858,-6.1012,-6.1031,-6.0925,0.0,0.0,0.0,0.0,0.0,0.0,-1.5257,-1.5631,-1.6246,-1.7435,-1.7582,-1.7702,-1.8009,-1.7248,-1.6714,-1.67,-1.6166,0.0,0.0,0.0,0.0,0.0,0.0,0.0,0.0,0.0,-1.9497,-1.9497,-2.0657,-2.1943,-2.3144,-2.3144,-2.3144,-2.3144,0.0,0.0,0.0,0.0,0.0,0.0,0.0,0.0,0.0,0.0,0.0,0.0,0.0,0.0,0.0,0.0,0.0,0.0,0.0,-2.9804,-3.0256,-3.2491,-3.5855,-3.912,-4.0249,-4.2158,-4.3689,-4.3137,-4.0475,-3.7287,-3.4525,-3.1311,-2.8937,-2.8975,-2.9002,-2.9504,-3.1161,-3.1482,-3.1691,-3.2407,-3.2527,-3.3664,-3.6956,-3.7973,-3.9379,0.0,0.0,-4.5743,-4.8786,0.0,0.0,0.0,0.0,0.0,0.0,-5.6799,-5.6461,-5.575,-5.5006,-5.4972,-5.5716,-5.5747,-5.6125,-5.6927,-5.7657,-5.7978,-5.7997,-5.7997,-5.7997,0.0,0.0,0.0,0.0,-5.9028,-5.9389,-5.9492,-6.0456,-6.0858,-6.1012,-6.1228,-6.0759,-6.0037,0.0,0.0,0.0,0.0,0.0,0.0,0.0,-1.5177,-1.5725,-1.7101,-1.7114,-1.7248,-1.7969,-1.7248,-1.67,-1.67,-1.6166,0.0,0.0,0.0,0.0,0.0,0.0,0.0,0.0,-1.8672,-1.9951,-2.0747,-2.1123,-2.1961,-2.3144,-2.3144,-2.3144,-2.3144,-2.3144,-2.3144,0.0,0.0,0.0,0.0,0.0,0.0,0.0,0.0,0.0,0.0,0.0,0.0,0.0,0.0,0.0,0.0,0.0,0.0,0.0,-2.9478,-3.2441,-3.5805,-3.7312,-3.8743,-3.9622,-3.8718,-3.6835,-3.4575,-3.219,-3.0369,-2.9206,-2.9022,-2.9442,-3.0208,-3.1278,-3.1482,-3.2048,-3.3604,-3.3484,-3.4023,-3.6447,-3.8354,-4.0485,-4.3156,-4.8433,-5.2313,0.0,0.0,0.0,0.0,0.0,0.0,0.0,-5.6055,-5.5953,-5.5716,-5.4972,-5.4941,-5.5678,-5.5672,-5.6113,-5.6868,-5.7665,-5.803,-5.7997,-5.7997,0.0,0.0,0.0,0.0,0.0,-5.9354,-5.9696,-5.9492,-6.0533,-6.0589,-6.014,-6.0344,-5.9881,-5.9176,0.0,0.0,0.0,0.0,0.0,0.0,0.0,-1.4963,-1.5418,-1.666,-1.6553,-1.6714,-1.7609,-1.6914,-1.646,-1.6687,-1.6166,0.0,0.0,0.0,0.0,0.0,0.0,0.0,-1.8411,-2.0042,-2.1105,-2.1536,-2.2152,-2.2801,-2.3379,-2.3555,-2.3457,-2.3144,-2.3144,-2.3144,0.0,0.0,0.0,0.0,0.0,0.0,-2.3144,0.0,0.0,0.0,0.0,0.0,0.0,0.0,0.0,0.0,0.0,0.0,0.0,0.0,-2.9829,-3.2164,-3.4248,-3.578,-3.6609,-3.5931,-3.4349,-3.2575,-3.1055,-2.9891,-2.9118,-2.9449,-2.9936,-3.0451,-3.1008,-3.1302,-3.1839,-3.2826,-3.2856,-3.3365,-3.51,0.0,0.0,-4.4177,0.0,0.0,0.0,0.0,0.0,0.0,0.0,0.0,0.0,-5.5446,-5.5175,-5.4905,-5.4702,-5.4792,-5.5299,-5.5857,-5.6421,-5.6912,-5.7679,-5.7997,-5.7997,-5.7997,0.0,0.0,0.0,0.0,0.0,-5.9592,-5.9962,-5.9809,-6.0674,-6.0538,-5.9827,-5.9968,-5.9205,-5.8256,0.0,0.0,0.0,0.0,0.0,0.0,0.0,-1.495,-1.5271,-1.6099,-1.5992,-1.6139,-1.6967,-1.6326,-1.6046,-1.6593,-1.6139,0.0,0.0,0.0,0.0,0.0,0.0,0.0,-1.9588,-2.1943,-2.279,-2.208,-2.3629,-2.4199,-2.3809,-2.4258,-2.4004,-2.3184,-2.3184,-2.3164,-2.3144,-2.3144,-2.3144,-2.3144,-2.3144,-2.3144,0.0,0.0,0.0,0.0,0.0,0.0,0.0,0.0,0.0,0.0,0.0,0.0,0.0,0.0,0.0,0.0,0.0,-3.3043,-3.4248,-3.4198,-3.2667,-3.1099,-3.0771,-2.9645,0.0,-3.0017,-3.03,-3.0366,-3.0619,-3.1061,-3.127,-3.0851,-3.124,-3.2078,0.0,-3.6415,0.0,0.0,-4.7448,0.0,0.0,0.0,0.0,0.0,0.0,0.0,0.0,-5.4972,-5.433,-5.3585,-5.4264,-5.4695,-5.4695,-5.615,-5.6912,-5.6912,-5.7679,-5.7997,-5.795,-5.7997,0.0,0.0,0.0,0.0,0.0,-5.9728,-6.0167,-6.0365,-6.0764,-6.0512,-5.9881,-5.9843,-5.8666,-5.7247,0.0,0.0,0.0,0.0,0.0,0.0,0.0,0.0,0.0,0.0,-1.5738,-1.5912,-1.6112,-1.5952,-1.5885,0.0,0.0,0.0,0.0,0.0,0.0,0.0,0.0,0.0,-2.0836,-2.2315,-2.3008,-2.284,-2.3861,-2.4199,-2.3809,-2.457,-2.4453,-2.3633,-2.3633,-2.3457,-2.3144,-2.3144,-2.3144,-2.3144,-2.3144,-2.3144,0.0,0.0,0.0,0.0,-2.7097,-2.7892,0.0,0.0,0.0,0.0,0.0,0.0,0.0,0.0,-2.7143,-2.762,-2.8273,0.0,-2.9553,-2.9126,-2.895,-2.8648,0.0,-2.8554,-2.946,-2.9303,-2.9925,-3.0773,-3.181,-3.0941,-3.0821,-3.3155,-3.2826,-3.3126,-3.5523,0.0,0.0,-4.7226,0.0,0.0,0.0,0.0,0.0,0.0,0.0,0.0,0.0,-5.4668,-5.4532,-5.4362,-5.5059,-5.5437,-5.5437,-5.6421,-5.6912,-5.6912,-5.7679,-5.7726,-5.7202,-5.7726,0.0,0.0,0.0,0.0,-5.9286,-5.9988,-6.0258,-6.0327,-6.038,-5.9813,-5.8906,-5.8258,-5.7235,-5.6335,0.0,0.0,0.0,0.0,0.0,0.0,0.0,0.0,0.0,0.0,-1.5538,-1.5685,-1.5818,-1.5832,-1.5832,0.0,0.0,0.0,0.0,0.0,0.0,0.0,0.0,-2.0854,-2.212,-2.2775,-2.3242,-2.3437,-2.4102,-2.4297,-2.4082,-2.4551,-2.4414,-2.3789,-2.3574,-2.3359,-2.3144,-2.3144,-2.3144,-2.3144,-2.3144,0.0,0.0,0.0,0.0,0.0,-2.6806,-2.748,0.0,-2.8097,-2.7745,-2.7293,0.0,0.0,0.0,0.0,-2.6735,-2.6892,-2.6892,-2.7494,-2.8021,-2.7745,-2.7695,-2.7713,-2.7472,-2.8465,-2.9453,-2.956,-3.0308,-3.112,-3.1509,-3.0971,-3.1144,-3.333,-3.3328,0.0,0.0,0.0,-4.4413,-4.8518,0.0,0.0,0.0,0.0,0.0,0.0,0.0,0.0,0.0,-5.4262,-5.4224,-5.4606,-5.532,-5.5893,-5.6259,-5.7015,-5.7401,-5.7401,-5.7821,-5.7774,-5.7449,-5.8023,-5.8461,0.0,0.0,0.0,-5.9847,-6.0399,-6.0464,-6.0234,-6.0224,-5.9359,-5.8103,-5.8041,-5.7071,-5.6066,0.0,0.0,0.0,0.0,0.0,0.0,0.0,0.0,0.0,0.0,0.0,0.0,0.0,0.0,0.0,0.0,0.0,0.0,0.0,0.0,0.0,0.0,-2.0729,-2.1854,-2.3057,-2.3144,-2.332,-2.3691,-2.4316,-2.459,-2.4531,-2.4785,-2.459,-2.3965,-2.3457,-2.3203,-2.3144,-2.3144,-2.3144,-2.3144,-2.3144,0.0,0.0,0.0,0.0,0.0,0.0,0.0,0.0,-2.7846,-2.7544,-2.7168,-2.7168,0.0,0.0,0.0,0.0,0.0,-2.6634,-2.7394,-2.8172,-2.7921,-2.757,-2.7455,-2.8066,-2.8648,-2.9192,-2.9936,-3.0749,-3.127,-3.0881,-3.112,-3.1679,0.0,0.0,0.0,-4.219,-4.3614,-4.5398,-4.9079,0.0,0.0,0.0,0.0,0.0,0.0,0.0,0.0,0.0,-5.3856,-5.3881,-5.4757,-5.5379,-5.6114,-5.7065,-5.7679,-5.795,-5.7821,-5.795,-5.7923,-5.774,-5.828,-5.8495,0.0,0.0,0.0,-6.0044,-6.0578,-6.0495,-5.9996,-5.9996,-5.8934,-5.7492,-5.8066,-5.7165,-5.6049,0.0,0.0,0.0,0.0,0.0,0.0,0.0,0.0,0.0,0.0,0.0,0.0,0.0,0.0,0.0,0.0,0.0,0.0,0.0,0.0,0.0,-2.043,-2.1033,-2.1854,-2.3057,-2.3144,-2.3184,-2.3242,-2.4785,-2.5332,-2.5,-2.6484,-2.6348,-2.4844,-2.4043,-2.3477,-2.3144,-2.3144,-2.3144,-2.3144,-2.3144,0.0,0.0,0.0,0.0,0.0,0.0,0.0,0.0,-2.6716,-2.6666,-2.6659,-2.6659,0.0,0.0,0.0,0.0,0.0,-2.7017,-2.7971,-2.8473,-2.7067,-2.6992,-2.7238,-2.6873,-2.7921,-2.9066,-2.9192,-2.9956,-3.0971,-3.2018,-3.136,-3.1267,0.0,0.0,-3.993,0.0,0.0,0.0,0.0,0.0,0.0,0.0,0.0,0.0,0.0,0.0,0.0,0.0,0.0,-5.4106,-5.5495,-5.5667,-5.6385,-5.7821,-5.795,-5.7679,-5.7065,-5.7726,-5.7519,-5.6557,-5.7274,-5.7639,0.0,0.0,-5.7996,-5.8821,-5.9441,-5.9467,-5.9125,-5.9104,-5.8415,-5.7298,-5.6618,-5.6049,-5.589,0.0,0.0,0.0,0.0,0.0,0.0,0.0,0.0,0.0,0.0,0.0,0.0,0.0,0.0,0.0,0.0,0.0,0.0,0.0,0.0,-1.94,-2.0706,-2.172,-2.2492,-2.3057,-2.3379,-2.3594,-2.3828,-2.4863,-2.5625,-2.6133,-2.6465,-2.582,-2.4355,-2.3711,-2.332,-2.3144,-2.3144,-2.3144,-2.3125,0.0,0.0,0.0,0.0,0.0,0.0,0.0,0.0,0.0,0.0,-2.6533,-2.6533,-2.6533,0.0,0.0,0.0,0.0,0.0,-2.6766,-2.7419,-2.7871,-2.7092,-2.8176,-2.9269,-2.894,-2.9838,-3.0772,-3.0772,-3.1506,-3.2405,-3.3511,0.0,-3.4303,-3.7623,0.0,-4.3694,0.0,0.0,0.0,0.0,0.0,0.0,0.0,0.0,0.0,0.0,0.0,0.0,0.0,0.0,-5.3956,-5.503,-5.5026,-5.5577,-5.6675,-5.6947,-5.6956,-5.6879,-5.7,-5.6779,-5.6261,-5.7114,-5.7586,-5.771,0.0,-5.8165,-5.875,-5.9026,-5.8857,-5.835,-5.8296,-5.7641,-5.6742,-5.6539,-5.7319,-5.845,0.0,0.0,0.0,0.0,0.0,0.0,0.0,0.0,0.0,0.0,0.0,0.0,0.0,0.0,0.0,0.0,0.0,0.0,0.0,-1.7991,-1.9436,-2.1096,-2.2227,-2.2988,-2.3281,-2.3711,-2.4199,-2.4727,-2.5371,-2.6289,-2.7441,-2.6387,-2.5293,-2.4219,-2.3574,-2.3242,-2.3144,-2.3144,-2.3086,-2.2969,0.0,0.0,0.0,0.0,0.0,0.0,0.0,0.0,0.0,0.0,0.0,0.0,0.0,0.0,0.0,-2.6533,-2.6533,-2.6559,-2.6615,-2.7042,-2.7515,-2.7576,-2.8898,-3.0382,-3.0868,-3.1601,-3.2291,-3.3013,-3.3574,-3.4149,-3.4787,-3.5521,0.0,-4.1723,-4.4362,0.0,0.0,0.0,0.0,0.0,0.0,0.0,0.0,0.0,0.0,0.0,0.0,0.0,0.0,0.0,-5.3659,-5.4217,-5.4414,-5.4869,-5.5711,-5.5869,-5.6166,-5.6632,-5.6472,-5.6332,-5.6254,-5.7005,-5.7377,-5.7368,-5.7834,-5.8104,-5.8319,-5.8583,-5.8202,-5.7538,-5.7622,-5.7119,-5.6417,-5.6626,-5.8204,-6.0127,0.0,0.0,0.0,0.0,0.0,0.0,0.0,0.0,0.0,0.0,0.0,0.0,0.0,0.0,0.0,0.0,0.0,0.0,0.0,-1.7351,-1.8754,-2.1709,-2.1953,-2.2539,-2.3711,-2.416,-2.4785,-2.5644,-2.6875,-2.793,-2.875,-2.7109,-2.6074,-2.5547,-2.4297,-2.3516,-2.3144,-2.3144,-2.291,-2.2559,-2.2519,0.0,0.0,0.0,0.0,0.0,0.0,0.0,0.0,0.0,0.0,0.0,0.0,0.0,-2.6533,-2.6533,-2.6533,-2.6634,-2.7092,-2.762,-2.8113,-2.8369,-2.8022,-2.8252,-3.0838,-3.1689,-3.2679,-3.5379,-3.5642,-3.537,-3.5434,-3.6718,-3.8935,-4.2714,-4.5189,0.0,0.0,0.0,0.0,0.0,0.0,0.0,0.0,0.0,0.0,0.0,0.0,0.0,0.0,0.0,0.0,-5.3439,-5.4128,-5.502,-5.6137,-5.5434,-5.5508,-5.6249,-5.6628,-5.662,-5.6293,-5.6472,-5.6382,-5.6044,-5.6395,-5.6571,-5.6638,-5.7602,-5.739,-5.6557,-5.7183,-5.725,-5.6857,-5.6088,-5.6934,-5.8427,0.0,0.0,0.0,0.0,0.0,0.0,0.0,0.0,0.0,0.0,0.0,0.0,0.0,0.0,0.0,0.0,0.0,0.0,0.0,-1.7876,-1.9388,-2.0801,-2.1774,-2.2754,-2.3769,-2.4473,-2.5508,-2.6934,-2.8223,-2.8476,-2.7715,-2.6816,-2.5723,-2.4492,-2.373,-2.3301,-2.3125,-2.2852,-2.2656,-2.2461,-2.1934,-2.267,0.0,0.0,0.0,0.0,0.0,0.0,0.0,0.0,-2.5762,-2.6063,-2.5586,-2.5661,-2.5912,-2.5912,-2.5912,-2.6038,-2.6615,-2.7419,-2.8044,-2.7793,-2.846,-3.0058,-3.3084,-3.4909,-3.6336,-3.7895,-3.8389,-3.8532,-3.8629,0.0,-4.2177,-4.4871,0.0,0.0,0.0,0.0,0.0,0.0,0.0,0.0,0.0,0.0,0.0,0.0,0.0,0.0,0.0,0.0,0.0,-5.3253,-5.3324,-5.378,-5.4689,-5.4957,-5.5215,-5.5517,-5.5708,-5.575,-5.5684,-5.5963,-5.6184,-5.6225,-5.634,-5.6442,-5.6536,-5.6859,-5.6746,-5.64,-5.6443,-5.6715,-5.6934,-5.6626,-5.7397,-5.859,0.0,0.0,0.0,0.0,0.0,0.0,0.0,0.0,0.0,0.0,0.0,0.0,0.0,0.0,0.0,0.0,0.0,0.0,-1.6764,-1.8383,-1.9779,-2.0513,-2.1518,-2.2637,-2.3769,-2.4629,-2.5859,-2.7461,-2.873,-2.8633,-2.7207,-2.6504,-2.5469,-2.416,-2.3457,-2.3223,-2.3301,-2.2754,-2.2441,-2.2246,-2.1523,-2.2278,0.0,0.0,0.0,0.0,0.0,0.0,0.0,0.0,-2.5335,-2.5586,-2.5008,-2.5184,-2.5561,-2.541,-2.5658,-2.6008,-2.6238,-2.7003,-2.7666,-2.7782,-2.9346,-3.1837,-3.5569,-3.7373,-3.8822,-4.0562,-4.0858,-4.0852,-4.0982,-4.2284,0.0,0.0,0.0,0.0,0.0,0.0,0.0,0.0,0.0,0.0,0.0,0.0,0.0,0.0,0.0,0.0,0.0,0.0,0.0,0.0,-5.2225,-5.2597,-5.3433,-5.4258,-5.4664,-5.4574,-5.5033,-5.5352,-5.5492,-5.5861,-5.6186,-5.6382,-5.6419,-5.6504,-5.6533,-5.6417,-5.634,-5.6225,-5.5955,-5.6319,-5.6973,-5.6665,-5.7186,-5.8054,0.0,0.0,0.0,0.0,0.0,0.0,0.0,0.0,0.0,0.0,0.0,0.0,0.0,0.0,0.0,0.0,0.0,0.0,-1.8957,-1.9036,-1.9715,-2.1131,-2.123,-2.2031,-2.373,-2.4609,-2.5703,-2.7031,-2.8281,-2.8476,-2.7617,-2.6328,-2.5488,-2.5,-2.3711,-2.3379,-2.3711,-2.2871,-2.2266,-2.1836,-2.1406,-2.2092,-2.3526,0.0,0.0,0.0,0.0,0.0,0.0,0.0,-2.4883,-2.4104,-2.4632,-2.5159,-2.5485,-2.4958,-2.5679,-2.6579,-2.6064,-2.6264,-2.7125,-2.8611,-3.0516,-3.3171,-3.8005,-3.858,-3.9273,-4.3468,-4.2849,-4.1666,-4.1914,-4.274,0.0,0.0,0.0,0.0,0.0,0.0,0.0,0.0,0.0,0.0,0.0,0.0,0.0,0.0,0.0,0.0,0.0,0.0,0.0,0.0,-5.0935,-5.1705,-5.2603,-5.3403,-5.3656,-5.3413,-5.4934,-5.5742,-5.5895,-5.6225,-5.64,-5.6406,-5.6533,-5.6494,-5.6379,-5.6379,-5.6186,-5.5857,-5.5742,-5.6242,-5.6857,-5.6011,-5.6022,-5.6425,0.0,0.0,0.0,0.0,0.0,0.0,0.0,0.0,0.0,0.0,0.0,0.0,0.0,0.0,0.0,0.0,0.0,0.0,-1.8957,-1.9687,-2.0447,-2.1131,-2.123,-2.1621,-2.2441,-2.3574,-2.5254,-2.748,-2.8144,-2.7578,-2.582,-2.5449,-2.4707,-2.3711,-2.3633,-2.334,-2.2852,-2.2305,-2.1816,-2.1387,-2.0937,-2.188,-2.3526,0.0,0.0,0.0,0.0,0.0,0.0,0.0,0.0,0.0,-2.3828,-2.428,-2.4933,-2.4406,-2.5076,-2.5895,-2.5876,-2.7222,-2.8743,-2.9498,-3.2202,-3.5453,-3.8446,-3.9442,-4.0575,-4.3638,-4.3214,-4.259,-4.3817,-4.401,0.0,0.0,0.0,0.0,0.0,0.0,0.0,0.0,0.0,0.0,0.0,0.0,0.0,0.0,0.0,0.0,0.0,0.0,0.0,0.0,-5.1193,-5.1733,-5.2603,-5.323,-5.3481,-5.3413,-5.4066,-5.472,-5.5357,-5.6001,-5.6375,-5.6548,-5.6589,-5.6174,-5.546,-5.5283,-5.5109,-5.4972,-5.5472,-5.5857,-5.6028,-5.5476,-5.5902,-5.6733,0.0,0.0,0.0,0.0,0.0,0.0,0.0,0.0,0.0,0.0,-1.4489,-1.4573,0.0,0.0,0.0,0.0,0.0,0.0,-1.9608,-2.0235,-2.0684,-2.0957,-2.0977,-2.1328,-2.2109,-2.3555,-2.4902,-2.6133,-2.6894,-2.6426,-2.4824,-2.5176,-2.4824,-2.3926,-2.4375,-2.4082,-2.3223,-2.2637,-2.2031,-2.1445,-2.1271,-2.2218,-2.3794,0.0,0.0,0.0,0.0,0.0,0.0,0.0,0.0,0.0,-2.3351,-2.3753,-2.4431,-2.4104,-2.4873,-2.5903,-2.6302,-2.7859,-2.9673,-3.1034,-3.3715,-3.6736,-3.9396,-4.1466,-4.3269,-4.5125,-4.4649,-4.4203,-4.5539,-4.5473,0.0,0.0,0.0,0.0,0.0,0.0,0.0,0.0,0.0,0.0,0.0,0.0,0.0,0.0,0.0,0.0,0.0,0.0,0.0,0.0,-5.0453,-5.1023,-5.1385,-5.2389,-5.2779,-5.2549,-5.3338,-5.386,-5.4182,-5.5314,-5.5751,-5.5546,-5.543,-5.5067,-5.4516,-5.459,-5.4549,-5.4587,-5.5395,-5.5599,-5.5423,-5.5186,-5.5337,-5.5728,0.0,0.0,-1.4082,-1.4082,0.0,0.0,0.0,0.0,0.0,0.0,-1.4977,-1.5213,0.0,0.0,0.0,-1.7415,-1.8479,-1.9529,-2.0566,-2.0566,-2.0566,-2.0566,-2.0605,-2.1191,-2.2422,-2.3984,-2.4394,-2.3613,-2.5,-2.5195,-2.4316,-2.5254,-2.5449,-2.5078,-2.5449,-2.5137,-2.4297,-2.3359,-2.25,-2.1781,-2.1932,-2.2897,-2.4228,-2.4751,0.0,0.0,0.0,0.0,0.0,0.0,0.0,0.0,-2.3065,-2.3527,-2.3979,-2.3929,-2.497,-2.6315,-2.7041,-2.833,-3.0131,-3.2972,-3.523,-3.7623,-4.0753,-4.3937,-4.6381,-4.686,0.0,-4.6031,-4.6852,-4.6848,0.0,0.0,0.0,0.0,0.0,0.0,0.0,0.0,0.0,0.0,0.0,0.0,0.0,0.0,0.0,0.0,0.0,0.0,0.0,0.0,-4.9105,-4.9838,-4.9567,-5.1048,-5.1568,0.0,-5.2628,-5.3025,-5.2641,-5.4375,-5.4726,-5.3976,-5.3642,-5.3469,-5.3514,-5.4031,-5.4241,-5.4357,-5.522,-5.5308,-5.4993,-5.4988,-5.4516,-5.4093,0.0,0.0,-1.4082,-1.4082,0.0,0.0,0.0,0.0,0.0,0.0,0.0,0.0,0.0,-1.6519,0.0,-1.8559,-1.9608,-2.0313,-2.0566,-2.0566,-2.0566,-2.0566,-2.0898,-2.1387,-2.2012,-2.2383,-2.248,-2.2305,-2.4258,-2.459,-2.3437,-2.4648,-2.5156,-2.5059,-2.4805,-2.4414,-2.3828,-2.2285,-2.1328,-2.0997,-2.1665,-2.2681,-2.3734,-2.4683,-2.4925,0.0,0.0,0.0,0.0,0.0,0.0,0.0,-2.3065,-2.3527,-2.3904,-2.3452,-2.4554,-2.6176,-2.7065,-2.8983,-3.1496,-3.4341,-3.8072,-4.1299,-4.2193,-4.401,-4.5274,-4.4377,-4.4429,-4.5156,-4.6866,0.0,0.0,0.0,0.0,0.0,0.0,0.0,0.0,0.0,0.0,0.0,0.0,0.0,0.0,0.0,0.0,0.0,0.0,0.0,0.0,-4.751,-4.8252,-4.8952,-4.9433,-4.9452,-4.998,0.0,-5.1003,-5.1175,-5.1753,-5.3377,-5.4011,-5.3824,-5.2947,-5.2524,-5.2416,-5.2453,-5.2472,-5.2605,-5.3743,-5.4167,-5.4074,-5.4091,-5.4388,-5.4763,0.0,0.0,0.0,0.0,0.0,0.0,0.0,0.0,0.0,0.0,0.0,0.0,0.0,-1.7415,0.0,0.0,-1.9511,-2.0079,-2.0566,-2.0566,-2.0566,-2.0566,-2.0996,-2.123,-2.125,-2.166,-2.1777,-2.1562,-2.2891,-2.3301,-2.2871,-2.3945,-2.457,-2.4746,-2.4727,-2.4258,-2.3418,-2.2324,-2.1465,-2.1017,-2.2197,-2.2988,-2.3554,-2.4777,-2.4962,-2.4431,-2.4431,0.0,0.0,0.0,0.0,0.0,0.0,0.0,-2.3577,-2.3552,-2.4278,-2.5515,-2.7253,-2.9242,-3.182,-3.5859,-3.9017,-4.1125,-4.1203,-4.2432,-4.3284,-4.2283,-4.3648,-4.5418,0.0,0.0,0.0,0.0,0.0,0.0,0.0,0.0,0.0,0.0,0.0,0.0,0.0,0.0,0.0,0.0,0.0,0.0,0.0,-4.6719,-4.6838,-4.6682,-4.7742,-4.8355,-4.8431,-4.8606,-4.9156,-5.0064,-5.0154,-5.058,-5.132,-5.2181,-5.2737,-5.3049,-5.2041,-5.1609,-5.153,-5.1779,-5.1895,-5.197,-5.2867,-5.3362,-5.3489,-5.33,-5.3608,-5.4149,0.0,0.0,0.0,0.0,0.0,0.0,0.0,0.0,0.0,0.0,0.0,0.0,0.0,-1.8479,-1.9036,0.0,0.0,0.0,-2.0566,-2.0566,-2.0605,-2.0684,-2.1035,-2.1094,-2.0801,-2.1445,-2.1602,-2.123,-2.1523,-2.1914,-2.2422,-2.3359,-2.4062,-2.4531,-2.4668,-2.418,-2.3223,-2.265,-2.2004,-2.1471,-2.311,-2.3672,-2.375,-2.5208,-2.5134,-2.428,-2.428,-2.4155,-2.3929,-2.3452,0.0,0.0,0.0,0.0,-2.3165,-2.3703,-2.4047,-2.4824,-2.7242,-2.9379,-3.2053,-3.6872,-3.8689,-3.9348,-3.9498,-4.044,-4.1208,-4.0689,-4.309,0.0,0.0,0.0,0.0,0.0,0.0,0.0,0.0,0.0,0.0,0.0,0.0,0.0,0.0,0.0,0.0,0.0,0.0,0.0,-4.6062,-4.6151,-4.6069,-4.5817,-4.7163,-4.7756,-4.7372,-4.7989,-4.8488,-4.8883,-4.9586,-5.0221,-5.0683,-5.0683,-5.1206,-5.203,-5.1233,-5.0914,-5.0914,-5.1471,-5.1624,-5.1638,-5.2068,-5.2419,-5.2634,-5.2563,-5.271,-5.3115,0.0,0.0,0.0,0.0,0.0,0.0,0.0,0.0,0.0,0.0,-1.7415,-1.7819,0.0,-1.8877,-1.9353,-2.0333,-2.0411,-2.0489,-2.0566,0.0,0.0,-2.1133,-2.1211,-2.1387,-2.1699,-2.1465,-2.1289,-2.123,-2.0898,-2.1172,-2.1992,-2.3223,-2.4219,-2.4941,-2.3867,-2.3516,-2.3663,-2.2574,-2.2018,-2.2046,-2.4009,-2.4779,-2.4921,-2.5926,-2.5937,-2.5385,-2.5385,-2.4782,-2.3979,-2.3904,-2.3602,0.0,0.0,0.0,-2.309,-2.3165,-2.3713,-2.4601,-2.6062,-2.9659,-3.3674,-3.6274,-3.7497,-3.8053,0.0,0.0,-4.0025,0.0,0.0,0.0,0.0,0.0,0.0,0.0,0.0,0.0,0.0,0.0,0.0,0.0,0.0,0.0,0.0,0.0,0.0,0.0,0.0,0.0,-4.5268,-4.5649,-4.5837,-4.5796,-4.618,-4.6669,-4.7203,-4.6838,-4.7337,-4.8745,-4.8847,-4.8852,-4.87,-4.87,-4.9566,-5.1085,-5.0933,-5.0837,-5.0741,-5.0818,-5.0636,-5.0364,-5.0799,-5.0792,-5.0629,-5.1669,-5.2132,-5.227,0.0,0.0,0.0,0.0,0.0,0.0,0.0,0.0,0.0,0.0,0.0,-1.8479,-1.8957,-1.9529,-2.0079,-2.0566,-2.0566,-2.0566,-2.0566,-2.0566,-2.0664,-2.0859,-2.0859,-2.0957,-2.1133,-2.0957,-2.0859,-2.0859,-2.0664,-2.1133,-2.2246,-2.2812,-2.3398,-2.3945,-2.2891,-2.2539,-2.2703,-2.2241,-2.2038,-2.2188,-2.4181,-2.4826,-2.4634,-2.5623,-2.5636,-2.5159,-2.5159,-2.4858,-2.4406,-2.4104,-2.3828,-2.3552,-2.3251,0.0,0.0,0.0,-2.3365,-2.4261,-2.7128,-3.0051,-3.2854,-3.5193,-3.6215,-3.6486,-3.5843,-3.755,-3.9011,-3.8456,0.0,0.0,0.0,0.0,0.0,0.0,0.0,0.0,0.0,0.0,0.0,0.0,0.0,0.0,0.0,0.0,0.0,0.0,0.0,-4.5218,-4.5457,-4.5686,-4.5834,-4.595,-4.6065,-4.6293,-4.6683,-4.6445,-4.6871,-4.7965,-4.7818,-4.793,-4.8315,-4.822,-4.8605,-4.9356,-4.9856,-4.9624,-4.9039,-4.9975,-4.9868,-4.9121,-4.9514,-4.9865,-5.0149,-5.0522,-5.0912,-5.1426,0.0,0.0,0.0,0.0,0.0,0.0,0.0,0.0,0.0,0.0,0.0,-1.9036,-1.9036,0.0,0.0,0.0,-2.0566,-2.0566,-2.0566,-2.0566,-2.0566,-2.0566,-2.0566,-2.0566,-2.0566,-2.0566,-2.0566,-2.0566,-2.0566,-2.123,-2.2519,-2.2519,-2.2852,-2.3418,-2.2578,-2.209,-2.1918,-2.233,-2.2584,-2.2714,-2.4447,-2.4936,-2.4643,-2.5319,-2.5285,-2.4833,-2.4958,-2.4933,-2.4757,-2.4356,-2.4104,-2.3929,-2.3502,-2.319,0.0,0.0,0.0,-2.3927,-2.7605,-2.9435,-3.0955,-3.3499,-3.4364,-3.4478,0.0,0.0,-3.7479,0.0,0.0,0.0,0.0,0.0,0.0,0.0,0.0,0.0,0.0,0.0,0.0,0.0,0.0,0.0,0.0,0.0,0.0,0.0,0.0,-4.5438,-4.5778,-4.5834,-4.595,-4.6103,-4.6135,-4.6167,-4.6245,-4.6213,-4.6452,-4.6985,-4.6796,-4.7027,-4.7622,-4.7509,-4.7434,-4.7415,-4.849,-4.8426,-4.7694,-4.9086,-4.9045,-4.819,-4.8712,-4.9219,-4.9638,-4.9599,-4.9958,-5.0618,0.0,0.0,0.0,0.0,0.0,0.0,0.0,0.0,0.0,0.0,0.0,-1.9036,-1.9036,-1.9923,-2.0566,-2.0566,-2.0566,-2.0566,-2.0566,-2.0566,-2.0566,-2.0566,-2.0566,0.0,-2.0566,-2.0566,-2.0566,-2.0566,-2.0566,-2.123,-2.2519,-2.2519,-2.3164,-2.4316,-2.3477,-2.2637,-2.202,-2.3466,-2.4069,-2.4153,-2.5192,-2.5544,-2.5519,-2.5586,-2.5285,-2.4883,-2.5385,-2.5234,-2.4808,-2.4782,-2.4431,-2.3979,-2.3954,-2.3577,-2.3065,0.0,0.0,0.0,-2.5895,-2.7023,-2.8217,-3.0984,-3.169,-3.2083,0.0,0.0,0.0,0.0,0.0,0.0,0.0,0.0,0.0,0.0,0.0,0.0,0.0,0.0,0.0,0.0,0.0,0.0,0.0,0.0,0.0,0.0,0.0,-4.5778,-4.5796,-4.5988,-4.6103,-4.6103,-4.6214,-4.6221,-4.6095,-4.598,-4.5929,-4.5873,-4.5873,-4.5834,-4.574,-4.574,-4.5573,-4.5366,-4.6991,-4.7678,-4.7632,-4.8147,-4.8123,-4.7793,-4.858,-4.8676,-4.8491,-4.9336,-4.9627,-4.9884,0.0,0.0,0.0,0.0,0.0,0.0,0.0,0.0,0.0,0.0,0.0,0.0,0.0,-1.9511,-2.0566,-2.0566,-2.0566,-2.0566,-2.0566,-2.0566,-2.0566,-2.0566,-2.0566,-2.0566,-2.0566,-2.0566,-2.0566,-2.0566,-2.0566,-2.1094,-2.2109,-2.2383,-2.2754,-2.3184,-2.2871,-2.2899,-2.3268,-2.358,-2.409,-2.4774,-2.5345,-2.5586,-2.5561,-2.5234,-2.5184,-2.531,-2.5159,-2.5184,-2.5259,-2.4933,-2.4456,-2.4004,-2.4004,-2.3602,-2.3065,-2.3065,-2.3065,-2.3662,-2.628,-2.6854,-2.7253,-2.9406,-3.0742,-3.1334,-3.0573,-3.2872,0.0,0.0,0.0,0.0,0.0,0.0,0.0,0.0,0.0,0.0,0.0,0.0,0.0,0.0,0.0,0.0,0.0,0.0,0.0,0.0,0.0,0.0,-4.5879,-4.602,-4.6152,-4.6245,-4.6177,-4.6103,-4.5988,-4.5866,-4.5827,-4.5796,-4.5719,-4.5624,-4.5586,-4.5586,-4.555,-4.5438,-4.5574,-4.5507,-4.5406,-4.6615,-4.6903,-4.6613,-4.7425,-4.7979,-4.8343,-4.8636,-4.8783,-4.9003,0.0,0.0,0.0,0.0,0.0,0.0,0.0,0.0,-1.425,-1.4573,0.0,0.0,0.0,0.0,-2.0566,-2.0566,-2.0566,-2.0566,-2.0566,-2.0566,-2.0566,-2.0566,-2.0566,-2.0566,-2.0566,-2.0566,-2.0566,-2.0566,-2.0566,-2.1016,-2.1894,-2.2168,-2.2461,-2.2715,-2.2422,-2.2705,-2.3289,-2.3754,-2.4226,-2.4751,-2.5345,-2.5586,-2.5586,-2.5435,-2.536,-2.5335,-2.536,-2.546,-2.5536,-2.5209,-2.4732,-2.428,-2.428,-2.3753,-2.3125,-2.3424,-2.3484,-2.4027,-2.6408,-2.6582,-2.6496,-2.8165,-2.9168,-2.955,-2.8983,0.0,0.0,0.0,0.0,0.0,0.0,0.0,0.0,0.0,0.0,0.0,0.0,0.0,0.0,0.0,0.0,0.0,0.0,0.0,0.0,0.0,0.0,0.0,-4.5968,-4.6107,-4.6207,-4.6232,-4.6065,-4.595,-4.5873,-4.5796,-4.5719,-4.5719,-4.5624,-4.5586,-4.5586,-4.5586,-4.555,-4.5419,-4.4966,-4.4535,-4.4288,-4.5462,-4.5759,-4.559,-4.6691,-4.7462,-4.7939,-4.8196,-4.8306,-4.8489,0.0,0.0,0.0,0.0,0.0,0.0,0.0,0.0,-1.4503,-1.556,0.0,0.0,0.0,0.0,0.0,-2.0586,-2.0586,-2.0586,-2.0566,-2.0566,-2.0566,-2.0566,-2.0566,-2.0566,-2.0566,-2.0566,-2.0566,-2.0566,-2.0566,-2.1016,-2.1855,-2.1855,-2.2305,-2.3066,-2.2246,-2.1875,-2.202,-2.3939,-2.4591,-2.4326,-2.5261,-2.5611,-2.5686,-2.6214,-2.5762,-2.4983,-2.6038,-2.6063,-2.5611,-2.5678,-2.5259,-2.4833,-2.4808,-2.4029,-2.333,-2.4073,-2.4337,-2.4624,0.0,0.0,0.0,-2.7199,-2.6886,0.0,-2.8985,0.0,0.0,0.0,0.0,0.0,0.0,0.0,0.0,0.0,0.0,0.0,0.0,0.0,0.0,0.0,0.0,0.0,0.0,0.0,0.0,0.0,0.0,-4.5911,-4.6026,-4.6158,-4.618,-4.6065,-4.5873,-4.5757,-4.5719,-4.5586,-4.5547,-4.5547,-4.5586,-4.5586,-4.5586,-4.5586,-4.5419,-4.5137,-4.5115,-4.4919,-4.4584,-4.4642,-4.4672,-4.4856,-4.6434,-4.7095,-4.7205,-4.7976,-4.8269,-4.8416,0.0,0.0,0.0,0.0,0.0,-1.4162,-1.4362,-1.4215,-1.4654,0.0,0.0,0.0,-1.9686,-2.0832,-2.1387,-2.1074,-2.1055,-2.0918,-2.0586,-2.0566,-2.0566,-2.0566,-2.0566,-2.0566,-2.0566,-2.0566,-2.0566,-2.0566,-2.0566,-2.0684,-2.0937,-2.1269,-2.1543,-2.1777,-2.1855,-2.1699,-2.1467,-2.3177,-2.4414,-2.5366,-2.5536,-2.5837,-2.6138,-2.5511,-2.5335,-2.5385,-2.531,-2.5686,-2.6299,-2.6439,-2.6466,-2.6179,-2.5318,-2.4849,-2.4536,-2.4353,-2.4681,-2.53,-2.6229,0.0,0.0,0.0,0.0,0.0,-2.6673,-2.8484,-3.0266,0.0,0.0,0.0,0.0,0.0,0.0,0.0,0.0,0.0,0.0,0.0,0.0,0.0,0.0,0.0,0.0,0.0,0.0,0.0,-4.4145,-4.4243,-4.4282,-4.487,-4.5124,-4.4949,-4.4872,-4.4526,-4.3855,-4.4393,-4.4662,-4.4662,-4.5278,-4.5586,-4.5586,-4.5586,-4.555,-4.5438,-4.5201,-4.4919,-4.4572,-4.4289,-4.4395,-4.4745,-4.5186,-4.6104,-4.7131,-4.7352,-4.7792,-4.8416,0.0,0.0,0.0,0.0,-1.4269,-1.4362,-1.4656,-1.4563,-1.5158,0.0,0.0,0.0,-2.0717,-2.1524,-2.1699,-2.1269,-2.123,-2.1055,-2.0586,-2.0566,-2.0566,-2.0566,-2.0566,-2.0566,-2.0566,-2.0566,-2.0566,-2.0566,-2.0566,-2.0566,-2.0566,-2.084,-2.0957,-2.0977,-2.123,-2.1191,-2.1095,-2.2746,-2.405,-2.4865,-2.5417,-2.6119,-2.6791,-2.659,-2.659,-2.664,-2.6565,-2.7069,-2.7713,-2.759,-2.752,-2.722,-2.6067,-2.5657,-2.5608,-2.5297,-2.5522,-2.6014,-2.6759,-2.6447,-2.607,-2.6663,0.0,0.0,-2.6611,-2.7767,-2.8858,0.0,0.0,0.0,0.0,0.0,0.0,0.0,0.0,0.0,0.0,0.0,0.0,0.0,0.0,0.0,0.0,0.0,0.0,-4.3359,-4.3496,-4.3595,-4.3591,-4.3928,-4.4102,-4.3965,-4.391,-4.364,-4.3124,-4.3585,-4.397,-4.4316,-4.447,-4.4739,-4.5047,-4.5047,-4.5047,-4.5086,-4.509,-4.4919,-4.4572,-4.4146,-4.4082,-4.4232,-4.4562,-4.548,-4.6654,-4.6985,-4.7609,-4.8379,0.0,0.0,-1.4175,-1.4469,-1.4522,-1.4629,-1.4963,-1.5156,-1.6034,0.0,-1.8799,-1.9659,-2.1594,-2.1928,-2.1855,-2.1406,-2.1367,-2.1172,-2.0664,-2.0684,-2.0664,-2.0566,-2.0605,-2.0625,-2.0566,-2.0566,-2.0566,-2.0566,-2.0566,-2.0566,-2.0566,-2.0566,-2.0566,-2.0566,-2.0566,-2.0566,-2.0722,-2.2414,-2.3305,-2.3644,-2.5321,-2.6553,-2.7469,-2.8473,-2.8524,-2.8172,-2.8724,-2.9155,-2.9336,-2.8864,-2.8546,-2.8223,-2.6998,-2.6665,-2.6694,-2.6537,-2.6654,-2.6967,-2.756,-2.7278,-2.7079,-2.8185,-2.7052,0.0,-2.7806,-2.7262,-2.6718,0.0,0.0,0.0,0.0,0.0,0.0,0.0,0.0,0.0,0.0,0.0,0.0,0.0,0.0,0.0,0.0,-4.264,-4.2755,-4.2996,-4.3119,-4.3217,-4.3279,-4.3134,-4.3041,-4.3041,-4.2986,-4.2893,-4.2816,-4.2893,-4.3316,-4.4008,-4.3393,-4.347,-4.4162,-4.4162,-4.4184,-4.4264,-4.4763,-4.4782,-4.4519,-4.4146,-4.3786,-4.3571,-4.4305,-4.5076,-4.5847,-4.6691,-4.7498,-4.8196,-1.4082,-1.4082,-1.4175,-1.4469,-1.4522,-1.4696,-1.5231,-1.5984,-1.7128,-1.9036,-2.0997,-2.1983,-2.1438,-2.2263,-2.2715,-2.2305,-2.2266,-2.1934,-2.1152,-2.1426,-2.1309,-2.0586,-2.0918,-2.0937,-2.0566,-2.0566,-2.0566,-2.0566,-2.0566,-2.0566,-2.0566,-2.0566,-2.0566,-2.0566,-2.0566,-2.0566,-2.0644,-2.1011,-2.2038,-2.3717,-2.6069,-2.7401,-2.7971,-2.8197,-2.8197,-2.8195,-2.9041,-2.9101,-2.8837,-2.968,-2.9903,-2.9686,-2.8397,-2.8277,-2.8374,-2.692,-2.762,-2.8732,-2.8415,-2.8217,-2.8088,-2.8367,-2.7721,0.0,-2.7422,-2.7664,-2.7886,0.0,0.0,0.0,0.0,0.0,0.0,0.0,0.0,0.0,0.0,0.0,0.0,0.0,0.0,0.0,0.0,-3.9197,-3.9309,-3.94,-4.0078,-4.071,-4.1324,-4.1909,-4.2162,-4.2085,-4.2047,-4.1739,-4.1008,-4.17,-4.2124,-4.2277,-4.2854,-4.3162,-4.3316,-4.3316,-4.3558,-4.3881,-4.4009,-4.4107,-4.4117,-4.4028,-4.3786,-4.3497,-4.3644,-4.4232,-4.5039,-4.5847,-4.6654,-4.7535,-1.4082,-1.4082,-1.4229,-1.4669,-1.4736,-1.4937,-1.5524,-1.6026,-1.6839,-1.8364,-2.0674,-2.1943,-2.1391,-2.2403,-2.2969,-2.2539,-2.2519,-2.2246,-2.1602,-2.1758,-2.1582,-2.0937,-2.1113,-2.1016,-2.0586,-2.0566,-2.0566,-2.0566,-2.0566,-2.0566,-2.0566,-2.0566,-2.0449,-2.0254,-2.0469,-2.0738,-2.1069,-2.1728,-2.3067,-2.4742,-2.5796,-2.7017,-2.8172,-2.8725,-2.895,-2.905,-2.9647,-2.9847,-2.9961,-3.1029,-3.116,0.0,-3.0227,-3.0196,-3.0137,-2.89,-2.9185,-2.9809,-2.9137,-2.8926,-2.8994,-2.9286,-2.8818,0.0,0.0,-2.837,-2.8215,0.0,0.0,0.0,0.0,0.0,0.0,0.0,0.0,0.0,0.0,0.0,0.0,0.0,0.0,0.0,0.0,-3.7013,-3.7247,-3.7769,-3.8553,-3.9328,-4.0077,-4.0446,-4.0816,-4.1123,-4.1162,-4.0931,-4.0508,-4.0931,-4.1354,-4.1816,-4.1816,-4.2047,-4.247,-4.2893,-4.3099,-4.3188,-4.387,-4.4131,-4.3967,-4.3818,-4.3627,-4.3497,-4.3497,-4.4232,-4.5369,-4.5736,-4.6654,-4.7902,-1.4082,-1.4082,-1.4269,-1.4856,-1.4963,-1.5164,-1.5738,-1.6008,-1.6669,-1.787,-1.9951,-2.1302,-2.1302,-2.2328,-2.2988,-2.2891,-2.2578,-2.2363,-2.2266,-2.209,-2.1777,-2.125,-2.1387,-2.1191,-2.0586,-2.0644,-2.0664,-2.0566,-2.0566,-2.0566,-2.0566,-2.0566,-2.0371,-2.0059,-2.041,-2.1004,-2.1787,-2.2914,-2.4328,-2.5777,-2.5569,-2.6562,-2.8222,-2.9252,-2.9706,-2.9732,-3.019,-3.0782,-3.15,-3.2258,-3.2075,-3.1504,-3.1743,-3.1758,0.0,-3.0911,-3.0854,-3.0895,-3.0177,-3.0093,0.0,0.0,0.0,-2.9872,0.0,0.0,0.0,0.0,0.0,0.0,0.0,0.0,0.0,0.0,0.0,0.0,0.0,0.0,0.0,0.0,0.0,0.0,0.0,-3.5301,-3.5657,-3.6658,-3.7375,-3.8122,-3.8898,-3.9022,-3.9431,-4.0239,-4.0277,-4.0315,-4.0508,-4.0508,-4.0854,-4.1546,-4.0854,-4.0854,-4.1585,-4.2381,-4.2642,-4.2471,-4.3681,-4.4149,-4.3881,-4.3631,-4.3497,-4.3497,-4.3497,-4.4378,-4.57,-4.5847,-4.6911,-4.8453,-1.4041,-1.4082,-1.4269,-1.4856,-1.4963,-1.5164,-1.5738,-1.6763,-1.7963,-1.9131,-2.0477,-2.1302,-2.1302,-2.2082,-2.3027,-2.4102,-2.2832,-2.2422,-2.3496,-2.2871,-2.207,-2.1269,-2.1953,-2.1797,-2.0586,-2.0957,-2.0957,-2.0566,-2.0566,-2.0566,-2.0566,-2.0566,-2.0547,-2.0488,-2.0547,-2.1423,-2.2738,-2.2878,-2.4047,-2.5874,-2.6225,-2.7087,0.0,-2.88,-2.9218,-2.9583,-3.0657,-3.1584,-3.2348,0.0,-3.2109,-3.1618,0.0,-3.2442,-3.2265,-3.1662,-3.2229,-3.2923,0.0,0.0,0.0,0.0,-3.2315,0.0,0.0,0.0,-3.0659,-2.9266,0.0,0.0,0.0,0.0,0.0,0.0,0.0,0.0,0.0,0.0,0.0,0.0,0.0,0.0,0.0,0.0,-3.3984,-3.4915,-3.5599,-3.6369,-3.7242,-3.7829,-3.8546,-3.9392,-3.9431,-3.9777,-4.0469,-4.0508,-4.0546,-4.0662,-4.0546,-4.0546,-4.0662,-4.1246,-4.1689,-4.2084,-4.2717,-4.3219,-4.3529,-4.3532,-4.3497,-4.3497,-4.3497,-4.4048,-4.4929,-4.5626,-4.6911,-4.8526,-1.4055,-1.4082,-1.4269,-1.4856,-1.4963,-1.5164,-1.5738,-1.6857,-1.787,-1.8411,-2.0116,-2.1392,-2.1644,-2.2403,-2.3184,-2.3984,-2.2949,-2.2578,0.0,-2.2852,-2.2344,-2.1992,-2.2324,-2.2148,-2.1348,-2.1523,-2.1387,-2.0957,-2.0957,-2.082,-2.0566,-2.0566,-2.043,-2.0195,-2.0449,-2.1486,-2.2944,-2.3492,-2.5027,-2.7115,-2.7041,-2.7432,0.0,-2.8373,-2.8912,-2.978,-3.0772,-3.1419,-3.2015,0.0,-3.2382,0.0,0.0,0.0,0.0,-3.3367,-3.365,-3.3888,0.0,0.0,0.0,0.0,0.0,0.0,-3.1322,0.0,-3.1391,0.0,0.0,0.0,0.0,0.0,0.0,0.0,-2.9877,0.0,0.0,0.0,0.0,0.0,0.0,0.0,0.0,0.0,0.0,0.0,0.0,-3.5624,-3.687,-3.7228,-3.7945,-3.9238,-3.9277,-3.97,-4.0469,-4.0508,-4.0508,-4.0508,-4.1008,-4.1174,-4.0978,-4.2199,-4.2654,-4.2492,-4.3208,-4.3489,-4.3497,-4.3497,-4.3754,-4.4195,-4.4195,-4.4709,-4.548,-4.6324,-4.7645,-4.9297,-1.4068,-1.4082,-1.4269,-1.4856,-1.4897,-1.5044,-1.5618,-1.68,-1.7777,-1.8133,-2.0042,-2.168,-2.2594,-2.3133,-2.3809,-2.4609,-2.3672,-2.3223,0.0,-2.3066,-2.2578,-2.2363,-2.2559,-2.2441,-2.1894,-2.1992,-2.1836,-2.1406,-2.1289,-2.1133,-2.0918,-2.0684,-2.0469,-2.0293,-2.0605,-2.168,-2.3329,-2.4183,-2.5812,-2.7846,-2.7444,-2.7444,-2.7717,-2.819,-2.9091,-3.0275,-3.0955,-3.1456,-3.191,-3.2625,-3.2895,0.0,-3.4447,0.0,-3.4636,0.0,0.0,-3.4718,-3.4304,0.0,0.0,0.0,0.0,0.0,0.0,0.0,0.0,0.0,0.0,0.0,0.0,0.0,-3.0392,-3.0171,0.0,-3.0431,0.0,0.0,0.0,0.0,0.0,0.0,0.0,0.0,0.0,0.0,0.0,0.0,-3.6532,-3.6781,-3.7522,-3.8945,-3.92,-3.97,-4.0469,-4.0739,-4.0854,-4.0854,-4.1635,-4.1857,-4.1642,-4.2936,-4.3276,-4.2858,-4.3547,-4.3726,-4.3497,-4.3497,-4.3975,-4.4745,-4.5186,-4.5847,-4.6617,-4.7205,-4.8636,-5.0435,-1.4028,-1.4082,-1.4269,-1.4856,-1.4723,-1.4736,-1.5324,-1.675,-1.8149,-1.9314,-2.0477,-2.206,-2.4113,-2.4375,-2.5059,-2.6758,-2.5352,-2.4551,-2.498,0.0,-2.2773,-2.1953,-2.2676,-2.2734,-2.1894,-2.2285,-2.2285,-2.1855,-2.1445,-2.1445,-2.1816,-2.0957,-2.0781,-2.1191,-2.1211,-2.234,-2.4318,-2.4758,-2.5855,-2.7293,-2.7293,-2.6967,-2.6696,0.0,-2.9862,-3.1133,-3.1397,0.0,0.0,-3.3339,-3.3598,0.0,0.0,0.0,0.0,0.0,0.0,0.0,0.0,0.0,0.0,-3.4763,0.0,0.0,0.0,0.0,-3.3915,0.0,0.0,0.0,0.0,-3.1936,-3.2034,-3.0624,-3.1109,0.0,0.0,0.0,0.0,0.0,0.0,0.0,0.0,0.0,0.0,0.0,0.0,0.0,-3.5859,-3.6551,-3.7276,-3.8099,-3.8907,-3.97,-4.0469,-4.1354,-4.1777,-4.1777,-4.2259,-4.2484,-4.2481,-4.2704,-4.2813,-4.2828,-4.3332,-4.3532,-4.3497,-4.3497,-4.3975,-4.4856,-4.6434,-4.7535,-4.8233,-4.8269,-4.9811,-5.205,-1.4322,-1.4376,-1.4496,-1.4897,-1.4883,-1.5273,-1.6693,-1.8684,-2.0589,0.0,-2.3074,0.0,0.0,-2.6309,-2.6484,0.0,0.0,-2.5664,-2.5527,-2.4551,0.0,-2.3164,-2.3144,-2.3008,0.0,-2.2852,-2.2715,-2.2305,-2.2148,-2.2012,-2.1875,-2.1289,-2.1094,-2.123,-2.0918,-2.1541,-2.2821,0.0,0.0,0.0,0.0,-2.7997,-2.7968,0.0,0.0,-2.9848,-3.1043,-3.1966,0.0,-3.2831,-3.3143,-3.3612,-3.4007,-3.4004,-3.3839,-3.4047,-3.4729,0.0,0.0,0.0,-3.5428,-3.4306,0.0,0.0,0.0,0.0,0.0,0.0,0.0,0.0,0.0,-3.262,-3.2442,-3.1417,-3.1506,-3.1391,0.0,0.0,0.0,0.0,0.0,0.0,0.0,0.0,0.0,0.0,0.0,0.0,0.0,-3.6651,-3.7405,-3.8099,-3.8907,-3.9715,-4.0469,-4.1165,-4.1495,-4.1476,-4.2541,-4.2926,-4.2704,-4.3341,-4.3441,-4.3295,-4.4007,-4.3975,-4.3571,-4.4635,-4.5259,-4.5663,-4.7278,-4.8746,-4.9958,-4.9958,-5.1169,-5.3078,-1.4482,-1.4522,-1.4643,-1.5044,-1.5568,-1.6358,-1.7368,0.0,0.0,0.0,-2.4773,0.0,-2.7734,0.0,-2.7871,0.0,-2.7832,-2.7012,-2.582,-2.5488,0.0,-2.3613,-2.3594,-2.3516,0.0,0.0,-2.3008,-2.2734,-2.2578,-2.2695,-2.2872,-2.211,-2.1989,-2.2508,-2.2056,-2.2357,-2.3106,-2.4265,-2.5269,0.0,0.0,-2.8505,0.0,0.0,-3.0352,-2.9939,0.0,-3.2382,-3.2929,-3.2898,-3.3303,-3.3772,-3.3498,-3.3515,-3.3639,-3.3639,-3.4318,-3.5028,-3.4688,-3.4977,0.0,-3.4318,-3.4196,0.0,-3.3865,0.0,0.0,0.0,0.0,0.0,0.0,-3.3622,-3.3468,-3.2314,-3.2122,-3.1737,0.0,-3.0379,0.0,0.0,0.0,0.0,0.0,0.0,0.0,0.0,0.0,0.0,0.0,0.0,-3.8233,-3.862,-3.9389,-4.0023,-4.0508,-4.1342,-4.1739,-4.1739,-4.2976,-4.3418,-4.323,-4.3658,-4.3841,-4.3938,-4.4158,-4.4305,-4.4415,-4.5149,-4.581,-4.6507,-4.8122,-4.9591,-5.0875,-5.1463,-5.2858,-5.4766,-1.4563,-1.4576,-1.4763,-1.5416,-1.675,0.0,0.0,0.0,-2.3432,0.0,-2.5591,-2.7441,-2.832,-2.8769,-2.918,-2.959,-2.9629,-2.8574,-2.6094,-2.666,0.0,0.0,-2.4102,-2.4297,-2.3828,0.0,0.0,-2.3144,-2.2734,-2.3398,-2.4724,-2.3482,-2.363,-2.4982,-2.4413,-2.4465,-2.4992,-2.5394,-2.5948,-2.6714,-2.8363,-2.8519,-2.8091,-3.0539,-3.1337,-3.1232,-3.2201,-3.2992,-3.354,-3.3434,-3.3851,-3.4269,-3.3525,-3.3584,-3.3982,-3.3982,-3.4329,-3.48,-3.5241,-3.4866,-3.4418,-3.4861,0.0,0.0,0.0,0.0,-3.5238,0.0,0.0,0.0,0.0,0.0,-3.493,-3.3237,-3.2929,-3.2352,-3.0737,-3.0533,0.0,0.0,0.0,0.0,0.0,0.0,0.0,0.0,0.0,0.0,0.0,0.0,-3.9568,-3.9591,-4.023,-4.0585,-4.0546,-4.1858,-4.2519,-4.2557,-4.353,-4.3967,-4.3974,-4.3701,-4.3938,-4.4599,-4.3975,-4.4488,-4.5773,-4.5149,-4.581,-4.7352,-4.893,-5.0178,-5.1206,-5.2747,-5.4803,-5.6932,-1.5124,-1.5351,-1.5817,0.0,-1.8164,-1.9281,0.0,0.0,0.0,0.0,-2.7408,-2.8887,-3.0098,-3.0312,-3.043,-3.0547,-3.0547,0.0,0.0,0.0,0.0,-2.6094,-2.5937,-2.5371,-2.4277,-2.4141,-2.3769,-2.3144,-2.3851,-2.4178,-2.4221,-2.474,-2.4992,-2.4982,-2.4489,-2.4326,-2.4511,-2.494,-2.6029,-2.7471,-2.8556,-2.9086,0.0,0.0,-3.1307,-3.1102,-3.1549,-3.2134,-3.2688,-3.2079,-3.2307,-3.2713,-3.2002,-3.2051,-3.2394,-3.2394,-3.3389,-3.4379,-3.3929,-3.428,-3.4751,-3.4463,-3.4314,-3.4465,0.0,0.0,0.0,0.0,0.0,0.0,0.0,0.0,0.0,-3.4045,-3.3314,-3.2737,-3.2314,-3.2275,0.0,-3.2583,0.0,0.0,0.0,0.0,0.0,0.0,0.0,0.0,0.0,0.0,0.0,-3.965,-4.0962,-4.1684,-4.1623,-4.2591,-4.3075,-4.3113,-4.346,-4.3631,-4.3631,-4.4156,-4.4195,-4.3901,-4.548,-4.5736,-4.5149,-4.6728,-4.7645,-4.8159,-4.9811,-5.205,-5.4399,-5.484,-5.5757,-5.6932,-1.5364,-1.5631,0.0,-1.8133,0.0,0.0,-2.1985,-2.3824,0.0,-2.6836,-2.8125,0.0,-2.9941,-3.0547,-3.0898,-3.0898,-3.0898,0.0,-2.9355,0.0,0.0,-2.707,-2.6602,-2.5859,-2.4727,-2.4141,0.0,-2.38,-2.4345,-2.4973,-2.5813,-2.6029,-2.6209,-2.6363,-2.5607,-2.5276,-2.5324,-2.5935,-2.6773,-2.7802,-2.9066,-2.9791,0.0,-3.0778,-3.1114,-3.1182,-3.098,-3.1611,-3.2367,-3.1891,-3.1993,-3.2138,-3.1427,-3.162,-3.2092,-3.2092,-3.2798,-3.3611,-3.3502,-3.3789,-3.4141,-3.4189,-3.4405,-3.4809,-3.5605,-3.6239,-3.6719,0.0,0.0,0.0,0.0,0.0,0.0,-3.4353,-3.3776,-3.3353,-3.2968,0.0,0.0,0.0,-3.3211,0.0,0.0,0.0,0.0,0.0,0.0,0.0,0.0,0.0,0.0,-4.0788,-4.1609,-4.2117,-4.2297,-4.2981,-4.3213,-4.309,-4.3389,-4.3497,-4.3534,-4.4342,-4.4635,-4.4599,-4.5993,-4.6471,-4.6397,-4.7755,-4.8526,-4.9077,-5.1059,-5.3371,-5.5647,-5.5978,-5.6638,-5.7446,-1.5629,-1.5939,0.0,0.0,0.0,0.0,0.0,-2.487,0.0,-2.7109,0.0,-2.918,-2.918,-3.0195,-3.0898,-3.0898,0.0,-3.0371,-2.916,-2.9434,-2.8945,-2.7324,-2.6855,-2.6271,-2.5441,-2.4106,-2.4008,-2.5041,-2.4676,-2.5717,-2.7965,-2.709,-2.7186,-2.8072,-2.7017,-2.6584,-2.6714,-2.743,-2.7868,-2.8168,-2.9605,-3.0214,-3.0306,-3.0443,-3.083,-3.1187,-3.0688,-3.1264,-3.2265,-3.2169,-3.2178,-3.2076,-3.1472,-3.1842,-3.25,-3.2565,-3.2624,-3.2779,-3.3603,-3.3426,-3.3216,-3.4106,-3.4735,-3.5124,-3.5272,-3.5492,-3.5685,-3.5801,-3.5762,-3.5685,0.0,0.0,0.0,-3.4661,-3.4545,0.0,0.0,0.0,0.0,0.0,0.0,0.0,0.0,0.0,0.0,0.0,0.0,0.0,0.0,0.0,0.0,-4.2253,-4.2283,0.0,-4.2883,0.0,-4.324,-4.2969,-4.3332,-4.3534,-4.3681,-4.4488,-4.5259,-4.592,-4.6104,-4.6948,-4.8159,-4.8379,-4.904,-5.0141,-5.2454,-5.4289,-5.5684,-5.6492,-5.7253,-5.793,-1.7051,-1.7375,0.0,0.0,0.0,-2.3724,-2.6002,-2.7454,-2.832,-2.8555,-2.9726,-3.0547,-3.0547,-3.0762,-3.0898,-3.0898,-3.0898,0.0,0.0,0.0,0.0,-2.8633,-2.8184,-2.7617,-2.7022,-2.592,-2.5651,0.0,0.0,-2.6581,-2.7442,-2.7704,-2.795,-2.8072,-2.7419,-2.7283,-2.7471,-2.767,0.0,-2.9846,-2.9574,-2.9842,-3.047,-3.0517,-3.0541,-3.064,-3.1018,-3.1286,-3.1462,-3.1395,-3.1393,-3.1438,-3.1654,-3.2092,-3.2601,-3.2952,-3.2855,-3.2831,-3.3846,-3.3594,-3.3306,-3.4624,-3.5016,-3.5327,-3.6228,-3.6479,-3.6699,-3.7493,-3.7108,-3.6685,-3.6709,0.0,0.0,0.0,0.0,0.0,0.0,0.0,0.0,0.0,0.0,-3.574,0.0,0.0,0.0,0.0,0.0,0.0,0.0,0.0,0.0,0.0,-4.3243,0.0,0.0,0.0,-4.3871,-4.3781,-4.359,-4.3828,-4.4525,-4.5333,-4.5773,-4.5957,-4.7315,-4.7682,-4.7425,-4.8783,-5.0215,-5.1756,-5.3518,-5.4766,-5.5684,-5.6492,-5.6937,-5.7102,0.0,0.0,-1.8489,0.0,0.0,0.0,0.0,-2.8965,0.0,-2.9004,-2.9473,-2.9863,-2.9863,-3.0488,-3.0898,-3.0898,-3.0898,-3.0703,-3.0234,-3.0,-2.959,-2.8945,-2.868,-2.8186,-2.7431,-2.664,-2.6617,-2.736,0.0,-2.7272,-2.8635,-2.855,-2.8373,-2.8072,-2.7685,-2.7799,0.0,0.0,0.0,-3.022,-3.0026,-3.0357,-3.0928,-3.0597,-3.0609,-3.0855,-3.0806,-3.1007,-3.1266,-3.1213,-3.119,-3.1269,-3.166,-3.2127,-3.2565,-3.3045,-3.273,-3.239,-3.331,-3.3168,-3.3053,-3.4158,-3.4863,-3.5431,-3.594,-3.6084,-3.6238,-3.6685,-3.6493,-3.624,-3.6295,-3.6337,0.0,0.0,0.0,0.0,0.0,0.0,-3.7945,0.0,0.0,0.0,0.0,0.0,0.0,0.0,0.0,0.0,0.0,0.0,0.0,0.0,0.0,0.0,0.0,0.0,0.0,-4.3998,-4.366,-4.3901,-4.4745,-4.5516,-4.614,-4.6617,-4.8269,-4.8746,-4.8526,-5.0178,-5.1536,-5.2784,-5.4399,-5.5244,-5.5676,-5.6525,-5.6876,-5.6912,0.0,-1.7465,0.0,0.0,-2.4038,0.0,-2.8058,-2.9687,-3.0371,-2.9316,-2.9277,-2.9336,-2.9336,-3.0273,-3.0898,-3.0898,-3.0898,-3.0644,-3.0098,-2.9746,-2.9407,-2.9084,-2.8778,-2.8452,-2.7993,-2.7167,-2.7313,0.0,0.0,0.0,-2.9603,-2.9451,-2.9083,0.0,0.0,0.0,0.0,0.0,-3.0186,-3.0904,-3.0753,-3.1029,-3.1342,-3.0651,-3.0693,-3.1024,-3.0634,-3.0797,-3.123,-3.1274,-3.1312,-3.1389,-3.1842,-3.2264,-3.2727,-3.3038,-3.2636,-3.2188,-3.2745,-3.2845,-3.302,-3.37,-3.4702,-3.5493,-3.5493,-3.5507,-3.5545,-3.5622,-3.5662,-3.5815,-3.6222,-3.6718,0.0,0.0,0.0,0.0,0.0,0.0,0.0,0.0,0.0,0.0,-3.7123,0.0,0.0,0.0,0.0,0.0,0.0,0.0,0.0,0.0,0.0,-4.4672,-4.4858,0.0,-4.4393,0.0,-4.3922,-4.4268,-4.5259,-4.5883,-4.6581,-4.7462,-4.893,-4.9774,-5.0178,-5.1463,-5.2454,-5.3371,-5.495,-5.5485,-5.5487,-5.6536,-5.6668,-5.6403,0.0,0.0,0.0,0.0,0.0,0.0,-2.8223,-2.9414,-3.0215,-3.0098,-3.0449,-3.0703,-3.0703,-3.082,-3.0898,-3.0898,-3.0898,-3.0527,-2.9687,-2.959,-2.955,-2.9415,-2.8541,-2.8704,-2.9899,-2.8503,-2.8131,0.0,0.0,-2.915,0.0,-3.0218,0.0,0.0,0.0,0.0,0.0,-3.1068,-3.1971,-3.3137,-3.19,-3.1438,-3.1422,-3.0598,-3.0366,-3.0492,-3.0952,-3.1151,-3.1269,-3.1623,-3.177,-3.1808,-3.2264,-3.2763,-3.311,-3.3031,-3.2976,-3.2857,-3.2596,-3.3124,-3.3754,-3.4068,-3.4839,-3.5493,-3.5493,-3.5545,-3.5622,-3.5699,-3.5826,-3.6441,-3.8045,-3.7733,-3.7733,0.0,0.0,0.0,0.0,0.0,-4.0293,-3.9548,0.0,0.0,0.0,-3.7536,0.0,0.0,0.0,0.0,0.0,0.0,0.0,-4.1754,0.0,-4.3942,-4.3504,-4.3887,-4.4401,-4.5084,-4.4733,-4.5406,-4.6911,-4.6985,-4.7425,-4.8233,-4.9187,-5.0398,-5.1793,-5.194,-5.2454,-5.3371,-5.495,-5.5176,-5.4796,-5.6335,-5.6039,-5.4818,0.0,0.0,0.0,0.0,0.0,0.0,0.0,-2.9707,-3.0195,-3.0195,-3.0605,-3.0898,-3.0898,-3.0898,-3.0898,-3.0898,-3.0644,-3.0215,-2.9609,-2.9808,-2.9782,-2.9474,-2.9693,-2.9897,-3.0178,-2.9431,-2.9222,0.0,0.0,0.0,0.0,0.0,0.0,0.0,0.0,-3.1249,-3.2093,-3.2098,-3.2419,-3.2787,-3.1824,-3.1396,-3.1272,-3.0957,-3.0838,-3.0918,-3.1393,-3.1582,-3.1657,-3.2057,-3.2022,-3.1915,-3.2663,-3.316,-3.3479,-3.3685,-3.3623,-3.3431,-3.332,-3.3655,-3.4079,-3.4186,-3.4853,-3.5622,-3.6122,-3.629,-3.655,-3.7133,-3.7405,-3.7617,-3.7773,-3.8398,-3.8906,0.0,0.0,0.0,0.0,0.0,0.0,-4.036,0.0,-3.9738,0.0,0.0,0.0,0.0,0.0,0.0,0.0,0.0,0.0,-4.2259,0.0,-4.457,-4.4096,-4.4541,-4.4892,-4.5196,-4.536,-4.603,-4.7131,-4.7131,-4.8086,-4.9848,-5.0655,-5.1683,-5.2711,-5.2711,-5.3188,-5.3989,-5.4692,-5.5051,-5.526,-5.5482,-5.5119,-5.4544,-2.0631,0.0,-2.3583,0.0,-2.7138,-2.834,-2.9238,-2.9629,-2.9863,-3.0,-3.0293,-3.0547,-3.0664,-3.0566,-3.0508,-3.0508,-3.0195,-2.999,-2.9749,-2.9946,-3.0011,-2.9916,-3.0445,0.0,-3.035,-2.9955,-2.9935,-3.025,-3.061,0.0,0.0,0.0,0.0,0.0,-3.2128,-3.2485,-3.2866,-3.2866,-3.2784,-3.2641,-3.1921,-3.1608,-3.1534,-3.138,-3.1389,-3.1428,-3.1878,-3.1986,-3.2057,-3.2533,-3.253,-3.2462,-3.3094,-3.3524,-3.382,-3.4001,-3.4131,-3.411,-3.3639,-3.4064,-3.4507,-3.4237,-3.5045,-3.6007,-3.6622,-3.706,-3.759,-3.8572,-3.8698,-3.8555,-3.8476,-3.9258,-3.9766,-3.9414,0.0,0.0,0.0,0.0,0.0,-4.0922,-4.0742,-4.0444,-4.0038,-3.9879,0.0,0.0,0.0,0.0,0.0,0.0,0.0,0.0,0.0,0.0,0.0,-4.4939,-4.5419,-4.594,-4.6135,-4.6801,-4.7865,-4.8086,-4.926,-5.1169,-5.1756,-5.2454,-5.3182,-5.3193,-5.3551,-5.4045,-5.4359,-5.4721,-5.4972,-5.472,-5.4482,-5.4235,-2.317,-2.4666,-2.59,-2.6385,-2.777,-2.8906,-2.8926,-2.8926,-2.9082,-2.9531,-2.959,-2.9746,-3.0156,-2.9824,-2.959,-2.959,-2.959,-2.9749,-3.0078,-3.0099,-3.037,0.0,0.0,-3.0326,-3.0578,-3.008,-3.0011,-3.0447,0.0,0.0,-3.0865,0.0,-3.3245,-3.3475,-3.4248,-3.4161,-3.3491,-3.3491,-3.3461,-3.3322,-3.2577,-3.2273,-3.2252,-3.1898,-3.1771,-3.1844,-3.2298,-3.2466,-3.2533,-3.3045,-3.3356,-3.3587,-3.3587,-3.3857,-3.4166,-3.3863,-3.4399,-3.4792,-3.33,-3.416,-3.5276,-3.443,-3.5468,-3.6699,-3.6881,-3.7613,-3.8605,-3.9676,-3.9219,-3.9101,-4.0859,-4.0469,-4.0195,-4.1016,0.0,0.0,0.0,0.0,0.0,-4.1211,-4.0334,-4.0062,-4.09,0.0,0.0,0.0,0.0,0.0,0.0,0.0,0.0,-4.2193,-4.3016,0.0,-4.3998,-4.4817,-4.6015,-4.7657,-4.7278,-4.7976,-4.9591,-5.0398,-5.1206,-5.1977,-5.1977,-5.2454,-5.3219,-5.3215,-5.3219,-5.3315,-5.4171,-5.408,-5.3506,-5.4329,-5.4171,-5.3619,-2.5366,-2.5827,-2.6463,-2.7914,-2.8346,-2.8594,-2.8867,-2.8926,-2.9082,-2.9512,-2.9316,-2.9062,-2.8906,-2.9043,-2.9121,0.0,-2.9413,-2.9558,0.0,-3.0722,-3.1251,-3.0979,-3.0992,-3.0902,-3.0633,-3.0701,-3.0718,-3.0554,0.0,0.0,0.0,-3.312,-3.347,-3.3572,-3.3759,-3.3695,-3.3505,-3.3451,-3.3152,-3.2652,-3.274,-3.2483,-3.2004,-3.2197,-3.2264,-3.2332,-3.2827,-3.2983,-3.3045,-3.3465,-3.3813,-3.4043,-3.4255,-3.4555,-3.4813,-3.4691,-3.4993,-3.5268,-3.4787,-3.5084,-3.5584,-3.5853,-3.6315,-3.7007,-3.8253,-3.9289,-4.0143,-4.0698,-4.0586,-4.0351,-4.0312,-4.0586,-4.0664,-4.0351,-4.082,0.0,0.0,0.0,0.0,-4.1884,-4.1677,-4.1767,0.0,-4.2487,0.0,0.0,0.0,0.0,0.0,0.0,0.0,0.0,-4.4026,0.0,-4.4475,-4.584,-4.6762,-4.7315,-4.8309,-4.937,-5.0435,-5.1242,-5.1756,-5.2013,-5.2025,-5.2499,-5.3132,-5.2716,-5.3122,-5.41,-5.3812,-5.3957,-5.4198,-5.3973,-5.4057,-5.4262,-2.729,-2.7474,-2.7767,-2.8777,-2.8711,-2.8574,-2.8672,-2.8691,-2.8928,-2.9459,-2.9327,-2.9092,-2.9147,-2.9291,0.0,-2.8886,-2.9495,-3.0076,-3.0395,-3.1135,-3.1478,-3.1196,-3.1125,-3.0994,-3.0803,0.0,0.0,-3.1562,-3.2722,-3.3186,-3.3191,-3.3707,-3.393,-3.3939,-3.3881,-3.3727,-3.3473,-3.3119,-3.2666,-3.2149,-3.2421,-3.2367,-3.2092,-3.2565,-3.2763,-3.2827,-3.3255,-3.3437,-3.3494,-3.3813,-3.4141,-3.4464,-3.4735,-3.5034,-3.5239,-3.5239,-3.5369,-3.5584,-3.5892,-3.5968,-3.6161,-3.6969,-3.743,-3.8046,-3.9508,-4.0374,-4.0937,-4.1093,-4.1172,-4.1016,-4.0508,-4.082,-4.1016,-4.0469,-4.0859,-4.1167,-4.1139,0.0,0.0,0.0,0.0,0.0,0.0,-4.3508,0.0,0.0,0.0,0.0,0.0,0.0,0.0,-4.4008,-4.4675,0.0,-4.5626,-4.6617,-4.7278,-4.7572,-4.926,-5.0472,-5.1279,-5.1804,-5.2047,-5.204,-5.2126,-5.2408,-5.2809,-5.2729,-5.3204,-5.4057,-5.3625,-5.3759,-5.4205,-5.3956,-5.4194,-5.4668,-2.9004,-2.9316,0.0,0.0,-2.8945,0.0,-2.8466,-2.8388,-2.874,-2.9495,-2.9635,-2.9928,-3.0585,-3.0264,-2.9774,-2.8951,0.0,0.0,0.0,-3.1276,-3.1086,-3.1386,-3.0939,-3.0854,-3.1193,-3.1315,-3.1935,-3.3128,-3.3335,-3.316,-3.268,-3.3971,-3.4607,-3.4589,-3.4443,-3.3998,-3.3288,-3.2544,-3.2081,-3.1808,-3.1844,-3.2127,-3.2601,-3.3075,-3.3225,-3.3321,-3.3662,-3.3834,-3.385,-3.4141,-3.4442,-3.4793,-3.5016,-3.5308,-3.557,-3.5545,-3.5532,-3.5738,-3.6507,-3.6738,-3.7007,-3.7853,-3.8777,-3.97,-4.0677,-4.1046,-4.117,-4.1172,-4.125,-4.1289,-4.1289,-4.1249,-4.1209,-4.1211,-4.1172,-4.1143,-4.1016,0.0,0.0,0.0,0.0,0.0,0.0,-4.4008,-4.4355,0.0,0.0,0.0,0.0,0.0,-4.3258,-4.5183,-4.4989,-4.559,-4.7095,-4.7241,-4.7719,-4.86,-5.0141,-5.1316,-5.2004,-5.21,-5.2065,-5.2054,-5.2109,-5.2129,-5.2251,-5.3018,-5.3349,-5.3391,-5.3445,-5.3518,-5.3585,-5.4329,-5.4634,-5.4871,0.0,0.0,-2.9531,-2.9434,-2.9141,-2.9095,-2.9784,-2.9807,-3.016,-3.0865,-3.102,-3.0789,-3.0214,-3.0491,-3.0554,-3.0097,-3.0275,-3.042,-3.0162,-3.0894,-3.1133,-3.0834,-3.1318,-3.147,-3.1193,-3.2593,-3.336,-3.3413,-3.2989,-3.2998,-3.3391,-3.4219,-3.4579,-3.4532,-3.3955,-3.3254,-3.251,-3.1765,-3.1602,-3.1808,-3.2196,-3.2598,-3.3075,-3.3494,-3.3634,-3.3662,-3.378,-3.3928,-3.4141,-3.4176,-3.4555,-3.5016,-3.5069,-3.5691,-3.6315,-3.5699,-3.593,-3.6469,-3.6661,-3.7199,-3.7892,-3.8777,-4.0123,-4.1431,-4.2387,-4.2728,-4.286,-4.2962,-4.2539,-4.2109,-4.2109,-4.1533,-4.1072,-4.1167,-4.1094,-4.1053,-4.1143,-4.1664,0.0,0.0,-4.3606,-4.4205,-4.497,-4.5201,-4.5009,0.0,0.0,0.0,0.0,-4.4233,-4.4476,-4.5604,-4.6234,-4.669,-4.7131,-4.8379,-4.9701,-5.1132,-5.1536,-5.184,-5.2045,-5.2087,-5.179,-5.1327,-5.1395,-5.1755,-5.2288,-5.2501,-5.2901,-5.3479,-5.3483,-5.3518,-5.3585,-5.4329,-5.4972,-5.5581,-3.0156,-3.0019,-2.9863,-2.9863,-2.9492,-2.9501,-3.0495,-3.035,-3.067,-3.1854,-3.1846,-3.1598,-3.1451,-3.1745,-3.1636,-3.0943,-3.087,-3.0748,-3.0455,-3.081,-3.1124,-3.1188,-3.1496,-3.1931,-3.2478,-3.318,-3.3563,-3.3513,-3.3177,-3.3391,-3.4071,-3.4405,-3.4533,-3.4438,-3.3389,-3.2645,-3.228,-3.1495,-3.1545,-3.2127,-3.24,-3.2921,-3.3494,-3.3726,-3.3807,-3.3834,-3.3954,-3.4093,-3.4246,-3.4513,-3.5059,-3.5675,-3.5774,-3.6496,-3.7199,-3.6776,-3.6969,-3.7392,-3.7777,-3.8507,-3.9431,-4.07,-4.1739,-4.2547,-4.3079,-4.3288,-4.3448,-4.3583,-4.3294,-4.2962,-4.2967,-4.2214,-4.1608,-4.1599,-4.1615,-4.1595,-4.1617,-4.2357,0.0,-4.3828,-4.4253,-4.4799,-4.5509,-4.5586,-4.5547,-4.5509,0.0,0.0,-4.5862,-4.5933,-4.612,-4.6414,-4.6871,-4.7498,-4.8233,-4.9517,-5.0607,-5.1522,-5.1522,-5.1574,-5.1643,-5.1292,-5.0981,-5.0624,-5.1011,-5.1405,-5.185,-5.2564,-5.3112,-5.3518,-5.3518,-5.3721,-5.4093,-5.4837,-5.5581,-5.6325,-3.0293,-3.0293,-3.0254,-3.0117,-3.003,-3.0148,-3.1106,-3.0912,-3.1184,-3.2817,-3.2524,-3.2471,-3.3032,-3.2993,-3.2516,-3.1486,-3.1311,-3.1235,-3.116,-3.0867,-3.106,-3.183,-3.1729,-3.2379,-3.3945,-3.3483,-3.3262,-3.3475,-3.3551,-3.3921,-3.4607,-3.4544,-3.4438,-3.4269,-3.2882,-3.2205,-3.211,-3.1506,-3.1768,-3.2535,-3.2601,-3.3105,-3.3807,-3.3807,-3.3834,-3.3876,-3.4141,-3.4344,-3.4614,-3.5096,-3.5844,-3.6583,-3.6834,-3.7507,-3.82,-3.82,-3.8392,-3.87,-3.9315,-4.0162,-4.1277,-4.2893,-4.3278,-4.3316,-4.3541,-4.3689,-4.3798,-4.3936,-4.3934,-4.3876,-4.3813,-4.3047,-4.2441,-4.2325,-4.2377,-4.2432,-4.2292,0.0,-4.3943,-4.4449,-4.4624,-4.4953,-4.5701,-4.5778,-4.6163,-4.7009,-4.6717,-4.6824,0.0,-4.7687,-4.7636,-4.7462,-4.7498,-4.8269,-4.9921,-5.0538,-5.0903,-5.1056,-5.1009,-5.095,-5.0929,-5.0418,-5.0092,-5.008,-5.0929,-5.1386,-5.1488,-5.2909,-5.3518,-5.3518,-5.3518,-5.3957,-5.4668,-5.5446,-5.6085,-5.6684,-3.0781,-3.0781,-3.0547,-2.9805,-3.057,-3.1506,-3.1987,-3.2636,-3.3267,-3.423,-3.3956,-3.3496,-3.3144,-3.2641,-3.2089,-3.1436,-3.0984,-3.0532,-3.008,-3.0725,-3.1176,-3.1299,-3.2791,-3.3671,-3.4013,-3.3662,-3.3457,-3.3475,-3.3551,-3.3921,-3.4607,-3.4544,-3.4167,-3.3525,-3.2679,-3.1935,-3.1399,-3.1617,-3.1986,-3.25,-3.2952,-3.3379,-3.3807,-3.3807,-3.3954,-3.4128,-3.4176,-3.4948,-3.5988,-3.606,-3.6824,-3.7732,-3.78,-3.8392,-3.9084,-3.9084,-4.0085,-4.1085,-4.0469,-4.147,-4.2931,-4.3893,-4.4124,-4.4355,-4.5218,-4.544,-4.5564,-4.5687,-4.5204,-4.4774,-4.4654,-4.3859,-4.3205,-4.3217,-4.3241,-4.3221,-4.3189,0.0,-4.4509,-4.4504,-4.5047,-4.5778,-4.6624,-4.6701,-4.7048,-4.7855,-4.7559,-4.7566,-4.8077,-4.7835,-4.8155,-4.9189,-4.9187,-4.9994,-5.161,-5.1144,-5.123,-5.1932,-5.1365,-5.0735,-5.0202,-5.0783,-5.0686,-5.0153,-5.1553,-5.2131,-5.2198,-5.3112,-5.3518,-5.3518,-5.3518,-5.3957,-5.4668,-5.5446,-5.5515,-5.5577,-3.0898,-3.0684,-3.06,-3.0954,-3.1313,-3.2084,-3.3559,-3.359,-3.3671,-3.4595,-3.3972,-3.3345,-3.3093,-3.2842,-3.2441,-3.1888,-3.1336,-3.1023,-3.0984,-3.1153,-3.1462,-3.1947,-3.3227,-3.3926,-3.3715,-3.3908,-3.3917,-3.3518,-3.3931,-3.4496,-3.5144,-3.4678,-3.41,-3.3389,-3.2861,-3.2265,-3.1545,-3.1986,-3.2433,-3.289,-3.3105,-3.3437,-3.3807,-3.3807,-3.3979,-3.4298,-3.4892,-3.5625,-3.6379,-3.7031,-3.7894,-3.8777,-3.92,-3.9931,-4.0739,-4.12,-4.1546,-4.1931,-4.2393,-4.3124,-4.3932,-4.4778,-4.5047,-4.5257,-4.5757,-4.5943,-4.6035,-4.6093,-4.5825,-4.5537,-4.5346,-4.4624,-4.3953,-4.3893,-4.3965,0.0,0.0,-4.4742,-4.5269,-4.5218,-4.5855,-4.6471,-4.6855,-4.7107,-4.758,-4.8405,-4.7934,-4.8085,-4.9139,-4.8927,-4.9196,-5.0215,-5.0295,-5.0671,-5.1399,-5.1167,-5.0987,-5.0981,-5.0662,-5.0146,-4.9496,-5.0249,-5.0441,-5.0168,-5.1657,-5.23,-5.2367,-5.3179,-5.3518,-5.3551,-5.3923,-5.4532,-5.5207,-5.5308,-5.5719,-5.6244,-3.0898,-3.0508,-3.0591,-3.1795,-3.2036,-3.2485,-3.4363,-3.4078,-3.3877,-3.442,-3.3696,-3.3068,-3.3068,-3.3068,-3.2842,-3.2265,-3.206,-3.196,-3.2014,-3.2064,-3.2327,-3.2876,-3.3665,-3.4044,-3.3728,-3.4081,-3.4109,-3.382,-3.435,-3.4958,-3.5588,-3.4844,-3.4201,-3.3668,-3.3205,-3.2674,-3.2121,-3.2506,-3.289,-3.3196,-3.3284,-3.3632,-3.41,-3.4171,-3.4501,-3.4997,-3.5941,-3.6711,-3.7419,-3.8308,-3.9315,-4.0277,-4.0893,-4.1546,-4.2239,-4.2893,-4.2777,-4.2662,-4.3932,-4.4432,-4.4778,-4.547,-4.5719,-4.5808,-4.5877,-4.5996,-4.6068,-4.603,-4.6056,-4.5988,-4.5834,-4.5257,-4.4757,-4.4624,0.0,0.0,0.0,-4.5503,-4.6065,-4.6047,-4.6646,-4.7108,-4.7338,-4.7525,-4.8099,-4.9163,-4.8626,-4.8881,-5.0296,-5.0045,-5.0175,-5.078,-5.0859,-5.0901,-5.0976,-5.0906,-5.0554,-4.9976,-5.0011,-4.9761,-4.9289,-5.0202,-5.0608,-5.0676,-5.1995,-5.257,-5.2638,-5.3247,-5.3619,-5.3822,-5.4363,-5.5002,-5.5559,-5.5379,-5.581,-5.6349,-3.0898,-3.0508,-3.0512,-3.1491,-3.2295,-3.3028,-3.3549,-3.4181,-3.4395,-3.4022,-3.3445,-3.3068,-3.3068,-3.3068,-3.2842,-3.2265,-3.3105,-3.3146,-3.204,-3.3668,-3.4479,-3.3905,-3.425,-3.4483,-3.4411,-3.3877,-3.3909,-3.4544,-3.4592,-3.4958,-3.5588,-3.4844,-3.4472,-3.438,-3.3446,-3.2986,-3.2919,-3.308,-3.3166,-3.3225,-3.3606,-3.422,-3.4936,-3.5268,-3.5993,-3.6961,-3.7319,-3.864,-4.0185,-4.0277,-4.1431,-4.2816,-4.2893,-4.2931,-4.3008,-4.3085,-4.3585,-4.4124,-4.4278,-4.4893,-4.5547,-4.5757,-4.5796,-4.5795,-4.5867,-4.5894,-4.5897,-4.5913,-4.5905,-4.5911,-4.5796,-4.5757,-4.568,-4.5509,0.0,0.0,-4.5543,-4.6334,-4.6894,-4.6817,-4.7197,-4.7747,-4.8571,-4.8325,-4.8815,-5.0409,-5.0156,-5.0296,-5.1152,-5.0894,-5.0775,-5.0905,-5.0885,-5.0964,-5.1083,-5.041,-5.0033,-4.9976,-5.0059,-5.0062,-5.0067,-5.1488,-5.2131,-5.2198,-5.3044,-5.3416,-5.3416,-5.3484,-5.389,-5.4499,-5.4566,-5.4812,-5.5226,-5.5797,-5.5223,-5.4259,-3.0508,-3.0757,-3.1381,-3.2295,-3.2893,-3.364,-3.4621,-3.4413,-3.4148,-3.3922,-3.342,-3.3068,-3.3068,-3.3068,-3.2993,-3.2767,-3.3027,-3.3276,-3.3463,-3.4015,-3.4574,-3.4935,-3.5026,-3.4938,-3.4527,-3.4704,-3.4718,-3.4592,-3.5005,-3.5362,-3.5577,-3.5318,-3.4945,-3.4515,-3.4727,-3.4547,-3.4128,-3.4821,-3.5111,-3.5111,-3.5292,-3.5532,-3.5817,-3.6147,-3.6939,-3.8024,-3.8842,-4.0074,-4.1393,-4.1931,-4.2547,-4.3201,-4.3701,-4.3855,-4.3932,-4.447,-4.4855,-4.5124,-4.5201,-4.5488,-4.5757,-4.5796,-4.5911,-4.5979,-4.5922,-4.5942,-4.5991,-4.5866,-4.5835,-4.5796,-4.5719,-4.568,-4.5817,-4.6317,0.0,-4.6624,-4.7086,-4.7471,-4.7607,-4.7291,-4.7869,-4.8338,-4.8439,-4.8987,-4.9669,-5.0305,-5.0453,-5.0894,-5.1669,-5.1615,-5.1214,-5.0365,-5.0365,-5.0346,-5.039,-4.9722,-4.9342,-4.9376,-4.9853,-5.0101,-5.0135,-5.1623,-5.23,-5.2334,-5.3145,-5.3518,-5.3551,-5.3991,-5.395,-5.3651,-5.4549,-5.4612,-5.418,-5.456,-5.4668,-5.4545,-3.0293,-3.0924,-3.1805,-3.2649,-3.3169,-3.3861,-3.4894,-3.4374,-3.3847,-3.3671,-3.3319,-3.3068,-3.3068,-3.3068,-3.324,-3.3556,-3.3592,-3.395,-3.4771,-3.4593,-3.4773,-3.5424,-3.531,-3.5214,-3.5185,-3.5253,-3.5279,-3.5291,-3.5496,-3.5622,-3.5622,-3.5622,-3.5351,-3.4888,-3.5584,-3.5614,-3.519,-3.5975,-3.6303,-3.6303,-3.6303,-3.645,-3.6728,-3.7262,-3.8153,-3.9346,-4.0459,-4.1589,-4.2701,-4.3278,-4.3662,-4.397,-4.4509,-4.4701,-4.4816,-4.5432,-4.5624,-4.568,-4.5796,-4.5834,-4.5911,-4.5911,-4.618,-4.6485,-4.6328,-4.6579,-4.6719,-4.624,-4.6355,-4.6432,-4.6047,-4.6201,-4.6586,-4.7201,-4.7278,-4.7434,-4.7856,-4.8143,-4.8154,-4.7756,-4.8389,-4.872,-4.8461,-4.9098,-4.9749,-5.0268,-5.0632,-5.1161,-5.198,-5.1682,-5.1034,-5.0033,-4.978,-4.9664,-4.9664,-4.9195,-4.912,-4.9357,-5.0101,-5.0574,-5.0811,-5.2097,-5.2672,-5.2706,-5.3281,-5.3619,-5.389,-5.4397,-5.4209,-5.3691,-5.4678,-5.455,-5.3692,-5.4099,-5.4422,-5.4691,-3.0273,-3.0924,-3.1699,-3.2104,-3.2915,-3.3597,-3.387,-3.3897,-3.3696,-3.3144,-3.3068,-3.3093,-3.3068,-3.3093,-3.3556,-3.4594,-3.5058,-3.546,-3.5899,-3.5642,-3.5519,-3.5519,-3.4861,-3.5217,-3.671,-3.5304,-3.5328,-3.6806,-3.5994,-3.5622,-3.5622,-3.5622,-3.5622,-3.5633,-3.5789,-3.5895,-3.5934,-3.6199,-3.6303,-3.6303,-3.634,-3.6817,-3.7647,-3.8683,-3.9877,-4.1047,-4.2112,-4.3293,-4.4316,-4.4316,-4.4893,-4.5586,-4.5586,-4.5586,-4.5586,-4.5586,-4.5719,-4.5796,-4.5834,-4.595,-4.6103,-4.6103,-4.6754,-4.7352,-4.7234,-4.7865,-4.8202,-4.7124,-4.7548,-4.7855,-4.7048,-4.7548,-4.8086,-4.8125,-4.8125,-4.7991,-4.7556,-4.8257,-4.8669,-4.8287,-4.8652,-4.8915,-4.8915,-4.8569,-4.904,-5.0692,-5.0802,-5.1177,-5.204,-5.077,-4.9976,-4.9976,-4.9376,-4.9018,-4.9018,-4.9018,-4.939,-5.0101,-5.0845,-5.1589,-5.2334,-5.3145,-5.3518,-5.3518,-5.3518,-5.3923,-5.46,-5.46,-5.4812,-5.5073,-5.5073,-5.4645,-5.4016,-5.4637,-5.4626,-5.4311,-3.1125,-3.1955,-3.2672,-3.3082,-3.3765,-3.4247,-3.3909,-3.3571,-3.3269,-3.3093,-3.342,-3.3495,-3.3119,-3.4144,-3.4789,-3.4703,-3.5328,-3.5698,-3.5651,-3.5502,-3.5519,-3.5519,-3.5793,-3.6193,-3.671,-3.6788,-3.7067,-3.7584,-3.6806,-3.6434,-3.6434,-3.5859,-3.5622,-3.5667,-3.6462,-3.6819,-3.6858,-3.7649,-3.7991,-3.8028,-3.8579,-3.8946,-3.9301,-4.0428,-4.1563,-4.2673,-4.3216,-4.4173,-4.5201,-4.5201,-4.5355,-4.5586,-4.5586,-4.5586,-4.5757,-4.6467,-4.6257,-4.6103,-4.7447,-4.7409,-4.7024,-4.7024,-4.6829,-4.6898,-4.7883,-4.785,-4.7607,-4.7722,-4.7932,-4.8048,-4.7778,-4.7932,-4.8317,-4.8894,-4.8774,-4.8754,-4.9272,-4.9808,-4.9994,-4.9594,-5.0176,-5.0488,-5.0267,-5.0625,-5.1096,-5.161,-5.1668,-5.1419,-5.0681,-5.0223,-5.0021,-5.0066,-4.9887,-5.0033,-5.0541,-5.0033,-4.9864,-5.0101,-5.1386,-5.2097,-5.2334,-5.3145,-5.3518,-5.3551,-5.4059,-5.4397,-5.4599,-5.4828,-5.4525,-5.3987,-5.42,-5.3641,-5.2846,-5.4026,-5.4307,-5.4371,-3.1558,-3.2779,-3.3692,-3.3551,-3.42,-3.4525,-3.3972,-3.342,-3.3169,-3.337,-3.3495,-3.352,-3.342,-3.4477,-3.5213,-3.5305,-3.6042,-3.6222,-3.5514,-3.5519,-3.5519,-3.5519,-3.6228,-3.6776,-3.7125,-3.7284,-3.7656,-3.8328,-3.7584,-3.7246,-3.7212,-3.6738,-3.6639,-3.684,-3.7737,-3.8247,-3.8472,-3.9316,-3.9643,-3.968,-4.0194,-4.0377,-4.0483,-4.1508,-4.2387,-4.3186,-4.3867,-4.4679,-4.5419,-4.5568,-4.5586,-4.5586,-4.5586,-4.5817,-4.6163,-4.6506,-4.6468,-4.6636,-4.7863,-4.785,-4.7627,-4.8259,-4.8072,-4.7985,-4.8827,-4.8832,-4.8664,-4.8625,-4.8894,-4.9009,-4.8663,-4.8894,-4.924,-4.9639,-4.9465,-4.9518,-5.0024,-5.0289,-5.0422,-5.0379,-5.0787,-5.1006,-5.0842,-5.1242,-5.1564,-5.1566,-5.1682,-5.1388,-5.0483,-5.0445,-5.0496,-5.0507,-5.0541,-5.0744,-5.1217,-5.1048,-5.0947,-5.098,-5.186,-5.2469,-5.2807,-5.3281,-5.3518,-5.3551,-5.4262,-5.4494,-5.4372,-5.4915,-5.4503,-5.3701,-5.385,-5.356,-5.3084,-5.3922,-5.4371,-5.476,-3.1822,-3.3443,-3.4667,-3.3839,-3.425,-3.46,-3.3997,-3.347,-3.3319,-3.3771,-3.342,-3.3319,-3.3771,-3.4373,-3.5196,-3.6132,-3.6954,-3.6866,-3.5579,-3.5519,-3.5519,-3.5519,-3.6165,-3.6904,-3.7764,-3.7238,-3.7633,-3.9073,-3.8362,-3.799,-3.799,-3.7922,-3.8196,-3.8721,-3.9271,-3.9789,-4.0348,-4.0876,-4.1111,-4.1111,-4.1185,-4.1222,-4.1295,-4.2103,-4.2617,-4.3079,-4.4191,-4.4825,-4.5159,-4.5591,-4.5701,-4.5701,-4.5701,-4.6317,-4.6894,-4.6257,-4.6629,-4.7398,-4.7697,-4.7786,-4.8214,-4.973,-5.0106,-5.0082,-4.9936,-5.038,-5.0548,-4.9702,-5.0164,-5.0471,-4.9663,-5.0144,-5.0525,-5.0159,-5.0024,-5.0031,-5.0098,-5.0149,-5.0342,-5.0842,-5.0986,-5.0982,-5.0904,-5.0863,-5.0787,-5.0854,-5.1068,-5.1153,-5.1094,-5.1157,-5.1251,-5.1319,-5.1319,-5.1352,-5.142,-5.2063,-5.2367,-5.23,-5.2367,-5.2807,-5.3518,-5.3518,-5.345,-5.3483,-5.4226,-5.43,-5.3967,-5.4677,-5.4544,-5.3923,-5.3896,-5.4013,-5.4221,-5.4281,-5.47,-5.5388,-3.2608,-3.366,-3.463,-3.4977,-3.5244,-3.5027,-3.4048,-3.3796,-3.3621,-3.3294,-3.352,-3.3596,-3.3294,-3.4503,-3.5541,-3.616,-3.6954,-3.6866,-3.5579,-3.5519,-3.5519,-3.5519,-3.5683,-3.6352,-3.7764,-3.8196,-3.8924,-3.9851,-3.9106,-3.8768,-3.8734,-3.8159,-3.8196,-3.8721,-3.9271,-3.9789,-4.0348,-4.0876,-4.1111,-4.1185,-4.1809,-4.2029,-4.2139,-4.291,-4.3435,-4.3834,-4.4417,-4.4825,-4.5273,-4.6263,-4.6624,-4.6624,-4.6624,-4.7201,-4.7855,-4.7894,-4.8062,-4.8574,-5.0101,-5.0109,-4.9844,-5.0712,-5.0914,-5.0818,-5.0678,-5.0277,-4.999,-5.0356,-5.0548,-5.0625,-5.0433,-5.0347,-5.0183,-5.0135,-4.9589,-4.9407,-4.9996,-5.0417,-5.0922,-5.1646,-5.2307,-5.2468,-5.1874,-5.1371,-5.0815,-5.0255,-5.0828,-5.0952,-5.0379,-5.0875,-5.1488,-5.2063,-5.2063,-5.2367,-5.301,-5.3179,-5.2909,-5.23,-5.2942,-5.3348,-5.3518,-5.3518,-5.3344,-5.303,-5.3831,-5.3924,-5.3648,-5.3976,-5.409,-5.3956,-5.4066,-5.4119,-5.4281,-5.479,-5.5388,-5.6137,-3.2931,-3.4299,-3.5473,-3.5887,-3.573,-3.5353,-3.4776,-3.4248,-3.3897,-3.3872,-3.3646,-3.3495,-3.347,-3.4931,-3.6084,-3.6728,-3.7205,-3.6866,-3.5579,-3.5519,-3.5519,-3.5519,-3.5519,-3.6196,-3.7764,-3.8189,-3.8941,-4.0087,-3.9681,-3.9512,-3.9512,-3.9106,-3.9397,-4.0192,-4.0447,-4.1049,-4.183,-4.2111,-4.2249,-4.2286,-4.269,-4.2873,-4.291,-4.3314,-4.3597,-4.3855,-4.4411,-4.4919,-4.5496,-4.655,-4.6894,-4.6971,-4.7355,-4.8086,-4.8797,-4.8548,-4.8839,-4.9433,-5.0539,-5.0469,-5.0257,-5.097,-5.1078,-5.0991,-5.0914,-5.051,-5.024,-5.0625,-5.101,-5.1279,-5.1279,-5.0933,-5.0748,-5.0947,-5.0122,-4.9817,-5.0861,-5.1219,-5.1683,-5.2491,-5.2931,-5.304,-5.2665,-5.1757,-5.1123,-5.1107,-5.1511,-5.156,-5.115,-5.1894,-5.2469,-5.2875,-5.2875,-5.3078,-5.3518,-5.3518,-5.3484,-5.3382,-5.3484,-5.3518,-5.3518,-5.3308,-5.3114,-5.2893,-5.3486,-5.3535,-5.3215,-5.3668,-5.396,-5.404,-5.4548,-5.488,-5.5209,-5.5867,-5.6526,-5.7214,-3.2878,-3.4745,-3.6358,-3.6358,-3.5981,-3.5629,-3.5429,-3.4625,-3.4148,-3.4399,-3.3646,-3.333,-3.3958,-3.5492,-3.6665,-3.7079,-3.7267,-3.6926,-3.5759,-3.5579,-3.5519,-3.5519,-3.5619,-3.6352,-3.7764,-3.7937,-3.8668,-4.0087,-4.0087,-4.0087,-4.0087,-4.0204,-4.0814,-4.181,-4.1895,-4.2541,-4.3497,-4.3497,-4.3497,-4.3497,-4.3497,-4.3497,-4.3497,-4.3497,-4.3566,-4.366,-4.4383,-4.5033,-4.574,-4.6778,-4.7124,-4.724,-4.8086,-4.9028,-4.9682,-4.897,-4.9452,-5.0245,-5.0364,-5.0315,-5.0334,-5.0946,-5.1115,-5.1106,-5.1087,-5.0856,-5.0741,-5.0856,-5.1433,-5.1972,-5.2087,-5.1729,-5.1532,-5.1941,-5.1016,-5.0639,-5.1838,-5.1977,-5.2307,-5.3115,-5.3083,-5.2981,-5.2852,-5.185,-5.1425,-5.208,-5.2213,-5.23,-5.23,-5.3078,-5.3518,-5.3518,-5.3518,-5.3518,-5.3518,-5.3348,-5.355,-5.4157,-5.3444,-5.3276,-5.3582,-5.2957,-5.2725,-5.2921,-5.3213,-5.3224,-5.2885,-5.3652,-5.4165,-5.4431,-5.5089,-5.5748,-5.6406,-5.7034,-5.7633,-5.8141,-3.251,-3.4581,-3.6358,-3.6358,-3.6307,-3.5931,-3.4977,-3.47,-3.4299,-3.342,-3.3169,-3.3496,-3.445,-3.6373,-3.7146,-3.6201,-3.6891,-3.7105,-3.6387,-3.5818,-3.5519,-3.5519,-3.6102,-3.6843,-3.7764,-3.8414,-3.9209,-4.0087,-4.0087,-4.0087,-4.0138,-4.0577,-4.1115,-4.181,-4.2342,-4.2921,-4.3497,-4.3497,-4.3497,-4.3497,-4.3497,-4.3497,-4.3497,-4.3497,-4.366,-4.3967,-4.4428,-4.5033,-4.5817,-4.7394,-4.7932,-4.8125,-4.9105,-5.0029,-5.0606,-4.9987,-5.0393,-5.1073,-5.1183,-5.1142,-5.1049,-5.1066,-5.153,-5.1895,-5.1779,-5.1202,-5.0894,-5.1587,-5.1818,-5.2125,-5.2895,-5.24,-5.1903,-5.1986,-5.1264,-5.1029,-5.1867,-5.1977,-5.2307,-5.3115,-5.2714,-5.2095,-5.1521,-5.1295,-5.121,-5.1312,-5.1959,-5.23,-5.23,-5.3078,-5.3518,-5.3518,-5.3518,-5.3518,-5.3518,-5.2557,-5.2203,-5.223,-5.1837,-5.2465,-5.3915,-5.23,-5.2041,-5.2847,-5.289,-5.2978,-5.3224,-5.3916,-5.457,-5.5119,-5.5777,-5.6406,-5.7064,-5.7723,-5.8052,-5.8201,-3.2376,-3.4533,-3.6257,-3.5956,-3.6157,-3.5981,-3.4876,-3.4726,-3.4424,-3.3646,-3.3269,-3.3471,-3.4594,-3.6248,-3.6924,-3.627,-3.6594,-3.6626,-3.5968,-3.5669,-3.5519,-3.5519,-3.5846,-3.6538,-3.7764,-3.8133,-3.8887,-4.0087,-4.0087,-4.0087,-4.0138,-4.0319,-4.092,-4.181,-4.2062,-4.2696,-4.3497,-4.3497,-4.3497,-4.3497,-4.3497,-4.3497,-4.3532,-4.3693,-4.3881,-4.4162,-4.5193,-4.5889,-4.6586,-4.8279,-4.8856,-4.9105,-5.0029,-5.0683,-5.1029,-5.076,-5.097,-5.1335,-5.1363,-5.1644,-5.1891,-5.1797,-5.2279,-5.28,-5.2664,-5.2356,-5.2202,-5.2549,-5.301,-5.3371,-5.3522,-5.3052,-5.2762,-5.299,-5.2159,-5.1756,-5.2564,-5.2674,-5.2657,-5.2607,-5.2359,-5.2107,-5.1859,-5.1828,-5.1995,-5.2469,-5.2807,-5.2976,-5.2976,-5.3315,-5.3518,-5.3518,-5.3518,-5.3179,-5.2627,-5.217,-5.1794,-5.1664,-5.0898,-5.1184,-5.256,-5.2308,-5.241,-5.2815,-5.2948,-5.3507,-5.4341,-5.464,-5.5359,-5.6316,-5.7004,-5.7663,-5.8261,-5.856,-5.868,-5.877]}]]